Time,TemperatureF,DewpointF,PressureIn,WindDirection,WindDirectionDegrees,WindSpeedMPH,WindSpeedGustMPH,Humidity,HourlyPrecipIn,Conditions,Clouds,dailyrainin,SoftwareType,DateUTC
2013-05-30 00:00:00,75.2,60.4,30.06,SSE,158,0.0,0.0,60,0.00,,---,0.00,VWS V14.01,2013-05-30 04:00:00,
2013-05-30 00:01:00,75.2,60.8,30.09,SSW,202,0.0,2.5,61,0.00,,---,0.00,VWS V14.01,2013-05-30 04:01:00,
2013-05-30 00:02:00,75.2,59.9,30.09,ESE,112,0.0,1.1,59,0.00,,---,0.00,VWS V14.01,2013-05-30 04:02:00,
2013-05-30 00:03:00,75.2,60.8,30.09,SSW,202,0.0,2.5,61,0.00,,---,0.00,VWS V14.01,2013-05-30 04:03:00,
2013-05-30 00:04:00,75.2,60.8,30.09,ENE,68,0.0,1.6,61,0.00,,---,0.00,VWS V14.01,2013-05-30 04:04:00,
2013-05-30 00:05:00,75.2,60.8,30.09,ESE,112,0.0,0.0,61,0.00,,---,0.00,VWS V14.01,2013-05-30 04:05:00,
2013-05-30 00:06:00,75.2,60.8,30.09,WNW,292,0.0,0.0,61,0.00,,---,0.00,VWS V14.01,2013-05-30 04:06:00,
2013-05-30 00:07:00,75.2,60.4,30.09,ESE,112,0.0,0.0,60,0.00,,---,0.00,VWS V14.01,2013-05-30 04:07:00,
2013-05-30 00:08:00,75.2,60.8,30.09,South,180,0.0,3.1,61,0.00,,---,0.00,VWS V14.01,2013-05-30 04:08:00,
2013-05-30 00:09:00,75.2,60.8,30.09,East,90,0.0,0.0,61,0.00,,---,0.00,VWS V14.01,2013-05-30 04:09:00,
2013-05-30 00:10:00,75.2,60.8,30.09,South,180,0.0,1.3,61,0.00,,---,0.00,VWS V14.01,2013-05-30 04:10:00,
2013-05-30 00:11:00,75.4,61.5,30.09,SSE,158,0.0,3.8,62,0.00,,---,0.00,VWS V14.01,2013-05-30 04:11:00,
2013-05-30 00:12:00,75.2,60.8,30.09,East,90,0.0,0.0,61,0.00,,---,0.00,VWS V14.01,2013-05-30 04:12:00,
2013-05-30 00:13:00,75.4,61.5,30.09,SSE,158,0.0,3.8,62,0.00,,---,0.00,VWS V14.01,2013-05-30 04:13:00,
2013-05-30 00:14:00,75.2,61.3,30.09,ENE,68,0.0,0.0,62,0.00,,---,0.00,VWS V14.01,2013-05-30 04:14:00,
2013-05-30 00:15:00,75.4,61.5,30.09,ESE,112,0.0,2.9,62,0.00,,---,0.00,VWS V14.01,2013-05-30 04:15:00,
2013-05-30 00:16:00,75.2,61.3,30.09,ESE,112,0.0,0.0,62,0.00,,---,0.00,VWS V14.01,2013-05-30 04:16:00,
2013-05-30 00:17:00,75.4,61.5,30.09,SSW,202,0.0,2.7,62,0.00,,---,0.00,VWS V14.01,2013-05-30 04:17:00,
2013-05-30 00:18:00,75.2,61.3,30.09,ESE,112,0.0,0.0,62,0.00,,---,0.00,VWS V14.01,2013-05-30 04:18:00,
2013-05-30 00:19:00,75.2,60.8,30.09,East,90,0.0,0.0,61,0.00,,---,0.00,VWS V14.01,2013-05-30 04:19:00,
2013-05-30 00:20:00,75.2,61.3,30.09,WSW,248,0.0,0.0,62,0.00,,---,0.00,VWS V14.01,2013-05-30 04:20:00,
2013-05-30 00:21:00,75.2,61.8,30.09,NE,45,2.2,2.2,63,0.00,,---,0.00,VWS V14.01,2013-05-30 04:21:00,
2013-05-30 00:22:00,75.2,61.3,30.09,SSE,158,0.0,2.0,62,0.00,,---,0.00,VWS V14.01,2013-05-30 04:22:00,
2013-05-30 00:23:00,75.2,61.8,30.09,NE,45,2.2,2.2,63,0.00,,---,0.00,VWS V14.01,2013-05-30 04:23:00,
2013-05-30 00:24:00,75.2,61.8,30.09,SSW,202,0.0,3.4,63,0.00,,---,0.00,VWS V14.01,2013-05-30 04:24:00,
2013-05-30 00:25:00,75.2,61.8,30.09,ESE,112,0.0,0.0,63,0.00,,---,0.00,VWS V14.01,2013-05-30 04:25:00,
2013-05-30 00:26:00,75.2,61.8,30.09,SSE,158,0.0,0.0,63,0.00,,---,0.00,VWS V14.01,2013-05-30 04:26:00,
2013-05-30 00:27:00,75.2,61.8,30.09,SE,135,0.0,2.5,63,0.00,,---,0.00,VWS V14.01,2013-05-30 04:27:00,
2013-05-30 00:28:00,75.2,61.8,30.09,SSE,158,0.0,2.7,63,0.00,,---,0.00,VWS V14.01,2013-05-30 04:28:00,
2013-05-30 00:29:00,75.2,61.8,30.09,NNE,22,0.0,2.2,63,0.00,,---,0.00,VWS V14.01,2013-05-30 04:29:00,
2013-05-30 00:30:00,75.2,61.8,30.09,ENE,68,0.0,0.0,63,0.00,,---,0.00,VWS V14.01,2013-05-30 04:30:00,
2013-05-30 00:31:00,75.2,61.8,30.09,SW,225,0.0,0.0,63,0.00,,---,0.00,VWS V14.01,2013-05-30 04:31:00,
2013-05-30 00:32:00,75.2,61.8,30.09,SSW,202,0.0,0.0,63,0.00,,---,0.00,VWS V14.01,2013-05-30 04:32:00,
2013-05-30 00:33:00,75.2,61.8,30.09,SSW,202,0.0,0.0,63,0.00,,---,0.00,VWS V14.01,2013-05-30 04:33:00,
2013-05-30 00:34:00,75.2,61.8,30.09,ENE,68,0.0,0.0,63,0.00,,---,0.00,VWS V14.01,2013-05-30 04:34:00,
2013-05-30 00:35:00,75.2,61.8,30.09,South,180,0.0,0.0,63,0.00,,---,0.00,VWS V14.01,2013-05-30 04:35:00,
2013-05-30 00:36:00,75.0,61.6,30.09,West,270,0.0,0.0,63,0.00,,---,0.00,VWS V14.01,2013-05-30 04:36:00,
2013-05-30 00:37:00,75.0,61.6,30.09,ESE,112,0.0,0.0,63,0.00,,---,0.00,VWS V14.01,2013-05-30 04:37:00,
2013-05-30 00:38:00,75.0,61.6,30.09,West,270,0.0,0.0,63,0.00,,---,0.00,VWS V14.01,2013-05-30 04:38:00,
2013-05-30 00:39:00,75.2,62.2,30.09,South,180,0.0,0.0,64,0.00,,---,0.00,VWS V14.01,2013-05-30 04:39:00,
2013-05-30 00:40:00,75.0,62.0,30.09,WNW,292,0.0,1.3,64,0.00,,---,0.00,VWS V14.01,2013-05-30 04:40:00,
2013-05-30 00:41:00,75.0,62.0,30.09,NE,45,0.0,0.0,64,0.00,,---,0.00,VWS V14.01,2013-05-30 04:41:00,
2013-05-30 00:42:00,75.0,62.0,30.09,NNE,22,0.0,0.0,64,0.00,,---,0.00,VWS V14.01,2013-05-30 04:42:00,
2013-05-30 00:43:00,75.0,62.0,30.09,NE,45,0.0,0.0,64,0.00,,---,0.00,VWS V14.01,2013-05-30 04:43:00,
2013-05-30 00:44:00,75.0,62.0,30.09,SSW,202,0.0,0.0,64,0.00,,---,0.00,VWS V14.01,2013-05-30 04:44:00,
2013-05-30 00:45:00,75.0,62.0,30.09,WSW,248,0.0,0.0,64,0.00,,---,0.00,VWS V14.01,2013-05-30 04:45:00,
2013-05-30 00:46:00,75.0,62.5,30.09,ENE,68,0.0,0.0,65,0.00,,---,0.00,VWS V14.01,2013-05-30 04:46:00,
2013-05-30 00:47:00,75.0,62.0,30.09,SSE,158,0.0,0.0,64,0.00,,---,0.00,VWS V14.01,2013-05-30 04:47:00,
2013-05-30 00:48:00,75.0,62.0,30.09,ENE,68,0.0,3.1,64,0.00,,---,0.00,VWS V14.01,2013-05-30 04:48:00,
2013-05-30 00:49:00,75.0,62.5,30.09,ESE,112,0.0,2.2,65,0.00,,---,0.00,VWS V14.01,2013-05-30 04:49:00,
2013-05-30 00:50:00,75.0,62.5,30.09,SSE,158,0.0,2.5,65,0.00,,---,0.00,VWS V14.01,2013-05-30 04:50:00,
2013-05-30 00:51:00,75.0,62.5,30.09,SSW,202,0.0,1.3,65,0.00,,---,0.00,VWS V14.01,2013-05-30 04:51:00,
2013-05-30 00:52:00,75.0,62.5,30.09,SE,135,1.3,1.3,65,0.00,,---,0.00,VWS V14.01,2013-05-30 04:52:00,
2013-05-30 00:53:00,75.0,62.5,30.09,SSW,202,0.0,1.3,65,0.00,,---,0.00,VWS V14.01,2013-05-30 04:53:00,
2013-05-30 00:54:00,75.0,62.5,30.09,SSW,202,0.0,0.0,65,0.00,,---,0.00,VWS V14.01,2013-05-30 04:54:00,
2013-05-30 00:55:00,75.0,62.5,30.09,ENE,68,0.0,0.0,65,0.00,,---,0.00,VWS V14.01,2013-05-30 04:55:00,
2013-05-30 00:56:00,75.0,62.5,30.09,ENE,68,0.0,0.0,65,0.00,,---,0.00,VWS V14.01,2013-05-30 04:56:00,
2013-05-30 00:57:00,75.0,62.5,30.09,SSW,202,0.0,0.0,65,0.00,,---,0.00,VWS V14.01,2013-05-30 04:57:00,
2013-05-30 00:58:00,75.0,62.5,30.09,ENE,68,0.0,0.0,65,0.00,,---,0.00,VWS V14.01,2013-05-30 04:58:00,
2013-05-30 00:59:00,75.0,62.5,30.09,ENE,68,0.0,0.0,65,0.00,,---,0.00,VWS V14.01,2013-05-30 04:59:00,
2013-05-30 01:00:00,75.2,62.6,30.09,ESE,112,2.0,2.0,65,0.00,,---,0.00,VWS V14.01,2013-05-30 05:00:00,
2013-05-30 01:01:00,75.0,62.5,30.09,NNE,22,0.0,0.0,65,0.00,,---,0.00,VWS V14.01,2013-05-30 05:01:00,
2013-05-30 01:02:00,75.2,62.6,30.09,NNE,22,0.0,0.0,65,0.00,,---,0.00,VWS V14.01,2013-05-30 05:02:00,
2013-05-30 01:03:00,75.0,62.5,30.09,NNE,22,0.0,0.0,65,0.00,,---,0.00,VWS V14.01,2013-05-30 05:03:00,
2013-05-30 01:04:00,75.0,62.5,30.09,East,90,0.0,0.0,65,0.00,,---,0.00,VWS V14.01,2013-05-30 05:04:00,
2013-05-30 01:05:00,75.0,62.9,30.09,West,270,0.9,0.9,66,0.00,,---,0.00,VWS V14.01,2013-05-30 05:05:00,
2013-05-30 01:06:00,75.0,62.9,30.09,NNE,22,0.0,0.0,66,0.00,,---,0.00,VWS V14.01,2013-05-30 05:06:00,
2013-05-30 01:07:00,75.0,62.9,30.09,ENE,68,1.1,2.0,66,0.00,,---,0.00,VWS V14.01,2013-05-30 05:07:00,
2013-05-30 01:08:00,75.0,62.9,30.09,NNE,22,0.0,1.1,66,0.00,,---,0.00,VWS V14.01,2013-05-30 05:08:00,
2013-05-30 01:09:00,75.0,62.9,30.09,SE,135,1.3,1.3,66,0.00,,---,0.00,VWS V14.01,2013-05-30 05:09:00,
2013-05-30 01:10:00,75.0,63.3,30.09,WSW,248,0.0,2.2,67,0.00,,---,0.00,VWS V14.01,2013-05-30 05:10:00,
2013-05-30 01:11:00,75.0,63.3,30.09,ESE,112,0.0,2.2,67,0.00,,---,0.00,VWS V14.01,2013-05-30 05:11:00,
2013-05-30 01:12:00,75.0,63.3,30.09,ENE,68,2.2,2.2,67,0.00,,---,0.00,VWS V14.01,2013-05-30 05:12:00,
2013-05-30 01:13:00,75.0,63.3,30.09,ESE,112,0.0,2.2,67,0.00,,---,0.00,VWS V14.01,2013-05-30 05:13:00,
2013-05-30 01:14:00,75.0,63.3,30.09,SSW,202,0.0,1.1,67,0.00,,---,0.00,VWS V14.01,2013-05-30 05:14:00,
2013-05-30 01:15:00,75.0,63.3,30.09,SSE,158,0.0,0.0,67,0.00,,---,0.00,VWS V14.01,2013-05-30 05:15:00,
2013-05-30 01:16:00,75.0,63.8,30.09,ENE,68,0.0,1.3,68,0.00,,---,0.00,VWS V14.01,2013-05-30 05:16:00,
2013-05-30 01:17:00,75.0,63.3,30.09,ESE,112,1.3,3.1,67,0.00,,---,0.00,VWS V14.01,2013-05-30 05:17:00,
2013-05-30 01:18:00,75.0,63.8,30.09,ENE,68,0.0,1.3,68,0.00,,---,0.00,VWS V14.01,2013-05-30 05:18:00,
2013-05-30 01:19:00,75.0,63.3,30.09,SSE,158,0.0,0.0,67,0.00,,---,0.00,VWS V14.01,2013-05-30 05:19:00,
2013-05-30 01:20:00,75.0,63.3,30.09,ESE,112,0.0,0.0,67,0.00,,---,0.00,VWS V14.01,2013-05-30 05:20:00,
2013-05-30 01:21:00,75.0,63.3,30.09,NNE,22,0.0,3.1,67,0.00,,---,0.00,VWS V14.01,2013-05-30 05:21:00,
2013-05-30 01:22:00,75.0,63.3,30.09,ENE,68,3.1,3.1,67,0.00,,---,0.00,VWS V14.01,2013-05-30 05:22:00,
2013-05-30 01:23:00,75.0,63.3,30.09,NNE,22,0.0,3.1,67,0.00,,---,0.00,VWS V14.01,2013-05-30 05:23:00,
2013-05-30 01:24:00,75.0,63.3,30.09,ENE,68,0.0,0.0,67,0.00,,---,0.00,VWS V14.01,2013-05-30 05:24:00,
2013-05-30 01:25:00,75.0,63.3,30.09,East,90,0.0,0.0,67,0.00,,---,0.00,VWS V14.01,2013-05-30 05:25:00,
2013-05-30 01:26:00,75.0,63.3,30.09,SSE,158,1.3,2.7,67,0.00,,---,0.00,VWS V14.01,2013-05-30 05:26:00,
2013-05-30 01:27:00,75.0,63.3,30.09,SSE,158,0.0,0.0,67,0.00,,---,0.00,VWS V14.01,2013-05-30 05:27:00,
2013-05-30 01:28:00,75.0,63.3,30.09,SSE,158,1.3,2.7,67,0.00,,---,0.00,VWS V14.01,2013-05-30 05:28:00,
2013-05-30 01:29:00,74.8,63.2,30.09,East,90,0.0,1.3,67,0.00,,---,0.00,VWS V14.01,2013-05-30 05:29:00,
2013-05-30 01:30:00,74.8,63.2,30.09,North,0,0.0,0.0,67,0.00,,---,0.00,VWS V14.01,2013-05-30 05:30:00,
2013-05-30 01:31:00,74.8,63.2,30.06,East,90,0.0,0.0,67,0.00,,---,0.00,VWS V14.01,2013-05-30 05:31:00,
2013-05-30 01:32:00,74.8,63.2,30.06,ENE,68,0.0,0.0,67,0.00,,---,0.00,VWS V14.01,2013-05-30 05:32:00,
2013-05-30 01:33:00,74.8,63.2,30.06,East,90,0.0,0.0,67,0.00,,---,0.00,VWS V14.01,2013-05-30 05:33:00,
2013-05-30 01:34:00,74.8,63.6,30.06,ENE,68,0.0,1.3,68,0.00,,---,0.00,VWS V14.01,2013-05-30 05:34:00,
2013-05-30 01:35:00,74.8,63.6,30.06,ENE,68,0.0,0.0,68,0.00,,---,0.00,VWS V14.01,2013-05-30 05:35:00,
2013-05-30 01:36:00,74.8,63.6,30.06,East,90,0.0,0.0,68,0.00,,---,0.00,VWS V14.01,2013-05-30 05:36:00,
2013-05-30 01:37:00,74.8,63.6,30.06,SSW,202,0.0,0.0,68,0.00,,---,0.00,VWS V14.01,2013-05-30 05:37:00,
2013-05-30 01:38:00,74.8,63.6,30.06,East,90,0.0,0.0,68,0.00,,---,0.00,VWS V14.01,2013-05-30 05:38:00,
2013-05-30 01:39:00,74.7,63.4,30.06,ENE,68,0.0,2.0,68,0.00,,---,0.00,VWS V14.01,2013-05-30 05:39:00,
2013-05-30 01:40:00,74.7,63.4,30.06,ENE,68,2.9,2.9,68,0.00,,---,0.00,VWS V14.01,2013-05-30 05:40:00,
2013-05-30 01:41:00,74.7,63.4,30.06,SSE,158,0.0,0.0,68,0.00,,---,0.00,VWS V14.01,2013-05-30 05:41:00,
2013-05-30 01:42:00,74.7,63.4,30.06,SE,135,0.0,0.0,68,0.00,,---,0.00,VWS V14.01,2013-05-30 05:42:00,
2013-05-30 01:43:00,74.7,63.4,30.06,SSE,158,0.0,0.0,68,0.00,,---,0.00,VWS V14.01,2013-05-30 05:43:00,
2013-05-30 01:44:00,74.7,63.4,30.06,ENE,68,0.0,2.0,68,0.00,,---,0.00,VWS V14.01,2013-05-30 05:44:00,
2013-05-30 01:45:00,74.7,63.4,30.06,ENE,68,0.0,2.2,68,0.00,,---,0.00,VWS V14.01,2013-05-30 05:45:00,
2013-05-30 01:46:00,74.7,63.8,30.06,East,90,1.3,2.9,69,0.00,,---,0.00,VWS V14.01,2013-05-30 05:46:00,
2013-05-30 01:47:00,74.7,63.4,30.06,ENE,68,2.9,2.9,68,0.00,,---,0.00,VWS V14.01,2013-05-30 05:47:00,
2013-05-30 01:48:00,74.7,63.8,30.06,East,90,1.3,2.9,69,0.00,,---,0.00,VWS V14.01,2013-05-30 05:48:00,
2013-05-30 01:49:00,74.7,63.8,30.06,NE,45,0.0,2.0,69,0.00,,---,0.00,VWS V14.01,2013-05-30 05:49:00,
2013-05-30 01:50:00,74.5,64.1,30.06,SSE,158,0.0,4.9,70,0.00,,---,0.00,VWS V14.01,2013-05-30 05:50:00,
2013-05-30 01:51:00,74.5,63.7,30.06,SE,135,0.0,0.0,69,0.00,,---,0.00,VWS V14.01,2013-05-30 05:51:00,
2013-05-30 01:52:00,74.5,63.7,30.06,ENE,68,1.6,1.6,69,0.00,,---,0.00,VWS V14.01,2013-05-30 05:52:00,
2013-05-30 01:53:00,74.5,64.1,30.06,SSE,158,0.0,4.9,70,0.00,,---,0.00,VWS V14.01,2013-05-30 05:53:00,
2013-05-30 01:54:00,74.5,63.7,30.06,East,90,0.0,2.2,69,0.00,,---,0.00,VWS V14.01,2013-05-30 05:54:00,
2013-05-30 01:55:00,74.5,64.1,30.06,NNW,338,2.9,2.9,70,0.00,,---,0.00,VWS V14.01,2013-05-30 05:55:00,
2013-05-30 01:56:00,74.5,63.7,30.06,East,90,0.0,0.0,69,0.00,,---,0.00,VWS V14.01,2013-05-30 05:56:00,
2013-05-30 01:57:00,74.5,63.7,30.06,East,90,0.0,0.0,69,0.00,,---,0.00,VWS V14.01,2013-05-30 05:57:00,
2013-05-30 01:58:00,74.5,64.1,30.06,North,0,3.6,3.6,70,0.00,,---,0.00,VWS V14.01,2013-05-30 05:58:00,
2013-05-30 01:59:00,74.5,64.1,30.06,SSW,202,0.0,3.6,70,0.00,,---,0.00,VWS V14.01,2013-05-30 05:59:00,
2013-05-30 02:00:00,74.3,63.9,30.06,ENE,68,0.0,0.0,70,0.00,,---,0.00,VWS V14.01,2013-05-30 06:00:00,
2013-05-30 02:01:00,74.3,63.5,30.06,ESE,112,0.0,0.0,69,0.00,,---,0.00,VWS V14.01,2013-05-30 06:01:00,
2013-05-30 02:02:00,74.3,63.9,30.06,ENE,68,0.0,0.0,70,0.00,,---,0.00,VWS V14.01,2013-05-30 06:02:00,
2013-05-30 02:03:00,74.3,63.9,30.06,ENE,68,0.0,0.0,70,0.00,,---,0.00,VWS V14.01,2013-05-30 06:03:00,
2013-05-30 02:04:00,74.3,63.5,30.06,ENE,68,0.0,0.0,69,0.00,,---,0.00,VWS V14.01,2013-05-30 06:04:00,
2013-05-30 02:05:00,74.3,63.9,30.06,WSW,248,0.0,0.0,70,0.00,,---,0.00,VWS V14.01,2013-05-30 06:05:00,
2013-05-30 02:06:00,74.3,63.5,30.06,ENE,68,0.0,0.9,69,0.00,,---,0.00,VWS V14.01,2013-05-30 06:06:00,
2013-05-30 02:07:00,74.3,63.5,30.06,East,90,0.0,0.0,69,0.00,,---,0.00,VWS V14.01,2013-05-30 06:07:00,
2013-05-30 02:08:00,74.3,63.9,30.06,WSW,248,0.0,0.0,70,0.00,,---,0.00,VWS V14.01,2013-05-30 06:08:00,
2013-05-30 02:09:00,74.3,63.9,30.06,East,90,1.3,1.3,70,0.00,,---,0.00,VWS V14.01,2013-05-30 06:09:00,
2013-05-30 02:10:00,74.3,63.9,30.06,ESE,112,0.0,1.3,70,0.00,,---,0.00,VWS V14.01,2013-05-30 06:10:00,
2013-05-30 02:11:00,74.3,63.9,30.06,ENE,68,0.0,0.0,70,0.00,,---,0.00,VWS V14.01,2013-05-30 06:11:00,
2013-05-30 02:12:00,74.3,63.9,30.06,ESE,112,0.0,0.0,70,0.00,,---,0.00,VWS V14.01,2013-05-30 06:12:00,
2013-05-30 02:13:00,74.3,63.9,30.06,ESE,112,0.0,1.3,70,0.00,,---,0.00,VWS V14.01,2013-05-30 06:13:00,
2013-05-30 02:14:00,74.1,63.7,30.06,ENE,68,0.0,0.0,70,0.00,,---,0.00,VWS V14.01,2013-05-30 06:14:00,
2013-05-30 02:15:00,74.3,63.9,30.06,West,270,0.0,0.0,70,0.00,,---,0.00,VWS V14.01,2013-05-30 06:15:00,
2013-05-30 02:16:00,74.3,63.9,30.06,East,90,0.0,2.7,70,0.00,,---,0.00,VWS V14.01,2013-05-30 06:16:00,
2013-05-30 02:17:00,74.3,63.9,30.06,SW,225,0.0,0.0,70,0.00,,---,0.00,VWS V14.01,2013-05-30 06:17:00,
2013-05-30 02:18:00,74.3,63.9,30.06,West,270,0.0,0.0,70,0.00,,---,0.00,VWS V14.01,2013-05-30 06:18:00,
2013-05-30 02:19:00,74.3,63.9,30.06,SSE,158,0.0,0.0,70,0.00,,---,0.00,VWS V14.01,2013-05-30 06:19:00,
2013-05-30 02:20:00,74.1,63.7,30.06,ENE,68,0.0,0.0,70,0.00,,---,0.00,VWS V14.01,2013-05-30 06:20:00,
2013-05-30 02:21:00,74.3,64.3,30.06,NE,45,0.0,0.0,71,0.00,,---,0.00,VWS V14.01,2013-05-30 06:21:00,
2013-05-30 02:22:00,74.1,63.7,30.06,ESE,112,0.0,0.0,70,0.00,,---,0.00,VWS V14.01,2013-05-30 06:22:00,
2013-05-30 02:23:00,74.1,63.7,30.06,ENE,68,0.0,0.0,70,0.00,,---,0.00,VWS V14.01,2013-05-30 06:23:00,
2013-05-30 02:24:00,74.1,63.7,30.06,North,0,0.0,0.0,70,0.00,,---,0.00,VWS V14.01,2013-05-30 06:24:00,
2013-05-30 02:25:00,74.1,64.1,30.06,SW,225,0.0,0.0,71,0.00,,---,0.00,VWS V14.01,2013-05-30 06:25:00,
2013-05-30 02:26:00,74.1,63.7,30.06,East,90,0.0,0.0,70,0.00,,---,0.00,VWS V14.01,2013-05-30 06:26:00,
2013-05-30 02:27:00,74.1,63.7,30.06,NE,45,0.0,0.0,70,0.00,,---,0.00,VWS V14.01,2013-05-30 06:27:00,
2013-05-30 02:28:00,74.1,64.1,30.06,SW,225,0.0,0.0,71,0.00,,---,0.00,VWS V14.01,2013-05-30 06:28:00,
2013-05-30 02:29:00,74.1,64.1,30.06,ENE,68,0.0,0.0,71,0.00,,---,0.00,VWS V14.01,2013-05-30 06:29:00,
2013-05-30 02:30:00,74.3,64.3,30.06,ENE,68,0.9,2.9,71,0.00,,---,0.00,VWS V14.01,2013-05-30 06:30:00,
2013-05-30 02:31:00,74.3,64.3,30.06,SE,135,0.0,0.0,71,0.00,,---,0.00,VWS V14.01,2013-05-30 06:31:00,
2013-05-30 02:32:00,74.3,64.3,30.06,ENE,68,2.9,2.9,71,0.00,,---,0.00,VWS V14.01,2013-05-30 06:32:00,
2013-05-30 02:33:00,74.3,64.3,30.06,ENE,68,0.0,2.9,71,0.00,,---,0.00,VWS V14.01,2013-05-30 06:33:00,
2013-05-30 02:34:00,74.3,64.3,30.06,ENE,68,0.0,0.0,71,0.00,,---,0.00,VWS V14.01,2013-05-30 06:34:00,
2013-05-30 02:35:00,74.3,64.3,30.06,SSW,202,0.0,0.0,71,0.00,,---,0.00,VWS V14.01,2013-05-30 06:35:00,
2013-05-30 02:36:00,74.3,64.3,30.06,SE,135,0.0,0.0,71,0.00,,---,0.00,VWS V14.01,2013-05-30 06:36:00,
2013-05-30 02:37:00,74.3,64.3,30.06,ESE,112,0.0,0.0,71,0.00,,---,0.00,VWS V14.01,2013-05-30 06:37:00,
2013-05-30 02:38:00,74.3,64.3,30.06,ENE,68,0.0,0.0,71,0.00,,---,0.00,VWS V14.01,2013-05-30 06:38:00,
2013-05-30 02:39:00,74.3,64.3,30.06,ENE,68,0.0,0.0,71,0.00,,---,0.00,VWS V14.01,2013-05-30 06:39:00,
2013-05-30 02:40:00,74.3,64.7,30.06,West,270,0.0,2.7,72,0.00,,---,0.00,VWS V14.01,2013-05-30 06:40:00,
2013-05-30 02:41:00,74.3,64.7,30.06,ESE,112,0.0,2.7,72,0.00,,---,0.00,VWS V14.01,2013-05-30 06:41:00,
2013-05-30 02:42:00,74.3,64.7,30.06,ENE,68,0.0,0.0,72,0.00,,---,0.00,VWS V14.01,2013-05-30 06:42:00,
2013-05-30 02:43:00,74.3,65.1,30.06,WSW,248,1.6,2.7,73,0.00,,---,0.00,VWS V14.01,2013-05-30 06:43:00,
2013-05-30 02:44:00,74.3,65.1,30.06,SSW,202,0.0,2.7,73,0.00,,---,0.00,VWS V14.01,2013-05-30 06:44:00,
2013-05-30 02:45:00,74.3,64.7,30.06,East,90,0.0,1.3,72,0.00,,---,0.00,VWS V14.01,2013-05-30 06:45:00,
2013-05-30 02:46:00,74.3,65.1,30.06,SE,135,0.0,2.5,73,0.00,,---,0.00,VWS V14.01,2013-05-30 06:46:00,
2013-05-30 02:47:00,74.3,64.7,30.06,South,180,1.3,1.3,72,0.00,,---,0.00,VWS V14.01,2013-05-30 06:47:00,
2013-05-30 02:48:00,74.3,64.7,30.06,East,90,0.0,1.3,72,0.00,,---,0.00,VWS V14.01,2013-05-30 06:48:00,
2013-05-30 02:49:00,74.3,64.7,30.06,ENE,68,0.0,0.0,72,0.00,,---,0.00,VWS V14.01,2013-05-30 06:49:00,
2013-05-30 02:50:00,74.3,65.1,30.06,South,180,0.0,3.8,73,0.00,,---,0.00,VWS V14.01,2013-05-30 06:50:00,
2013-05-30 02:51:00,74.3,64.7,30.06,ESE,112,0.0,0.0,72,0.00,,---,0.00,VWS V14.01,2013-05-30 06:51:00,
2013-05-30 02:52:00,74.3,64.7,30.06,NNE,22,0.0,0.0,72,0.00,,---,0.00,VWS V14.01,2013-05-30 06:52:00,
2013-05-30 02:53:00,74.3,65.1,30.06,South,180,0.0,3.8,73,0.00,,---,0.00,VWS V14.01,2013-05-30 06:53:00,
2013-05-30 02:54:00,74.1,64.9,30.06,East,90,0.0,0.0,73,0.00,,---,0.00,VWS V14.01,2013-05-30 06:54:00,
2013-05-30 02:55:00,74.1,64.5,30.06,NE,45,1.1,1.1,72,0.00,,---,0.00,VWS V14.01,2013-05-30 06:55:00,
2013-05-30 02:56:00,74.1,64.9,30.06,East,90,0.0,0.0,73,0.00,,---,0.00,VWS V14.01,2013-05-30 06:56:00,
2013-05-30 02:57:00,74.1,64.5,30.06,SW,225,0.0,0.0,72,0.00,,---,0.00,VWS V14.01,2013-05-30 06:57:00,
2013-05-30 02:58:00,74.1,64.5,30.06,SE,135,0.9,1.1,72,0.00,,---,0.00,VWS V14.01,2013-05-30 06:58:00,
2013-05-30 02:59:00,74.1,64.9,30.06,WSW,248,0.0,0.9,73,0.00,,---,0.00,VWS V14.01,2013-05-30 06:59:00,
2013-05-30 03:00:00,74.3,65.1,30.06,SE,135,0.9,0.9,73,0.00,,---,0.00,VWS V14.01,2013-05-30 07:00:00,
2013-05-30 03:01:00,74.1,64.9,30.06,SSW,202,0.0,0.0,73,0.00,,---,0.00,VWS V14.01,2013-05-30 07:01:00,
2013-05-30 03:02:00,74.3,65.1,30.06,ESE,112,0.0,0.9,73,0.00,,---,0.00,VWS V14.01,2013-05-30 07:02:00,
2013-05-30 03:03:00,74.3,65.1,30.06,ESE,112,0.0,0.9,73,0.00,,---,0.00,VWS V14.01,2013-05-30 07:03:00,
2013-05-30 03:04:00,74.3,65.1,30.06,NE,45,0.0,0.9,73,0.00,,---,0.00,VWS V14.01,2013-05-30 07:04:00,
2013-05-30 03:05:00,74.1,64.9,30.06,SSE,158,0.0,2.9,73,0.00,,---,0.00,VWS V14.01,2013-05-30 07:05:00,
2013-05-30 03:06:00,74.1,64.9,30.06,WSW,248,0.0,0.0,73,0.00,,---,0.00,VWS V14.01,2013-05-30 07:06:00,
2013-05-30 03:07:00,74.1,64.9,30.06,East,90,0.0,0.9,73,0.00,,---,0.00,VWS V14.01,2013-05-30 07:07:00,
2013-05-30 03:08:00,74.1,64.9,30.06,SSE,158,0.0,2.9,73,0.00,,---,0.00,VWS V14.01,2013-05-30 07:08:00,
2013-05-30 03:09:00,74.1,64.9,30.06,ENE,68,0.0,0.0,73,0.00,,---,0.00,VWS V14.01,2013-05-30 07:09:00,
2013-05-30 03:10:00,74.1,65.3,30.06,SE,135,0.0,0.0,74,0.00,,---,0.00,VWS V14.01,2013-05-30 07:10:00,
2013-05-30 03:11:00,74.1,64.9,30.06,East,90,0.0,1.6,73,0.00,,---,0.00,VWS V14.01,2013-05-30 07:11:00,
2013-05-30 03:12:00,74.1,65.3,30.06,ESE,112,0.0,1.6,74,0.00,,---,0.00,VWS V14.01,2013-05-30 07:12:00,
2013-05-30 03:13:00,74.1,65.3,30.06,ENE,68,0.9,0.9,74,0.00,,---,0.00,VWS V14.01,2013-05-30 07:13:00,
2013-05-30 03:14:00,74.1,64.9,30.06,ESE,112,0.0,0.9,73,0.00,,---,0.00,VWS V14.01,2013-05-30 07:14:00,
2013-05-30 03:15:00,74.1,64.9,30.06,ESE,112,0.0,0.9,73,0.00,,---,0.00,VWS V14.01,2013-05-30 07:15:00,
2013-05-30 03:16:00,74.1,64.9,30.06,ESE,112,0.0,0.0,73,0.00,,---,0.00,VWS V14.01,2013-05-30 07:16:00,
2013-05-30 03:17:00,74.1,64.9,30.06,East,90,0.0,0.0,73,0.00,,---,0.00,VWS V14.01,2013-05-30 07:17:00,
2013-05-30 03:18:00,74.1,64.9,30.06,ENE,68,1.6,1.6,73,0.00,,---,0.00,VWS V14.01,2013-05-30 07:18:00,
2013-05-30 03:19:00,74.1,64.9,30.06,SE,135,0.0,1.6,73,0.00,,---,0.00,VWS V14.01,2013-05-30 07:19:00,
2013-05-30 03:20:00,74.1,64.9,30.06,East,90,1.6,1.6,73,0.00,,---,0.00,VWS V14.01,2013-05-30 07:20:00,
2013-05-30 03:21:00,74.1,64.9,30.06,ENE,68,0.0,0.0,73,0.00,,---,0.00,VWS V14.01,2013-05-30 07:21:00,
2013-05-30 03:22:00,73.9,64.8,30.06,NNE,22,0.0,0.0,73,0.00,,---,0.00,VWS V14.01,2013-05-30 07:22:00,
2013-05-30 03:23:00,74.1,64.9,30.06,ESE,112,0.0,1.6,73,0.00,,---,0.00,VWS V14.01,2013-05-30 07:23:00,
2013-05-30 03:24:00,74.1,64.9,30.06,ENE,68,0.0,0.0,73,0.00,,---,0.00,VWS V14.01,2013-05-30 07:24:00,
2013-05-30 03:25:00,73.9,64.8,30.06,East,90,0.0,0.0,73,0.00,,---,0.00,VWS V14.01,2013-05-30 07:25:00,
2013-05-30 03:26:00,73.9,64.8,30.06,SSE,158,0.0,0.0,73,0.00,,---,0.00,VWS V14.01,2013-05-30 07:26:00,
2013-05-30 03:27:00,73.9,64.8,30.06,SE,135,0.0,0.0,73,0.00,,---,0.00,VWS V14.01,2013-05-30 07:27:00,
2013-05-30 03:28:00,73.9,64.8,30.06,ENE,68,0.0,0.0,73,0.00,,---,0.00,VWS V14.01,2013-05-30 07:28:00,
2013-05-30 03:29:00,73.9,64.8,30.06,ENE,68,0.0,0.0,73,0.00,,---,0.00,VWS V14.01,2013-05-30 07:29:00,
2013-05-30 03:30:00,73.9,64.8,30.06,ESE,112,0.0,0.0,73,0.00,,---,0.00,VWS V14.01,2013-05-30 07:30:00,
2013-05-30 03:31:00,73.9,64.8,30.06,NNW,338,0.0,0.0,73,0.00,,---,0.00,VWS V14.01,2013-05-30 07:31:00,
2013-05-30 03:32:00,73.9,64.8,30.06,NNE,22,0.0,0.0,73,0.00,,---,0.00,VWS V14.01,2013-05-30 07:32:00,
2013-05-30 03:33:00,73.9,64.8,30.06,SE,135,0.0,0.0,73,0.00,,---,0.00,VWS V14.01,2013-05-30 07:33:00,
2013-05-30 03:34:00,73.9,64.8,30.06,South,180,0.0,0.0,73,0.00,,---,0.00,VWS V14.01,2013-05-30 07:34:00,
2013-05-30 03:35:00,73.8,65.0,30.06,ENE,68,0.0,0.0,74,0.00,,---,0.00,VWS V14.01,2013-05-30 07:35:00,
2013-05-30 03:36:00,73.8,65.0,30.06,WSW,248,0.0,0.9,74,0.00,,---,0.00,VWS V14.01,2013-05-30 07:36:00,
2013-05-30 03:37:00,73.8,65.0,30.06,ENE,68,0.0,0.0,74,0.00,,---,0.00,VWS V14.01,2013-05-30 07:37:00,
2013-05-30 03:38:00,73.8,65.0,30.06,ENE,68,0.0,0.0,74,0.00,,---,0.00,VWS V14.01,2013-05-30 07:38:00,
2013-05-30 03:39:00,73.8,65.0,30.06,SW,225,0.0,0.0,74,0.00,,---,0.00,VWS V14.01,2013-05-30 07:39:00,
2013-05-30 03:40:00,73.8,65.0,30.06,ENE,68,0.0,0.0,74,0.00,,---,0.00,VWS V14.01,2013-05-30 07:40:00,
2013-05-30 03:41:00,73.8,65.0,30.06,NE,45,0.0,0.0,74,0.00,,---,0.00,VWS V14.01,2013-05-30 07:41:00,
2013-05-30 03:42:00,73.8,65.0,30.06,SSE,158,0.0,0.0,74,0.00,,---,0.00,VWS V14.01,2013-05-30 07:42:00,
2013-05-30 03:43:00,73.8,65.0,30.06,ENE,68,0.0,0.0,74,0.00,,---,0.00,VWS V14.01,2013-05-30 07:43:00,
2013-05-30 03:44:00,73.8,65.0,30.06,NNE,22,0.0,2.2,74,0.00,,---,0.00,VWS V14.01,2013-05-30 07:44:00,
2013-05-30 03:45:00,73.6,64.8,30.06,ENE,68,0.0,0.0,74,0.00,,---,0.00,VWS V14.01,2013-05-30 07:45:00,
2013-05-30 03:46:00,73.8,65.0,30.06,ESE,112,0.0,0.0,74,0.00,,---,0.00,VWS V14.01,2013-05-30 07:46:00,
2013-05-30 03:47:00,73.6,64.8,30.06,ENE,68,0.0,0.0,74,0.00,,---,0.00,VWS V14.01,2013-05-30 07:47:00,
2013-05-30 03:48:00,73.6,64.8,30.06,ENE,68,0.0,0.0,74,0.00,,---,0.00,VWS V14.01,2013-05-30 07:48:00,
2013-05-30 03:49:00,73.6,64.8,30.06,ENE,68,0.0,0.0,74,0.00,,---,0.00,VWS V14.01,2013-05-30 07:49:00,
2013-05-30 03:50:00,73.6,64.8,30.06,ESE,112,0.0,0.0,74,0.00,,---,0.00,VWS V14.01,2013-05-30 07:50:00,
2013-05-30 03:51:00,73.6,64.8,30.06,ENE,68,0.0,0.0,74,0.00,,---,0.00,VWS V14.01,2013-05-30 07:51:00,
2013-05-30 03:52:00,73.6,64.8,30.06,SE,135,0.0,0.0,74,0.00,,---,0.00,VWS V14.01,2013-05-30 07:52:00,
2013-05-30 03:53:00,73.6,64.8,30.06,ESE,112,0.0,0.0,74,0.00,,---,0.00,VWS V14.01,2013-05-30 07:53:00,
2013-05-30 03:54:00,73.6,64.8,30.06,ENE,68,0.0,0.0,74,0.00,,---,0.00,VWS V14.01,2013-05-30 07:54:00,
2013-05-30 03:55:00,73.4,65.0,30.06,NNE,22,0.0,0.0,75,0.00,,---,0.00,VWS V14.01,2013-05-30 07:55:00,
2013-05-30 03:56:00,73.4,64.6,30.06,ESE,112,0.0,0.0,74,0.00,,---,0.00,VWS V14.01,2013-05-30 07:56:00,
2013-05-30 03:57:00,73.6,65.2,30.06,ESE,112,0.0,0.9,75,0.00,,---,0.00,VWS V14.01,2013-05-30 07:57:00,
2013-05-30 03:58:00,73.4,65.0,30.06,ENE,68,0.0,0.0,75,0.00,,---,0.00,VWS V14.01,2013-05-30 07:58:00,
2013-05-30 03:59:00,73.4,65.0,30.06,ENE,68,0.9,0.9,75,0.00,,---,0.00,VWS V14.01,2013-05-30 07:59:00,
2013-05-30 04:00:00,73.4,65.0,30.06,WSW,248,0.0,0.0,75,0.00,,---,0.00,VWS V14.01,2013-05-30 08:00:00,
2013-05-30 04:01:00,73.4,65.0,30.06,SSW,202,0.0,0.0,75,0.00,,---,0.00,VWS V14.01,2013-05-30 08:01:00,
2013-05-30 04:02:00,73.4,65.0,30.06,East,90,0.0,0.0,75,0.00,,---,0.00,VWS V14.01,2013-05-30 08:02:00,
2013-05-30 04:03:00,73.4,65.0,30.06,East,90,0.0,0.0,75,0.00,,---,0.00,VWS V14.01,2013-05-30 08:03:00,
2013-05-30 04:04:00,73.4,65.0,30.06,ESE,112,0.0,0.0,75,0.00,,---,0.00,VWS V14.01,2013-05-30 08:04:00,
2013-05-30 04:05:00,73.4,65.0,30.06,East,90,0.0,0.0,75,0.00,,---,0.00,VWS V14.01,2013-05-30 08:05:00,
2013-05-30 04:06:00,73.4,65.0,30.06,ESE,112,0.0,0.0,75,0.00,,---,0.00,VWS V14.01,2013-05-30 08:06:00,
2013-05-30 04:07:00,73.4,65.4,30.06,East,90,0.0,0.9,76,0.00,,---,0.00,VWS V14.01,2013-05-30 08:07:00,
2013-05-30 04:08:00,73.4,65.0,30.06,ENE,68,0.0,0.0,75,0.00,,---,0.00,VWS V14.01,2013-05-30 08:08:00,
2013-05-30 04:09:00,73.4,65.0,30.06,East,90,0.0,0.0,75,0.00,,---,0.00,VWS V14.01,2013-05-30 08:09:00,
2013-05-30 04:10:00,73.4,65.4,30.06,NNE,22,0.0,1.1,76,0.00,,---,0.00,VWS V14.01,2013-05-30 08:10:00,
2013-05-30 04:11:00,73.4,65.4,30.06,East,90,0.0,0.9,76,0.00,,---,0.00,VWS V14.01,2013-05-30 08:11:00,
2013-05-30 04:12:00,73.4,65.4,30.06,NNW,338,0.0,0.0,76,0.00,,---,0.00,VWS V14.01,2013-05-30 08:12:00,
2013-05-30 04:13:00,73.4,65.4,30.06,ENE,68,0.0,1.1,76,0.00,,---,0.00,VWS V14.01,2013-05-30 08:13:00,
2013-05-30 04:14:00,73.4,65.4,30.06,East,90,0.0,0.9,76,0.00,,---,0.00,VWS V14.01,2013-05-30 08:14:00,
2013-05-30 04:15:00,73.2,65.2,30.06,NNW,338,0.0,1.3,76,0.00,,---,0.00,VWS V14.01,2013-05-30 08:15:00,
2013-05-30 04:16:00,73.2,65.2,30.06,NNE,22,0.0,0.0,76,0.00,,---,0.00,VWS V14.01,2013-05-30 08:16:00,
2013-05-30 04:17:00,73.2,65.2,30.06,ESE,112,1.3,1.3,76,0.00,,---,0.00,VWS V14.01,2013-05-30 08:17:00,
2013-05-30 04:18:00,73.2,65.2,30.06,NNE,22,1.1,3.1,76,0.00,,---,0.00,VWS V14.01,2013-05-30 08:18:00,
2013-05-30 04:19:00,73.2,65.2,30.06,ESE,112,0.0,1.1,76,0.00,,---,0.00,VWS V14.01,2013-05-30 08:19:00,
2013-05-30 04:20:00,73.2,65.6,30.06,South,180,0.0,0.0,77,0.00,,---,0.00,VWS V14.01,2013-05-30 08:20:00,
2013-05-30 04:21:00,73.2,65.6,30.06,East,90,0.0,0.0,77,0.00,,---,0.00,VWS V14.01,2013-05-30 08:21:00,
2013-05-30 04:22:00,73.2,65.6,30.06,ENE,68,0.0,0.0,77,0.00,,---,0.00,VWS V14.01,2013-05-30 08:22:00,
2013-05-30 04:23:00,73.2,65.6,30.06,South,180,0.0,0.0,77,0.00,,---,0.00,VWS V14.01,2013-05-30 08:23:00,
2013-05-30 04:24:00,73.0,65.4,30.06,ESE,112,0.0,1.1,77,0.00,,---,0.00,VWS V14.01,2013-05-30 08:24:00,
2013-05-30 04:25:00,73.0,65.4,30.06,NNE,22,4.3,4.3,77,0.00,,---,0.00,VWS V14.01,2013-05-30 08:25:00,
2013-05-30 04:26:00,73.0,65.4,30.06,East,90,0.0,0.0,77,0.00,,---,0.00,VWS V14.01,2013-05-30 08:26:00,
2013-05-30 04:27:00,73.0,65.4,30.06,East,90,0.0,0.0,77,0.00,,---,0.00,VWS V14.01,2013-05-30 08:27:00,
2013-05-30 04:28:00,73.0,65.4,30.06,North,0,0.0,4.3,77,0.00,,---,0.00,VWS V14.01,2013-05-30 08:28:00,
2013-05-30 04:29:00,73.0,65.4,30.06,ESE,112,0.0,0.0,77,0.00,,---,0.00,VWS V14.01,2013-05-30 08:29:00,
2013-05-30 04:30:00,72.9,65.2,30.06,ESE,112,0.0,0.0,77,0.00,,---,0.00,VWS V14.01,2013-05-30 08:30:00,
2013-05-30 04:31:00,73.0,65.4,30.06,ENE,68,0.0,1.3,77,0.00,,---,0.00,VWS V14.01,2013-05-30 08:31:00,
2013-05-30 04:32:00,73.0,65.4,30.06,ESE,112,0.0,0.0,77,0.00,,---,0.00,VWS V14.01,2013-05-30 08:32:00,
2013-05-30 04:33:00,72.9,65.2,30.06,ENE,68,0.0,0.0,77,0.00,,---,0.00,VWS V14.01,2013-05-30 08:33:00,
2013-05-30 04:34:00,72.9,65.2,30.06,East,90,0.0,2.7,77,0.00,,---,0.00,VWS V14.01,2013-05-30 08:34:00,
2013-05-30 04:35:00,72.9,65.6,30.06,East,90,0.0,0.0,78,0.00,,---,0.00,VWS V14.01,2013-05-30 08:35:00,
2013-05-30 04:36:00,72.9,65.6,30.06,SE,135,0.9,0.9,78,0.00,,---,0.00,VWS V14.01,2013-05-30 08:36:00,
2013-05-30 04:37:00,72.9,65.6,30.06,East,90,0.0,0.9,78,0.00,,---,0.00,VWS V14.01,2013-05-30 08:37:00,
2013-05-30 04:38:00,72.9,65.6,30.06,East,90,0.0,0.0,78,0.00,,---,0.00,VWS V14.01,2013-05-30 08:38:00,
2013-05-30 04:39:00,72.9,65.6,30.06,South,180,0.0,0.0,78,0.00,,---,0.00,VWS V14.01,2013-05-30 08:39:00,
2013-05-30 04:40:00,72.9,65.6,30.06,NE,45,0.0,0.0,78,0.00,,---,0.00,VWS V14.01,2013-05-30 08:40:00,
2013-05-30 04:41:00,72.9,65.6,30.06,SE,135,0.0,0.0,78,0.00,,---,0.00,VWS V14.01,2013-05-30 08:41:00,
2013-05-30 04:42:00,72.9,65.6,30.06,ENE,68,0.0,0.0,78,0.00,,---,0.00,VWS V14.01,2013-05-30 08:42:00,
2013-05-30 04:43:00,72.9,65.6,30.06,SE,135,0.0,0.0,78,0.00,,---,0.00,VWS V14.01,2013-05-30 08:43:00,
2013-05-30 04:44:00,72.9,65.6,30.06,SSE,158,0.0,2.0,78,0.00,,---,0.00,VWS V14.01,2013-05-30 08:44:00,
2013-05-30 04:45:00,72.9,66.0,30.03,ENE,68,0.0,2.5,79,0.00,,---,0.00,VWS V14.01,2013-05-30 08:45:00,
2013-05-30 04:46:00,72.9,65.6,30.06,NE,45,0.0,0.0,78,0.00,,---,0.00,VWS V14.01,2013-05-30 08:46:00,
2013-05-30 04:47:00,72.9,65.6,30.03,ESE,112,0.0,1.6,78,0.00,,---,0.00,VWS V14.01,2013-05-30 08:47:00,
2013-05-30 04:48:00,72.9,66.0,30.03,ENE,68,0.0,2.5,79,0.00,,---,0.00,VWS V14.01,2013-05-30 08:48:00,
2013-05-30 04:49:00,72.9,66.0,30.03,SSE,158,0.0,1.6,79,0.00,,---,0.00,VWS V14.01,2013-05-30 08:49:00,
2013-05-30 04:50:00,72.7,65.8,30.03,NE,45,0.0,0.0,79,0.00,,---,0.00,VWS V14.01,2013-05-30 08:50:00,
2013-05-30 04:51:00,72.7,65.8,30.03,ENE,68,0.0,0.0,79,0.00,,---,0.00,VWS V14.01,2013-05-30 08:51:00,
2013-05-30 04:52:00,72.7,65.8,30.03,SSW,202,0.0,3.6,79,0.00,,---,0.00,VWS V14.01,2013-05-30 08:52:00,
2013-05-30 04:53:00,72.7,65.8,30.03,ENE,68,0.0,0.0,79,0.00,,---,0.00,VWS V14.01,2013-05-30 08:53:00,
2013-05-30 04:54:00,72.7,65.8,30.03,SSE,158,0.0,0.0,79,0.00,,---,0.00,VWS V14.01,2013-05-30 08:54:00,
2013-05-30 04:55:00,72.7,65.8,30.03,ENE,68,0.0,0.0,79,0.00,,---,0.00,VWS V14.01,2013-05-30 08:55:00,
2013-05-30 04:56:00,72.7,65.8,30.03,SSE,158,0.0,0.0,79,0.00,,---,0.00,VWS V14.01,2013-05-30 08:56:00,
2013-05-30 04:57:00,72.7,65.8,30.03,ENE,68,0.0,0.0,79,0.00,,---,0.00,VWS V14.01,2013-05-30 08:57:00,
2013-05-30 04:58:00,72.7,65.8,30.03,ENE,68,0.0,0.0,79,0.00,,---,0.00,VWS V14.01,2013-05-30 08:58:00,
2013-05-30 04:59:00,72.7,65.8,30.03,ESE,112,0.0,0.0,79,0.00,,---,0.00,VWS V14.01,2013-05-30 08:59:00,
2013-05-30 05:00:00,72.7,65.8,30.06,ENE,68,0.0,0.0,79,0.00,,---,0.00,VWS V14.01,2013-05-30 09:00:00,
2013-05-30 05:01:00,72.7,65.8,30.03,ESE,112,0.0,0.0,79,0.00,,---,0.00,VWS V14.01,2013-05-30 09:01:00,
2013-05-30 05:02:00,72.7,65.8,30.06,ESE,112,0.0,1.1,79,0.00,,---,0.00,VWS V14.01,2013-05-30 09:02:00,
2013-05-30 05:03:00,72.7,65.8,30.06,ENE,68,0.0,0.0,79,0.00,,---,0.00,VWS V14.01,2013-05-30 09:03:00,
2013-05-30 05:04:00,72.7,65.8,30.06,East,90,0.0,0.9,79,0.00,,---,0.00,VWS V14.01,2013-05-30 09:04:00,
2013-05-30 05:05:00,72.7,66.2,30.06,ESE,112,0.0,0.0,80,0.00,,---,0.00,VWS V14.01,2013-05-30 09:05:00,
2013-05-30 05:06:00,72.7,66.2,30.06,ENE,68,0.0,1.3,80,0.00,,---,0.00,VWS V14.01,2013-05-30 09:06:00,
2013-05-30 05:07:00,72.7,66.2,30.06,North,0,0.0,2.0,80,0.00,,---,0.00,VWS V14.01,2013-05-30 09:07:00,
2013-05-30 05:08:00,72.7,66.2,30.06,ESE,112,0.0,0.0,80,0.00,,---,0.00,VWS V14.01,2013-05-30 09:08:00,
2013-05-30 05:09:00,72.7,66.2,30.06,East,90,171.9,171.9,80,0.00,,---,0.00,VWS V14.01,2013-05-30 09:09:00,
2013-05-30 05:10:00,72.7,66.2,30.06,ENE,68,0.9,0.9,80,0.00,,---,0.00,VWS V14.01,2013-05-30 09:10:00,
2013-05-30 05:11:00,72.7,66.2,30.06,NNE,22,0.0,0.0,80,0.00,,---,0.00,VWS V14.01,2013-05-30 09:11:00,
2013-05-30 05:12:00,72.7,66.2,30.06,ESE,112,0.0,1.6,80,0.00,,---,0.00,VWS V14.01,2013-05-30 09:12:00,
2013-05-30 05:13:00,72.7,66.2,30.06,ENE,68,0.0,0.9,80,0.00,,---,0.00,VWS V14.01,2013-05-30 09:13:00,
2013-05-30 05:14:00,72.7,66.2,30.06,East,90,0.0,0.0,80,0.00,,---,0.00,VWS V14.01,2013-05-30 09:14:00,
2013-05-30 05:15:00,72.7,66.2,30.06,ENE,68,2.2,2.5,80,0.00,,---,0.00,VWS V14.01,2013-05-30 09:15:00,
2013-05-30 05:16:00,72.7,66.2,30.06,ENE,68,0.0,1.6,80,0.00,,---,0.00,VWS V14.01,2013-05-30 09:16:00,
2013-05-30 05:17:00,72.7,66.2,30.06,ENE,68,0.0,0.0,80,0.00,,---,0.00,VWS V14.01,2013-05-30 09:17:00,
2013-05-30 05:18:00,72.7,66.2,30.06,SSW,202,0.0,2.5,80,0.00,,---,0.00,VWS V14.01,2013-05-30 09:18:00,
2013-05-30 05:19:00,72.7,66.5,30.06,East,90,0.0,0.0,81,0.00,,---,0.00,VWS V14.01,2013-05-30 09:19:00,
2013-05-30 05:20:00,72.7,66.5,30.06,NW,315,0.0,0.0,81,0.00,,---,0.00,VWS V14.01,2013-05-30 09:20:00,
2013-05-30 05:21:00,72.7,66.5,30.06,East,90,0.0,0.0,81,0.00,,---,0.00,VWS V14.01,2013-05-30 09:21:00,
2013-05-30 05:22:00,72.7,66.5,30.06,East,90,0.0,0.0,81,0.00,,---,0.00,VWS V14.01,2013-05-30 09:22:00,
2013-05-30 05:23:00,72.7,66.5,30.06,North,0,0.0,0.0,81,0.00,,---,0.00,VWS V14.01,2013-05-30 09:23:00,
2013-05-30 05:24:00,72.7,66.5,30.06,ENE,68,0.0,0.0,81,0.00,,---,0.00,VWS V14.01,2013-05-30 09:24:00,
2013-05-30 05:25:00,72.7,66.5,30.06,NNE,22,0.0,0.0,81,0.00,,---,0.00,VWS V14.01,2013-05-30 09:25:00,
2013-05-30 05:26:00,72.7,66.5,30.06,SSW,202,0.0,0.0,81,0.00,,---,0.00,VWS V14.01,2013-05-30 09:26:00,
2013-05-30 05:27:00,72.7,66.5,30.06,North,0,0.0,0.0,81,0.00,,---,0.00,VWS V14.01,2013-05-30 09:27:00,
2013-05-30 05:28:00,72.7,66.5,30.06,NNE,22,0.0,0.0,81,0.00,,---,0.00,VWS V14.01,2013-05-30 09:28:00,
2013-05-30 05:29:00,72.7,66.5,30.06,NNW,338,0.0,0.0,81,0.00,,---,0.00,VWS V14.01,2013-05-30 09:29:00,
2013-05-30 05:30:00,72.5,66.3,30.03,East,90,0.0,0.0,81,0.00,,---,0.00,VWS V14.01,2013-05-30 09:30:00,
2013-05-30 05:31:00,72.7,66.5,30.06,NNE,22,0.0,0.0,81,0.00,,---,0.00,VWS V14.01,2013-05-30 09:31:00,
2013-05-30 05:32:00,72.5,66.3,30.03,ENE,68,0.0,0.0,81,0.00,,---,0.00,VWS V14.01,2013-05-30 09:32:00,
2013-05-30 05:33:00,72.5,66.3,30.03,NNW,338,0.0,0.0,81,0.00,,---,0.00,VWS V14.01,2013-05-30 09:33:00,
2013-05-30 05:34:00,72.5,66.3,30.03,SSE,158,0.0,0.0,81,0.00,,---,0.00,VWS V14.01,2013-05-30 09:34:00,
2013-05-30 05:35:00,72.5,66.3,30.03,ENE,68,0.0,0.0,81,0.00,,---,0.00,VWS V14.01,2013-05-30 09:35:00,
2013-05-30 05:36:00,72.5,66.3,30.03,NNE,22,0.0,0.0,81,0.00,,---,0.00,VWS V14.01,2013-05-30 09:36:00,
2013-05-30 05:37:00,72.5,66.3,30.03,ESE,112,0.0,0.0,81,0.00,,---,0.00,VWS V14.01,2013-05-30 09:37:00,
2013-05-30 05:38:00,72.5,66.3,30.03,ENE,68,0.0,0.0,81,0.00,,---,0.00,VWS V14.01,2013-05-30 09:38:00,
2013-05-30 05:39:00,72.7,66.5,30.03,ESE,112,0.0,0.0,81,0.00,,---,0.00,VWS V14.01,2013-05-30 09:39:00,
2013-05-30 05:40:00,72.7,66.9,30.03,NNE,22,0.0,0.0,82,0.00,,---,0.00,VWS V14.01,2013-05-30 09:40:00,
2013-05-30 05:41:00,72.7,66.5,30.03,ENE,68,0.0,2.2,81,0.00,,---,0.00,VWS V14.01,2013-05-30 09:41:00,
2013-05-30 05:42:00,72.7,66.5,30.03,SE,135,0.0,0.0,81,0.00,,---,0.00,VWS V14.01,2013-05-30 09:42:00,
2013-05-30 05:43:00,72.7,66.9,30.03,ESE,112,0.0,0.0,82,0.00,,---,0.00,VWS V14.01,2013-05-30 09:43:00,
2013-05-30 05:44:00,72.7,66.9,30.03,ENE,68,0.0,0.0,82,0.00,,---,0.00,VWS V14.01,2013-05-30 09:44:00,
2013-05-30 05:45:00,72.5,66.3,30.06,SSE,158,0.0,0.0,81,0.00,,---,0.00,VWS V14.01,2013-05-30 09:45:00,
2013-05-30 05:46:00,72.7,66.5,30.03,ENE,68,0.0,0.0,81,0.00,,---,0.00,VWS V14.01,2013-05-30 09:46:00,
2013-05-30 05:47:00,72.5,66.3,30.06,NNE,22,0.0,0.9,81,0.00,,---,0.00,VWS V14.01,2013-05-30 09:47:00,
2013-05-30 05:48:00,72.5,66.3,30.06,ESE,112,0.0,0.0,81,0.00,,---,0.00,VWS V14.01,2013-05-30 09:48:00,
2013-05-30 05:49:00,72.5,66.3,30.06,NNE,22,0.0,1.1,81,0.00,,---,0.00,VWS V14.01,2013-05-30 09:49:00,
2013-05-30 05:50:00,72.5,66.7,30.06,ESE,112,0.0,0.0,82,0.00,,---,0.00,VWS V14.01,2013-05-30 09:50:00,
2013-05-30 05:51:00,72.5,66.3,30.06,East,90,0.0,0.0,81,0.00,,---,0.00,VWS V14.01,2013-05-30 09:51:00,
2013-05-30 05:52:00,72.5,66.7,30.06,ESE,112,0.0,0.0,82,0.00,,---,0.00,VWS V14.01,2013-05-30 09:52:00,
2013-05-30 05:53:00,72.5,66.7,30.06,NE,45,0.0,0.0,82,0.00,,---,0.00,VWS V14.01,2013-05-30 09:53:00,
2013-05-30 05:54:00,72.5,66.7,30.06,ESE,112,0.0,0.0,82,0.00,,---,0.00,VWS V14.01,2013-05-30 09:54:00,
2013-05-30 05:55:00,72.7,66.9,30.06,ENE,68,0.0,0.0,82,0.00,,---,0.00,VWS V14.01,2013-05-30 09:55:00,
2013-05-30 05:56:00,72.5,66.7,30.06,NNE,22,0.0,0.0,82,0.00,,---,0.00,VWS V14.01,2013-05-30 09:56:00,
2013-05-30 05:57:00,72.5,66.7,30.06,ENE,68,0.0,0.0,82,0.00,,---,0.00,VWS V14.01,2013-05-30 09:57:00,
2013-05-30 05:58:00,72.7,66.9,30.06,ENE,68,0.0,0.0,82,0.00,,---,0.00,VWS V14.01,2013-05-30 09:58:00,
2013-05-30 05:59:00,72.5,66.7,30.06,SE,135,0.0,0.0,82,0.00,,---,0.00,VWS V14.01,2013-05-30 09:59:00,
2013-05-30 06:00:00,72.5,66.7,30.06,ENE,68,0.0,0.0,82,0.00,,---,0.00,VWS V14.01,2013-05-30 10:00:00,
2013-05-30 06:01:00,72.5,66.7,30.06,NE,45,0.0,0.0,82,0.00,,---,0.00,VWS V14.01,2013-05-30 10:01:00,
2013-05-30 06:02:00,72.5,66.7,30.06,ENE,68,0.0,0.0,82,0.00,,---,0.00,VWS V14.01,2013-05-30 10:02:00,
2013-05-30 06:03:00,72.5,66.7,30.06,ENE,68,0.0,0.0,82,0.00,,---,0.00,VWS V14.01,2013-05-30 10:03:00,
2013-05-30 06:04:00,72.5,66.7,30.06,ENE,68,0.0,0.0,82,0.00,,---,0.00,VWS V14.01,2013-05-30 10:04:00,
2013-05-30 06:05:00,72.5,66.7,30.06,East,90,1.6,1.6,82,0.00,,---,0.00,VWS V14.01,2013-05-30 10:05:00,
2013-05-30 06:06:00,72.5,66.7,30.06,NNE,22,0.0,2.0,82,0.00,,---,0.00,VWS V14.01,2013-05-30 10:06:00,
2013-05-30 06:07:00,72.5,66.7,30.06,ENE,68,0.0,0.0,82,0.00,,---,0.00,VWS V14.01,2013-05-30 10:07:00,
2013-05-30 06:08:00,72.5,66.7,30.06,North,0,0.0,1.6,82,0.00,,---,0.00,VWS V14.01,2013-05-30 10:08:00,
2013-05-30 06:09:00,72.5,66.7,30.06,NNE,22,0.0,0.0,82,0.00,,---,0.00,VWS V14.01,2013-05-30 10:09:00,
2013-05-30 06:10:00,72.5,66.7,30.06,ENE,68,0.0,0.0,82,0.00,,---,0.00,VWS V14.01,2013-05-30 10:10:00,
2013-05-30 06:11:00,72.5,66.7,30.06,ENE,68,0.0,1.3,82,0.00,,---,0.00,VWS V14.01,2013-05-30 10:11:00,
2013-05-30 06:12:00,72.5,66.7,30.06,East,90,0.0,0.0,82,0.00,,---,0.00,VWS V14.01,2013-05-30 10:12:00,
2013-05-30 06:13:00,72.5,66.7,30.06,ENE,68,0.0,0.0,82,0.00,,---,0.00,VWS V14.01,2013-05-30 10:13:00,
2013-05-30 06:14:00,72.5,66.7,30.06,ENE,68,0.0,0.0,82,0.00,,---,0.00,VWS V14.01,2013-05-30 10:14:00,
2013-05-30 06:15:00,72.5,66.7,30.06,ENE,68,0.0,0.0,82,0.00,,---,0.00,VWS V14.01,2013-05-30 10:15:00,
2013-05-30 06:16:00,72.5,66.7,30.06,SE,135,0.0,0.0,82,0.00,,---,0.00,VWS V14.01,2013-05-30 10:16:00,
2013-05-30 06:17:00,72.5,66.7,30.06,East,90,0.0,0.0,82,0.00,,---,0.00,VWS V14.01,2013-05-30 10:17:00,
2013-05-30 06:18:00,72.5,66.7,30.06,North,0,0.0,0.0,82,0.00,,---,0.00,VWS V14.01,2013-05-30 10:18:00,
2013-05-30 06:19:00,72.5,66.7,30.06,ENE,68,0.0,0.0,82,0.00,,---,0.00,VWS V14.01,2013-05-30 10:19:00,
2013-05-30 06:20:00,72.5,67.1,30.06,ENE,68,0.0,0.0,83,0.00,,---,0.00,VWS V14.01,2013-05-30 10:20:00,
2013-05-30 06:21:00,72.5,66.7,30.06,East,90,0.0,0.0,82,0.00,,---,0.00,VWS V14.01,2013-05-30 10:21:00,
2013-05-30 06:22:00,72.5,67.1,30.06,East,90,0.0,0.0,83,0.00,,---,0.00,VWS V14.01,2013-05-30 10:22:00,
2013-05-30 06:23:00,72.5,67.1,30.06,SE,135,0.0,0.0,83,0.00,,---,0.00,VWS V14.01,2013-05-30 10:23:00,
2013-05-30 06:24:00,72.5,67.1,30.06,NNE,22,0.0,0.0,83,0.00,,---,0.00,VWS V14.01,2013-05-30 10:24:00,
2013-05-30 06:25:00,72.5,67.1,30.06,ENE,68,0.0,0.0,83,0.00,,---,0.00,VWS V14.01,2013-05-30 10:25:00,
2013-05-30 06:26:00,72.5,66.7,30.06,ESE,112,0.0,0.0,82,0.00,,---,0.00,VWS V14.01,2013-05-30 10:26:00,
2013-05-30 06:27:00,72.5,66.7,30.06,ENE,68,0.0,0.0,82,0.00,,---,0.00,VWS V14.01,2013-05-30 10:27:00,
2013-05-30 06:28:00,72.5,67.1,30.06,ESE,112,0.0,0.0,83,0.00,,---,0.00,VWS V14.01,2013-05-30 10:28:00,
2013-05-30 06:29:00,72.5,67.1,30.06,ESE,112,0.0,0.0,83,0.00,,---,0.00,VWS V14.01,2013-05-30 10:29:00,
2013-05-30 06:30:00,72.5,66.7,30.06,ESE,112,0.0,0.0,82,0.00,,---,0.00,VWS V14.01,2013-05-30 10:30:00,
2013-05-30 06:31:00,72.5,66.7,30.06,WSW,248,0.0,0.0,82,0.00,,---,0.00,VWS V14.01,2013-05-30 10:31:00,
2013-05-30 06:32:00,72.5,66.7,30.06,East,90,0.0,0.0,82,0.00,,---,0.00,VWS V14.01,2013-05-30 10:32:00,
2013-05-30 06:33:00,72.5,67.1,30.06,ESE,112,0.0,0.0,83,0.00,,---,0.00,VWS V14.01,2013-05-30 10:33:00,
2013-05-30 06:34:00,72.5,67.1,30.06,ESE,112,0.0,0.0,83,0.00,,---,0.00,VWS V14.01,2013-05-30 10:34:00,
2013-05-30 06:35:00,72.5,67.1,30.06,NE,45,0.0,0.0,83,0.00,,---,0.00,VWS V14.01,2013-05-30 10:35:00,
2013-05-30 06:36:00,72.5,67.1,30.06,NNE,22,0.0,0.0,83,0.00,,---,0.00,VWS V14.01,2013-05-30 10:36:00,
2013-05-30 06:37:00,72.5,67.1,30.06,NNW,338,0.0,1.1,83,0.00,,---,0.00,VWS V14.01,2013-05-30 10:37:00,
2013-05-30 06:38:00,72.5,67.1,30.06,NE,45,0.0,0.0,83,0.00,,---,0.00,VWS V14.01,2013-05-30 10:38:00,
2013-05-30 06:39:00,72.5,67.1,30.06,ENE,68,0.0,0.9,83,0.00,,---,0.00,VWS V14.01,2013-05-30 10:39:00,
2013-05-30 06:40:00,72.5,67.1,30.06,WNW,292,0.0,1.3,83,0.00,,---,0.00,VWS V14.01,2013-05-30 10:40:00,
2013-05-30 06:41:00,72.5,67.1,30.06,NNW,338,0.0,0.0,83,0.00,,---,0.00,VWS V14.01,2013-05-30 10:41:00,
2013-05-30 06:42:00,72.5,67.1,30.06,SSW,202,1.3,1.3,83,0.00,,---,0.00,VWS V14.01,2013-05-30 10:42:00,
2013-05-30 06:43:00,72.5,67.1,30.06,SE,135,0.0,1.3,83,0.00,,---,0.00,VWS V14.01,2013-05-30 10:43:00,
2013-05-30 06:44:00,72.5,67.1,30.06,East,90,0.0,0.0,83,0.00,,---,0.00,VWS V14.01,2013-05-30 10:44:00,
2013-05-30 06:45:00,72.5,67.1,30.06,WSW,248,0.0,0.0,83,0.00,,---,0.00,VWS V14.01,2013-05-30 10:45:00,
2013-05-30 06:46:00,72.5,67.1,30.06,SSE,158,0.0,0.0,83,0.00,,---,0.00,VWS V14.01,2013-05-30 10:46:00,
2013-05-30 06:47:00,72.5,67.1,30.06,NNW,338,0.0,0.0,83,0.00,,---,0.00,VWS V14.01,2013-05-30 10:47:00,
2013-05-30 06:48:00,72.7,67.2,30.06,SE,135,0.0,0.0,83,0.00,,---,0.00,VWS V14.01,2013-05-30 10:48:00,
2013-05-30 06:49:00,72.7,67.2,30.06,ENE,68,0.0,2.0,83,0.00,,---,0.00,VWS V14.01,2013-05-30 10:49:00,
2013-05-30 06:50:00,72.7,67.2,30.06,SSW,202,0.0,0.0,83,0.00,,---,0.00,VWS V14.01,2013-05-30 10:50:00,
2013-05-30 06:51:00,72.7,67.2,30.06,NNE,22,0.0,0.0,83,0.00,,---,0.00,VWS V14.01,2013-05-30 10:51:00,
2013-05-30 06:52:00,72.7,67.2,30.06,ESE,112,0.0,0.0,83,0.00,,---,0.00,VWS V14.01,2013-05-30 10:52:00,
2013-05-30 06:53:00,72.9,67.4,30.06,ENE,68,0.0,0.0,83,0.00,,---,0.00,VWS V14.01,2013-05-30 10:53:00,
2013-05-30 06:54:00,72.9,67.4,30.06,East,90,0.0,0.0,83,0.00,,---,0.00,VWS V14.01,2013-05-30 10:54:00,
2013-05-30 06:55:00,72.9,67.4,30.06,ENE,68,0.0,0.0,83,0.00,,---,0.00,VWS V14.01,2013-05-30 10:55:00,
2013-05-30 06:56:00,72.9,67.8,30.06,ESE,112,0.0,0.0,84,0.00,,---,0.00,VWS V14.01,2013-05-30 10:56:00,
2013-05-30 06:57:00,72.9,67.4,30.06,ENE,68,0.0,0.0,83,0.00,,---,0.00,VWS V14.01,2013-05-30 10:57:00,
2013-05-30 06:58:00,73.0,67.9,30.06,North,0,0.0,0.0,84,0.00,,---,0.00,VWS V14.01,2013-05-30 10:58:00,
2013-05-30 06:59:00,73.0,67.9,30.06,East,90,0.9,1.6,84,0.00,,---,0.00,VWS V14.01,2013-05-30 10:59:00,
2013-05-30 07:00:00,73.2,68.1,30.06,SE,135,0.0,0.0,84,0.00,,---,0.00,VWS V14.01,2013-05-30 11:00:00,
2013-05-30 07:01:00,73.0,67.9,30.06,NNE,22,0.0,2.5,84,0.00,,---,0.00,VWS V14.01,2013-05-30 11:01:00,
2013-05-30 07:02:00,73.2,68.1,30.06,WNW,292,0.0,0.9,84,0.00,,---,0.00,VWS V14.01,2013-05-30 11:02:00,
2013-05-30 07:03:00,73.2,68.1,30.06,ESE,112,0.0,0.0,84,0.00,,---,0.00,VWS V14.01,2013-05-30 11:03:00,
2013-05-30 07:04:00,73.2,68.1,30.06,SE,135,0.0,0.9,84,0.00,,---,0.00,VWS V14.01,2013-05-30 11:04:00,
2013-05-30 07:05:00,73.4,67.9,30.06,NNE,22,1.6,1.6,83,0.00,,---,0.00,VWS V14.01,2013-05-30 11:05:00,
2013-05-30 07:06:00,73.4,67.9,30.06,ENE,68,1.1,4.3,83,0.00,,---,0.00,VWS V14.01,2013-05-30 11:06:00,
2013-05-30 07:07:00,73.4,67.9,30.06,SSW,202,0.0,2.5,83,0.00,,---,0.00,VWS V14.01,2013-05-30 11:07:00,
2013-05-30 07:08:00,73.6,68.1,30.06,ENE,68,4.0,4.0,83,0.00,,---,0.00,VWS V14.01,2013-05-30 11:08:00,
2013-05-30 07:09:00,73.6,68.1,30.06,NNW,338,0.0,4.0,83,0.00,,---,0.00,VWS V14.01,2013-05-30 11:09:00,
2013-05-30 07:10:00,73.6,68.1,30.06,ENE,68,0.0,0.0,83,0.00,,---,0.00,VWS V14.01,2013-05-30 11:10:00,
2013-05-30 07:11:00,73.6,68.1,30.06,NE,45,0.0,0.0,83,0.00,,---,0.00,VWS V14.01,2013-05-30 11:11:00,
2013-05-30 07:12:00,73.6,68.1,30.06,East,90,0.0,0.0,83,0.00,,---,0.00,VWS V14.01,2013-05-30 11:12:00,
2013-05-30 07:13:00,73.6,68.1,30.06,WNW,292,0.0,0.0,83,0.00,,---,0.00,VWS V14.01,2013-05-30 11:13:00,
2013-05-30 07:14:00,73.8,68.3,30.06,ESE,112,2.5,2.5,83,0.00,,---,0.00,VWS V14.01,2013-05-30 11:14:00,
2013-05-30 07:15:00,73.9,68.5,30.09,South,180,2.5,2.5,83,0.00,,---,0.00,VWS V14.01,2013-05-30 11:15:00,
2013-05-30 07:16:00,73.9,68.5,30.06,NNW,338,0.0,2.0,83,0.00,,---,0.00,VWS V14.01,2013-05-30 11:16:00,
2013-05-30 07:17:00,73.9,68.5,30.09,ESE,112,0.0,0.0,83,0.00,,---,0.00,VWS V14.01,2013-05-30 11:17:00,
2013-05-30 07:18:00,73.9,68.5,30.09,NNE,22,0.9,2.9,83,0.00,,---,0.00,VWS V14.01,2013-05-30 11:18:00,
2013-05-30 07:19:00,73.9,68.1,30.09,SE,135,2.9,2.9,82,0.00,,---,0.00,VWS V14.01,2013-05-30 11:19:00,
2013-05-30 07:20:00,74.3,68.4,30.09,SSE,158,1.6,2.0,82,0.00,,---,0.00,VWS V14.01,2013-05-30 11:20:00,
2013-05-30 07:21:00,74.1,68.3,30.09,ENE,68,0.0,1.1,82,0.00,,---,0.00,VWS V14.01,2013-05-30 11:21:00,
2013-05-30 07:22:00,74.3,68.4,30.09,SSE,158,2.0,2.7,82,0.00,,---,0.00,VWS V14.01,2013-05-30 11:22:00,
2013-05-30 07:23:00,74.3,68.4,30.09,East,90,3.1,3.1,82,0.00,,---,0.00,VWS V14.01,2013-05-30 11:23:00,
2013-05-30 07:24:00,74.5,68.3,30.09,ESE,112,0.0,3.1,81,0.00,,---,0.00,VWS V14.01,2013-05-30 11:24:00,
2013-05-30 07:25:00,74.5,68.3,30.09,North,0,3.1,3.1,81,0.00,,---,0.00,VWS V14.01,2013-05-30 11:25:00,
2013-05-30 07:26:00,74.5,68.3,30.09,ENE,68,2.7,5.4,81,0.00,,---,0.00,VWS V14.01,2013-05-30 11:26:00,
2013-05-30 07:27:00,74.5,68.3,30.09,North,0,3.1,3.1,81,0.00,,---,0.00,VWS V14.01,2013-05-30 11:27:00,
2013-05-30 07:28:00,74.7,68.4,30.09,NNE,22,0.9,3.1,81,0.00,,---,0.00,VWS V14.01,2013-05-30 11:28:00,
2013-05-30 07:29:00,74.7,68.4,30.09,ESE,112,0.9,2.7,81,0.00,,---,0.00,VWS V14.01,2013-05-30 11:29:00,
2013-05-30 07:30:00,75.2,68.2,30.09,SSE,158,0.0,2.0,79,0.00,,---,0.00,VWS V14.01,2013-05-30 11:30:00,
2013-05-30 07:31:00,75.0,68.4,30.09,ENE,68,2.5,3.4,80,0.00,,---,0.00,VWS V14.01,2013-05-30 11:31:00,
2013-05-30 07:32:00,75.2,68.2,30.09,SSE,158,2.0,3.1,79,0.00,,---,0.00,VWS V14.01,2013-05-30 11:32:00,
2013-05-30 07:33:00,75.6,68.6,30.09,South,180,0.0,2.0,79,0.00,,---,0.00,VWS V14.01,2013-05-30 11:33:00,
2013-05-30 07:34:00,75.9,68.9,30.09,ESE,112,0.0,2.2,79,0.00,,---,0.00,VWS V14.01,2013-05-30 11:34:00,
2013-05-30 07:35:00,77.4,69.6,30.09,ESE,112,2.0,2.0,77,0.00,,---,0.00,VWS V14.01,2013-05-30 11:35:00,
2013-05-30 07:36:00,76.8,69.4,30.09,WNW,292,1.3,1.3,78,0.00,,---,0.00,VWS V14.01,2013-05-30 11:36:00,
2013-05-30 07:37:00,77.0,69.2,30.09,ESE,112,2.0,2.0,77,0.00,,---,0.00,VWS V14.01,2013-05-30 11:37:00,
2013-05-30 07:38:00,77.5,69.4,30.09,East,90,0.0,2.0,76,0.00,,---,0.00,VWS V14.01,2013-05-30 11:38:00,
2013-05-30 07:39:00,77.7,69.2,30.09,SE,135,1.3,1.3,75,0.00,,---,0.00,VWS V14.01,2013-05-30 11:39:00,
2013-05-30 07:40:00,78.3,69.7,30.09,ESE,112,1.6,1.6,75,0.00,,---,0.00,VWS V14.01,2013-05-30 11:40:00,
2013-05-30 07:41:00,78.1,69.5,30.09,SSE,158,1.6,1.6,75,0.00,,---,0.00,VWS V14.01,2013-05-30 11:41:00,
2013-05-30 07:42:00,78.3,69.7,30.09,ESE,112,0.0,1.6,75,0.00,,---,0.00,VWS V14.01,2013-05-30 11:42:00,
2013-05-30 07:43:00,78.3,69.3,30.09,SE,135,4.3,4.3,74,0.00,,---,0.00,VWS V14.01,2013-05-30 11:43:00,
2013-05-30 07:44:00,78.3,68.5,30.09,WNW,292,0.0,4.3,72,0.00,,---,0.00,VWS V14.01,2013-05-30 11:44:00,
2013-05-30 07:45:00,78.8,67.8,30.09,East,90,5.4,5.4,69,0.00,,---,0.00,VWS V14.01,2013-05-30 11:45:00,
2013-05-30 07:46:00,78.6,68.0,30.09,NNE,22,0.9,3.1,70,0.00,,---,0.00,VWS V14.01,2013-05-30 11:46:00,
2013-05-30 07:47:00,78.8,67.8,30.09,ESE,112,2.7,2.7,69,0.00,,---,0.00,VWS V14.01,2013-05-30 11:47:00,
2013-05-30 07:48:00,78.8,67.4,30.09,SSE,158,2.2,5.4,68,0.00,,---,0.00,VWS V14.01,2013-05-30 11:48:00,
2013-05-30 07:49:00,78.8,66.9,30.09,SSE,158,1.3,3.8,67,0.00,,---,0.00,VWS V14.01,2013-05-30 11:49:00,
2013-05-30 07:50:00,79.3,67.4,30.09,WSW,248,0.0,0.0,67,0.00,,---,0.00,VWS V14.01,2013-05-30 11:50:00,
2013-05-30 07:51:00,78.8,66.9,30.09,WSW,248,0.0,2.2,67,0.00,,---,0.00,VWS V14.01,2013-05-30 11:51:00,
2013-05-30 07:52:00,79.0,67.1,30.09,WSW,248,0.0,0.0,67,0.00,,---,0.00,VWS V14.01,2013-05-30 11:52:00,
2013-05-30 07:53:00,79.3,67.4,30.09,NNW,338,0.0,2.7,67,0.00,,---,0.00,VWS V14.01,2013-05-30 11:53:00,
2013-05-30 07:54:00,79.2,66.8,30.09,NW,315,3.4,3.6,66,0.00,,---,0.00,VWS V14.01,2013-05-30 11:54:00,
2013-05-30 07:55:00,79.2,66.4,30.09,ESE,112,1.1,1.3,65,0.00,,---,0.00,VWS V14.01,2013-05-30 11:55:00,
2013-05-30 07:56:00,79.0,65.8,30.09,SE,135,0.0,0.9,64,0.00,,---,0.00,VWS V14.01,2013-05-30 11:56:00,
2013-05-30 07:57:00,79.2,66.4,30.09,SSW,202,1.3,1.3,65,0.00,,---,0.00,VWS V14.01,2013-05-30 11:57:00,
2013-05-30 07:58:00,79.2,66.4,30.09,North,0,2.5,3.8,65,0.00,,---,0.00,VWS V14.01,2013-05-30 11:58:00,
2013-05-30 07:59:00,79.2,66.4,30.09,SSW,202,0.0,2.5,65,0.00,,---,0.00,VWS V14.01,2013-05-30 11:59:00,
2013-05-30 08:00:00,78.4,63.9,30.09,ESE,112,0.9,0.9,61,0.00,,---,0.00,VWS V14.01,2013-05-30 12:00:00,
2013-05-30 08:01:00,78.6,64.1,30.09,NNW,338,2.7,4.7,61,0.00,,---,0.00,VWS V14.01,2013-05-30 12:01:00,
2013-05-30 08:02:00,78.4,63.9,30.09,ESE,112,0.9,6.9,61,0.00,,---,0.00,VWS V14.01,2013-05-30 12:02:00,
2013-05-30 08:03:00,78.4,63.9,30.09,WSW,248,1.1,1.6,61,0.00,,---,0.00,VWS V14.01,2013-05-30 12:03:00,
2013-05-30 08:04:00,78.3,63.7,30.09,WNW,292,2.0,4.3,61,0.00,,---,0.00,VWS V14.01,2013-05-30 12:04:00,
2013-05-30 08:05:00,78.3,64.2,30.09,NNW,338,3.8,3.8,62,0.00,,---,0.00,VWS V14.01,2013-05-30 12:05:00,
2013-05-30 08:06:00,78.3,63.7,30.09,ESE,112,0.0,2.9,61,0.00,,---,0.00,VWS V14.01,2013-05-30 12:06:00,
2013-05-30 08:07:00,78.3,64.2,30.09,ESE,112,0.9,0.9,62,0.00,,---,0.00,VWS V14.01,2013-05-30 12:07:00,
2013-05-30 08:08:00,78.3,63.7,30.09,NNE,22,8.7,8.7,61,0.00,,---,0.00,VWS V14.01,2013-05-30 12:08:00,
2013-05-30 08:09:00,78.3,63.7,30.09,WSW,248,1.1,8.7,61,0.00,,---,0.00,VWS V14.01,2013-05-30 12:09:00,
2013-05-30 08:10:00,78.1,63.5,30.09,SSW,202,0.0,0.0,61,0.00,,---,0.00,VWS V14.01,2013-05-30 12:10:00,
2013-05-30 08:11:00,78.1,63.5,30.09,ESE,112,0.0,2.2,61,0.00,,---,0.00,VWS V14.01,2013-05-30 12:11:00,
2013-05-30 08:12:00,78.1,63.5,30.09,SSW,202,0.0,2.0,61,0.00,,---,0.00,VWS V14.01,2013-05-30 12:12:00,
2013-05-30 08:13:00,78.3,63.7,30.09,NE,45,0.0,0.0,61,0.00,,---,0.00,VWS V14.01,2013-05-30 12:13:00,
2013-05-30 08:14:00,78.3,63.7,30.09,NE,45,2.5,2.5,61,0.00,,---,0.00,VWS V14.01,2013-05-30 12:14:00,
2013-05-30 08:15:00,78.3,63.2,30.09,SSW,202,2.0,5.8,60,0.00,,---,0.00,VWS V14.01,2013-05-30 12:15:00,
2013-05-30 08:16:00,78.3,63.7,30.09,East,90,0.0,3.6,61,0.00,,---,0.00,VWS V14.01,2013-05-30 12:16:00,
2013-05-30 08:17:00,78.3,63.2,30.09,ESE,112,1.1,5.8,60,0.00,,---,0.00,VWS V14.01,2013-05-30 12:17:00,
2013-05-30 08:18:00,78.1,63.1,30.09,NNW,338,0.0,1.1,60,0.00,,---,0.00,VWS V14.01,2013-05-30 12:18:00,
2013-05-30 08:19:00,78.3,63.7,30.09,WSW,248,2.5,2.5,61,0.00,,---,0.00,VWS V14.01,2013-05-30 12:19:00,
2013-05-30 08:20:00,78.4,63.9,30.09,NNE,22,0.0,0.0,61,0.00,,---,0.00,VWS V14.01,2013-05-30 12:20:00,
2013-05-30 08:21:00,78.4,63.9,30.09,South,180,0.0,2.5,61,0.00,,---,0.00,VWS V14.01,2013-05-30 12:21:00,
2013-05-30 08:22:00,78.4,63.9,30.09,NNE,22,0.0,0.0,61,0.00,,---,0.00,VWS V14.01,2013-05-30 12:22:00,
2013-05-30 08:23:00,78.6,64.1,30.09,ESE,112,0.0,0.0,61,0.00,,---,0.00,VWS V14.01,2013-05-30 12:23:00,
2013-05-30 08:24:00,78.6,64.1,30.09,East,90,0.0,1.3,61,0.00,,---,0.00,VWS V14.01,2013-05-30 12:24:00,
2013-05-30 08:25:00,78.4,62.9,30.09,SSE,158,0.0,0.0,59,0.00,,---,0.00,VWS V14.01,2013-05-30 12:25:00,
2013-05-30 08:26:00,78.4,62.9,30.09,WSW,248,1.6,8.1,59,0.00,,---,0.00,VWS V14.01,2013-05-30 12:26:00,
2013-05-30 08:27:00,78.4,62.9,30.09,SSE,158,0.0,2.5,59,0.00,,---,0.00,VWS V14.01,2013-05-30 12:27:00,
2013-05-30 08:28:00,78.4,62.9,30.09,WSW,248,0.0,1.6,59,0.00,,---,0.00,VWS V14.01,2013-05-30 12:28:00,
2013-05-30 08:29:00,78.4,62.9,30.09,SSE,158,0.9,2.5,59,0.00,,---,0.00,VWS V14.01,2013-05-30 12:29:00,
2013-05-30 08:30:00,78.6,63.1,30.09,SSW,202,0.0,0.0,59,0.00,,---,0.00,VWS V14.01,2013-05-30 12:30:00,
2013-05-30 08:31:00,78.6,63.1,30.09,SSW,202,0.0,2.9,59,0.00,,---,0.00,VWS V14.01,2013-05-30 12:31:00,
2013-05-30 08:32:00,78.6,63.1,30.09,SSW,202,0.0,0.0,59,0.00,,---,0.00,VWS V14.01,2013-05-30 12:32:00,
2013-05-30 08:33:00,78.6,63.1,30.09,SSW,202,0.0,2.5,59,0.00,,---,0.00,VWS V14.01,2013-05-30 12:33:00,
2013-05-30 08:34:00,78.8,62.8,30.09,SW,225,0.0,0.0,58,0.00,,---,0.00,VWS V14.01,2013-05-30 12:34:00,
2013-05-30 08:35:00,78.8,62.8,30.09,SW,225,2.7,2.7,58,0.00,,---,0.00,VWS V14.01,2013-05-30 12:35:00,
2013-05-30 08:36:00,78.8,62.8,30.09,SSE,158,1.6,2.7,58,0.00,,---,0.00,VWS V14.01,2013-05-30 12:36:00,
2013-05-30 08:37:00,78.8,62.8,30.09,SW,225,2.7,2.7,58,0.00,,---,0.00,VWS V14.01,2013-05-30 12:37:00,
2013-05-30 08:38:00,79.0,63.0,30.09,SSE,158,2.0,2.7,58,0.00,,---,0.00,VWS V14.01,2013-05-30 12:38:00,
2013-05-30 08:39:00,79.2,63.1,30.09,NNW,338,0.0,2.0,58,0.00,,---,0.00,VWS V14.01,2013-05-30 12:39:00,
2013-05-30 08:40:00,79.9,63.3,30.09,SW,225,1.1,4.0,57,0.00,,---,0.00,VWS V14.01,2013-05-30 12:40:00,
2013-05-30 08:41:00,79.7,63.6,30.09,SE,135,4.0,4.0,58,0.00,,---,0.00,VWS V14.01,2013-05-30 12:41:00,
2013-05-30 08:42:00,79.9,63.3,30.09,SW,225,1.1,4.0,57,0.00,,---,0.00,VWS V14.01,2013-05-30 12:42:00,
2013-05-30 08:43:00,80.1,63.5,30.09,WNW,292,0.0,1.6,57,0.00,,---,0.00,VWS V14.01,2013-05-30 12:43:00,
2013-05-30 08:44:00,80.2,63.6,30.09,NE,45,1.1,1.1,57,0.00,,---,0.00,VWS V14.01,2013-05-30 12:44:00,
2013-05-30 08:45:00,81.1,62.4,30.09,SSE,158,2.2,8.1,53,0.00,,---,0.00,VWS V14.01,2013-05-30 12:45:00,
2013-05-30 08:46:00,81.0,63.8,30.09,SSW,202,0.0,2.5,56,0.00,,---,0.00,VWS V14.01,2013-05-30 12:46:00,
2013-05-30 08:47:00,81.1,62.4,30.09,SSE,158,2.2,8.1,53,0.00,,---,0.00,VWS V14.01,2013-05-30 12:47:00,
2013-05-30 08:48:00,81.3,63.1,30.09,ESE,112,0.0,2.7,54,0.00,,---,0.00,VWS V14.01,2013-05-30 12:48:00,
2013-05-30 08:49:00,82.0,61.0,30.09,ENE,68,1.3,4.7,49,0.00,,---,0.00,VWS V14.01,2013-05-30 12:49:00,
2013-05-30 08:50:00,81.7,61.8,30.09,North,0,1.6,6.0,51,0.00,,---,0.00,VWS V14.01,2013-05-30 12:50:00,
2013-05-30 08:51:00,81.9,62.0,30.09,SSE,158,2.5,2.7,51,0.00,,---,0.00,VWS V14.01,2013-05-30 12:51:00,
2013-05-30 08:52:00,82.0,61.0,30.09,ENE,68,1.3,4.7,49,0.00,,---,0.00,VWS V14.01,2013-05-30 12:52:00,
2013-05-30 08:53:00,82.2,60.6,30.09,SSE,158,2.5,3.6,48,0.00,,---,0.00,VWS V14.01,2013-05-30 12:53:00,
2013-05-30 08:54:00,82.6,59.7,30.09,South,180,1.6,5.6,46,0.00,,---,0.00,VWS V14.01,2013-05-30 12:54:00,
2013-05-30 08:55:00,82.4,60.8,30.09,SSW,202,2.2,2.7,48,0.00,,---,0.00,VWS V14.01,2013-05-30 12:55:00,
2013-05-30 08:56:00,82.6,60.9,30.09,SSE,158,5.6,5.6,48,0.00,,---,0.00,VWS V14.01,2013-05-30 12:56:00,
2013-05-30 08:57:00,82.6,59.7,30.09,South,180,1.6,5.6,46,0.00,,---,0.00,VWS V14.01,2013-05-30 12:57:00,
2013-05-30 08:58:00,82.6,59.7,30.09,WNW,292,2.5,3.6,46,0.00,,---,0.00,VWS V14.01,2013-05-30 12:58:00,
2013-05-30 08:59:00,83.5,59.9,30.09,SSE,158,2.7,3.4,45,0.00,,---,0.00,VWS V14.01,2013-05-30 12:59:00,
2013-05-30 09:00:00,82.9,59.4,30.09,SSW,202,1.3,2.7,45,0.00,,---,0.00,VWS V14.01,2013-05-30 13:00:00,
2013-05-30 09:01:00,83.1,59.6,30.09,SSW,202,3.4,3.4,45,0.00,,---,0.00,VWS V14.01,2013-05-30 13:01:00,
2013-05-30 09:02:00,83.5,59.9,30.09,SSE,158,2.7,3.4,45,0.00,,---,0.00,VWS V14.01,2013-05-30 13:02:00,
2013-05-30 09:03:00,83.7,60.1,30.09,SSW,202,1.3,3.1,45,0.00,,---,0.00,VWS V14.01,2013-05-30 13:03:00,
2013-05-30 09:04:00,84.6,60.9,30.09,SSW,202,2.9,2.9,45,0.00,,---,0.00,VWS V14.01,2013-05-30 13:04:00,
2013-05-30 09:05:00,84.0,60.4,30.09,SE,135,2.0,3.6,45,0.00,,---,0.00,VWS V14.01,2013-05-30 13:05:00,
2013-05-30 09:06:00,84.2,60.6,30.09,SSW,202,0.0,2.0,45,0.00,,---,0.00,VWS V14.01,2013-05-30 13:06:00,
2013-05-30 09:07:00,84.6,60.9,30.09,SSW,202,2.9,2.9,45,0.00,,---,0.00,VWS V14.01,2013-05-30 13:07:00,
2013-05-30 09:08:00,84.7,59.8,30.09,SW,225,2.0,3.6,43,0.00,,---,0.00,VWS V14.01,2013-05-30 13:08:00,
2013-05-30 09:09:00,84.9,57.9,30.09,WSW,248,4.9,4.9,40,0.00,,---,0.00,VWS V14.01,2013-05-30 13:09:00,
2013-05-30 09:10:00,84.7,58.5,30.09,West,270,2.0,4.3,41,0.00,,---,0.00,VWS V14.01,2013-05-30 13:10:00,
2013-05-30 09:11:00,84.9,58.6,30.09,WSW,248,1.6,2.2,41,0.00,,---,0.00,VWS V14.01,2013-05-30 13:11:00,
2013-05-30 09:12:00,84.9,57.9,30.09,ESE,112,2.7,4.9,40,0.00,,---,0.00,VWS V14.01,2013-05-30 13:12:00,
2013-05-30 09:13:00,84.9,57.9,30.09,ENE,68,2.2,3.4,40,0.00,,---,0.00,VWS V14.01,2013-05-30 13:13:00,
2013-05-30 09:14:00,85.5,57.7,30.09,NNE,22,3.1,3.1,39,0.00,,---,0.00,VWS V14.01,2013-05-30 13:14:00,
2013-05-30 09:15:00,85.1,58.8,30.09,East,90,2.2,2.9,41,0.00,,---,0.00,VWS V14.01,2013-05-30 13:15:00,
2013-05-30 09:16:00,85.3,58.2,30.09,WSW,248,2.2,2.7,40,0.00,,---,0.00,VWS V14.01,2013-05-30 13:16:00,
2013-05-30 09:17:00,85.5,57.7,30.09,NNE,22,3.1,3.1,39,0.00,,---,0.00,VWS V14.01,2013-05-30 13:17:00,
2013-05-30 09:18:00,85.6,58.6,30.09,SSW,202,0.0,3.1,40,0.00,,---,0.00,VWS V14.01,2013-05-30 13:18:00,
2013-05-30 09:19:00,86.4,57.8,30.09,SSW,202,1.3,3.8,38,0.00,,---,0.00,VWS V14.01,2013-05-30 13:19:00,
2013-05-30 09:20:00,86.0,58.9,30.09,SSW,202,0.0,0.9,40,0.00,,---,0.00,VWS V14.01,2013-05-30 13:20:00,
2013-05-30 09:21:00,86.2,58.3,30.09,ESE,112,0.0,2.2,39,0.00,,---,0.00,VWS V14.01,2013-05-30 13:21:00,
2013-05-30 09:22:00,86.4,57.8,30.09,SSW,202,2.5,3.8,38,0.00,,---,0.00,VWS V14.01,2013-05-30 13:22:00,
2013-05-30 09:23:00,86.5,57.9,30.09,SSW,202,0.9,2.5,38,0.00,,---,0.00,VWS V14.01,2013-05-30 13:23:00,
2013-05-30 09:24:00,87.1,56.9,30.09,NNW,338,2.5,2.5,36,0.00,,---,0.00,VWS V14.01,2013-05-30 13:24:00,
2013-05-30 09:25:00,87.1,57.7,30.09,SSW,202,1.6,3.8,37,0.00,,---,0.00,VWS V14.01,2013-05-30 13:25:00,
2013-05-30 09:26:00,87.1,56.9,30.09,East,90,1.1,2.9,36,0.00,,---,0.00,VWS V14.01,2013-05-30 13:26:00,
2013-05-30 09:27:00,87.1,56.9,30.09,SSW,202,2.7,2.7,36,0.00,,---,0.00,VWS V14.01,2013-05-30 13:27:00,
2013-05-30 09:28:00,87.1,55.3,30.09,SSE,158,2.0,3.8,34,0.00,,---,0.00,VWS V14.01,2013-05-30 13:28:00,
2013-05-30 09:29:00,87.1,55.3,30.09,SSW,202,2.7,3.8,34,0.00,,---,0.00,VWS V14.01,2013-05-30 13:29:00,
2013-05-30 09:30:00,86.9,55.2,30.09,East,90,2.5,4.0,34,0.00,,---,0.00,VWS V14.01,2013-05-30 13:30:00,
2013-05-30 09:31:00,87.1,54.5,30.09,East,90,3.8,3.8,33,0.00,,---,0.00,VWS V14.01,2013-05-30 13:31:00,
2013-05-30 09:32:00,87.1,55.3,30.09,SSW,202,2.7,3.8,34,0.00,,---,0.00,VWS V14.01,2013-05-30 13:32:00,
2013-05-30 09:33:00,87.3,55.5,30.09,NNE,22,2.0,2.7,34,0.00,,---,0.00,VWS V14.01,2013-05-30 13:33:00,
2013-05-30 09:34:00,88.2,55.5,30.09,SSE,158,1.3,1.3,33,0.00,,---,0.00,VWS V14.01,2013-05-30 13:34:00,
2013-05-30 09:35:00,87.8,55.2,30.09,South,180,1.3,2.9,33,0.00,,---,0.00,VWS V14.01,2013-05-30 13:35:00,
2013-05-30 09:36:00,88.0,54.5,30.09,ENE,68,1.1,4.0,32,0.00,,---,0.00,VWS V14.01,2013-05-30 13:36:00,
2013-05-30 09:37:00,88.2,55.5,30.09,SE,135,2.5,2.5,33,0.00,,---,0.00,VWS V14.01,2013-05-30 13:37:00,
2013-05-30 09:38:00,88.0,54.5,30.09,WSW,248,2.0,3.6,32,0.00,,---,0.00,VWS V14.01,2013-05-30 13:38:00,
2013-05-30 09:39:00,87.8,52.5,30.09,SSE,158,2.0,4.0,30,0.00,,---,0.00,VWS V14.01,2013-05-30 13:39:00,
2013-05-30 09:40:00,87.6,53.3,30.09,ESE,112,2.0,3.6,31,0.00,,---,0.00,VWS V14.01,2013-05-30 13:40:00,
2013-05-30 09:41:00,87.8,53.4,30.09,SSE,158,2.0,3.8,31,0.00,,---,0.00,VWS V14.01,2013-05-30 13:41:00,
2013-05-30 09:42:00,87.8,52.5,30.09,WNW,292,2.7,4.0,30,0.00,,---,0.00,VWS V14.01,2013-05-30 13:42:00,
2013-05-30 09:43:00,87.6,52.4,30.09,SSE,158,2.5,5.6,30,0.00,,---,0.00,VWS V14.01,2013-05-30 13:43:00,
2013-05-30 09:44:00,87.3,52.1,30.09,NNW,338,2.0,3.1,30,0.00,,---,0.00,VWS V14.01,2013-05-30 13:44:00,
2013-05-30 09:45:00,87.6,51.5,30.09,South,180,3.1,5.8,29,0.00,,---,0.00,VWS V14.01,2013-05-30 13:45:00,
2013-05-30 09:46:00,87.3,52.1,30.09,West,270,3.1,5.4,30,0.00,,---,0.00,VWS V14.01,2013-05-30 13:46:00,
2013-05-30 09:47:00,87.4,51.3,30.09,SSE,158,3.6,3.6,29,0.00,,---,0.00,VWS V14.01,2013-05-30 13:47:00,
2013-05-30 09:48:00,87.8,51.6,30.09,WSW,248,2.5,3.6,29,0.00,,---,0.00,VWS V14.01,2013-05-30 13:48:00,
2013-05-30 09:49:00,88.0,51.8,30.09,SSE,158,1.3,1.6,29,0.00,,---,0.00,VWS V14.01,2013-05-30 13:49:00,
2013-05-30 09:50:00,88.2,51.9,30.09,SSW,202,2.2,3.8,29,0.00,,---,0.00,VWS V14.01,2013-05-30 13:50:00,
2013-05-30 09:51:00,88.0,51.8,30.09,ESE,112,0.9,3.6,29,0.00,,---,0.00,VWS V14.01,2013-05-30 13:51:00,
2013-05-30 09:52:00,88.0,51.8,30.09,SSE,158,2.2,2.2,29,0.00,,---,0.00,VWS V14.01,2013-05-30 13:52:00,
2013-05-30 09:53:00,88.2,51.9,30.09,SSW,202,3.6,5.8,29,0.00,,---,0.00,VWS V14.01,2013-05-30 13:53:00,
2013-05-30 09:54:00,88.0,51.8,30.09,South,180,2.0,3.1,29,0.00,,---,0.00,VWS V14.01,2013-05-30 13:54:00,
2013-05-30 09:55:00,88.0,51.8,30.09,SSW,202,3.1,3.6,29,0.00,,---,0.00,VWS V14.01,2013-05-30 13:55:00,
2013-05-30 09:56:00,87.8,50.7,30.09,SSE,158,2.7,8.7,28,0.00,,---,0.00,VWS V14.01,2013-05-30 13:56:00,
2013-05-30 09:57:00,88.0,51.8,30.09,SSE,158,3.1,3.1,29,0.00,,---,0.00,VWS V14.01,2013-05-30 13:57:00,
2013-05-30 09:58:00,88.0,51.8,30.09,East,90,2.9,3.1,29,0.00,,---,0.00,VWS V14.01,2013-05-30 13:58:00,
2013-05-30 09:59:00,88.3,51.1,30.09,WSW,248,3.4,3.4,28,0.00,,---,0.00,VWS V14.01,2013-05-30 13:59:00,
2013-05-30 10:00:00,88.3,52.1,30.09,South,180,6.0,6.0,29,0.00,,---,0.00,VWS V14.01,2013-05-30 14:00:00,
2013-05-30 10:01:00,88.3,51.1,30.09,SSE,158,2.7,6.0,28,0.00,,---,0.00,VWS V14.01,2013-05-30 14:01:00,
2013-05-30 10:02:00,88.5,51.3,30.09,West,270,1.6,3.4,28,0.00,,---,0.00,VWS V14.01,2013-05-30 14:02:00,
2013-05-30 10:03:00,88.7,51.4,30.09,South,180,2.7,3.6,28,0.00,,---,0.00,VWS V14.01,2013-05-30 14:03:00,
2013-05-30 10:04:00,89.2,51.9,30.09,East,90,2.2,2.5,28,0.00,,---,0.00,VWS V14.01,2013-05-30 14:04:00,
2013-05-30 10:05:00,88.7,51.4,30.09,North,0,1.6,3.1,28,0.00,,---,0.00,VWS V14.01,2013-05-30 14:05:00,
2013-05-30 10:06:00,89.1,51.8,30.09,SSW,202,2.5,3.4,28,0.00,,---,0.00,VWS V14.01,2013-05-30 14:06:00,
2013-05-30 10:07:00,89.2,51.9,30.09,SSW,202,2.0,2.5,28,0.00,,---,0.00,VWS V14.01,2013-05-30 14:07:00,
2013-05-30 10:08:00,89.2,51.9,30.09,SE,135,3.8,3.8,28,0.00,,---,0.00,VWS V14.01,2013-05-30 14:08:00,
2013-05-30 10:09:00,88.3,51.1,30.09,SSE,158,3.4,3.4,28,0.00,,---,0.00,VWS V14.01,2013-05-30 14:09:00,
2013-05-30 10:10:00,88.9,51.6,30.09,SSW,202,2.7,2.9,28,0.00,,---,0.00,VWS V14.01,2013-05-30 14:10:00,
2013-05-30 10:11:00,88.3,51.1,30.09,South,180,1.6,2.9,28,0.00,,---,0.00,VWS V14.01,2013-05-30 14:11:00,
2013-05-30 10:12:00,88.3,51.1,30.09,SE,135,3.8,3.8,28,0.00,,---,0.00,VWS V14.01,2013-05-30 14:12:00,
2013-05-30 10:13:00,88.3,50.2,30.09,North,0,2.7,4.0,27,0.00,,---,0.00,VWS V14.01,2013-05-30 14:13:00,
2013-05-30 10:14:00,88.2,50.0,30.09,WSW,248,2.9,4.3,27,0.00,,---,0.00,VWS V14.01,2013-05-30 14:14:00,
2013-05-30 10:15:00,88.0,50.8,30.09,SSE,158,3.1,5.8,28,0.00,,---,0.00,VWS V14.01,2013-05-30 14:15:00,
2013-05-30 10:16:00,88.0,49.8,30.09,SSW,202,4.3,4.3,27,0.00,,---,0.00,VWS V14.01,2013-05-30 14:16:00,
2013-05-30 10:17:00,88.5,51.3,30.09,SW,225,2.5,4.3,28,0.00,,---,0.00,VWS V14.01,2013-05-30 14:17:00,
2013-05-30 10:18:00,88.2,50.0,30.09,SSE,158,2.9,3.6,27,0.00,,---,0.00,VWS V14.01,2013-05-30 14:18:00,
2013-05-30 10:19:00,88.3,49.1,30.09,SSW,202,2.9,3.8,26,0.00,,---,0.00,VWS V14.01,2013-05-30 14:19:00,
2013-05-30 10:20:00,88.9,50.6,30.09,WSW,248,2.5,2.7,27,0.00,,---,0.00,VWS V14.01,2013-05-30 14:20:00,
2013-05-30 10:21:00,88.9,49.6,30.09,SSW,202,2.7,5.8,26,0.00,,---,0.00,VWS V14.01,2013-05-30 14:21:00,
2013-05-30 10:22:00,88.3,49.1,30.09,WSW,248,0.0,3.8,26,0.00,,---,0.00,VWS V14.01,2013-05-30 14:22:00,
2013-05-30 10:23:00,88.2,50.0,30.09,SSE,158,1.3,2.5,27,0.00,,---,0.00,VWS V14.01,2013-05-30 14:23:00,
2013-05-30 10:24:00,89.6,50.2,30.09,NNE,22,0.0,4.3,26,0.00,,---,0.00,VWS V14.01,2013-05-30 14:24:00,
2013-05-30 10:25:00,89.2,49.9,30.09,SW,225,2.5,2.5,26,0.00,,---,0.00,VWS V14.01,2013-05-30 14:25:00,
2013-05-30 10:26:00,89.2,48.8,30.09,SSW,202,4.3,4.3,25,0.00,,---,0.00,VWS V14.01,2013-05-30 14:26:00,
2013-05-30 10:27:00,89.6,50.2,30.09,SSE,158,0.9,4.3,26,0.00,,---,0.00,VWS V14.01,2013-05-30 14:27:00,
2013-05-30 10:28:00,89.8,49.3,30.09,ESE,112,1.3,6.3,25,0.00,,---,0.00,VWS V14.01,2013-05-30 14:28:00,
2013-05-30 10:29:00,90.7,47.8,30.09,NE,45,2.9,7.6,23,0.00,,---,0.00,VWS V14.01,2013-05-30 14:29:00,
2013-05-30 10:30:00,90.5,51.0,30.09,SW,225,2.2,2.5,26,0.00,,---,0.00,VWS V14.01,2013-05-30 14:30:00,
2013-05-30 10:31:00,90.9,51.3,30.09,NNW,338,7.6,7.6,26,0.00,,---,0.00,VWS V14.01,2013-05-30 14:31:00,
2013-05-30 10:32:00,91.0,48.1,30.09,SSE,158,2.0,7.6,23,0.00,,---,0.00,VWS V14.01,2013-05-30 14:32:00,
2013-05-30 10:33:00,91.0,49.3,30.09,SSW,202,2.9,2.9,24,0.00,,---,0.00,VWS V14.01,2013-05-30 14:33:00,
2013-05-30 10:34:00,91.2,48.3,30.09,WSW,248,2.5,2.7,23,0.00,,---,0.00,VWS V14.01,2013-05-30 14:34:00,
2013-05-30 10:35:00,90.9,48.0,30.09,NNW,338,1.3,5.8,23,0.00,,---,0.00,VWS V14.01,2013-05-30 14:35:00,
2013-05-30 10:36:00,91.0,48.1,30.09,West,270,2.5,2.9,23,0.00,,---,0.00,VWS V14.01,2013-05-30 14:36:00,
2013-05-30 10:37:00,91.2,48.3,30.09,NNW,338,2.0,2.7,23,0.00,,---,0.00,VWS V14.01,2013-05-30 14:37:00,
2013-05-30 10:38:00,91.6,47.4,30.09,WSW,248,0.0,2.5,22,0.00,,---,0.00,VWS V14.01,2013-05-30 14:38:00,
2013-05-30 10:39:00,91.9,46.5,30.09,WSW,248,2.2,2.2,21,0.00,,---,0.00,VWS V14.01,2013-05-30 14:39:00,
2013-05-30 10:40:00,91.6,46.2,30.09,SE,135,8.7,8.7,21,0.00,,---,0.00,VWS V14.01,2013-05-30 14:40:00,
2013-05-30 10:41:00,91.9,46.5,30.09,ESE,112,1.1,8.7,21,0.00,,---,0.00,VWS V14.01,2013-05-30 14:41:00,
2013-05-30 10:42:00,91.9,46.5,30.09,WSW,248,2.2,2.2,21,0.00,,---,0.00,VWS V14.01,2013-05-30 14:42:00,
2013-05-30 10:43:00,91.9,46.5,30.09,SSW,202,2.5,2.5,21,0.00,,---,0.00,VWS V14.01,2013-05-30 14:43:00,
2013-05-30 10:44:00,91.9,46.5,30.09,SE,135,4.3,4.5,21,0.00,,---,0.00,VWS V14.01,2013-05-30 14:44:00,
2013-05-30 10:45:00,92.1,46.6,30.09,ESE,112,5.4,6.0,21,0.00,,---,0.00,VWS V14.01,2013-05-30 14:45:00,
2013-05-30 10:46:00,91.9,46.5,30.09,North,0,2.7,5.4,21,0.00,,---,0.00,VWS V14.01,2013-05-30 14:46:00,
2013-05-30 10:47:00,92.1,46.6,30.09,SSE,158,3.6,4.5,21,0.00,,---,0.00,VWS V14.01,2013-05-30 14:47:00,
2013-05-30 10:48:00,92.1,46.6,30.09,South,180,2.0,3.6,21,0.00,,---,0.00,VWS V14.01,2013-05-30 14:48:00,
2013-05-30 10:49:00,91.8,46.3,30.09,SSE,158,2.9,4.3,21,0.00,,---,0.00,VWS V14.01,2013-05-30 14:49:00,
2013-05-30 10:50:00,92.5,46.9,30.09,WSW,248,3.1,4.7,21,0.00,,---,0.00,VWS V14.01,2013-05-30 14:50:00,
2013-05-30 10:51:00,91.8,46.3,30.09,ENE,68,2.9,3.8,21,0.00,,---,0.00,VWS V14.01,2013-05-30 14:51:00,
2013-05-30 10:52:00,91.8,46.3,30.09,SSW,202,3.1,4.3,21,0.00,,---,0.00,VWS V14.01,2013-05-30 14:52:00,
2013-05-30 10:53:00,91.8,46.3,30.09,South,180,0.0,3.4,21,0.00,,---,0.00,VWS V14.01,2013-05-30 14:53:00,
2013-05-30 10:54:00,90.7,46.7,30.09,SSE,158,4.0,4.0,22,0.00,,---,0.00,VWS V14.01,2013-05-30 14:54:00,
2013-05-30 10:55:00,90.5,46.5,30.09,SSW,202,1.3,4.3,22,0.00,,---,0.00,VWS V14.01,2013-05-30 14:55:00,
2013-05-30 10:56:00,90.7,46.7,30.09,SSE,158,2.0,2.7,22,0.00,,---,0.00,VWS V14.01,2013-05-30 14:56:00,
2013-05-30 10:57:00,90.7,45.4,30.09,SE,135,4.0,4.0,21,0.00,,---,0.00,VWS V14.01,2013-05-30 14:57:00,
2013-05-30 10:58:00,90.5,46.5,30.09,SE,135,1.1,4.0,22,0.00,,---,0.00,VWS V14.01,2013-05-30 14:58:00,
2013-05-30 10:59:00,92.1,49.0,30.09,East,90,5.4,5.4,23,0.00,,---,0.00,VWS V14.01,2013-05-30 14:59:00,
2013-05-30 11:00:00,91.2,47.1,30.09,SE,135,1.1,1.6,22,0.00,,---,0.00,VWS V14.01,2013-05-30 15:00:00,
2013-05-30 11:01:00,92.1,49.0,30.09,East,90,4.9,4.9,23,0.00,,---,0.00,VWS V14.01,2013-05-30 15:01:00,
2013-05-30 11:02:00,92.1,49.0,30.09,SSE,158,3.1,5.4,23,0.00,,---,0.00,VWS V14.01,2013-05-30 15:02:00,
2013-05-30 11:03:00,91.8,46.3,30.09,SSE,158,2.7,4.3,21,0.00,,---,0.00,VWS V14.01,2013-05-30 15:03:00,
2013-05-30 11:04:00,91.2,47.1,30.09,SSE,158,2.5,4.3,22,0.00,,---,0.00,VWS V14.01,2013-05-30 15:04:00,
2013-05-30 11:05:00,91.8,46.3,30.09,SSW,202,2.9,4.3,21,0.00,,---,0.00,VWS V14.01,2013-05-30 15:05:00,
2013-05-30 11:06:00,91.8,46.3,30.09,SSE,158,3.6,9.8,21,0.00,,---,0.00,VWS V14.01,2013-05-30 15:06:00,
2013-05-30 11:07:00,91.2,47.1,30.09,WSW,248,3.8,4.3,22,0.00,,---,0.00,VWS V14.01,2013-05-30 15:07:00,
2013-05-30 11:08:00,90.7,46.7,30.09,SSW,202,1.1,4.9,22,0.00,,---,0.00,VWS V14.01,2013-05-30 15:08:00,
2013-05-30 11:09:00,90.0,47.2,30.09,ESE,112,2.5,2.9,23,0.00,,---,0.00,VWS V14.01,2013-05-30 15:09:00,
2013-05-30 11:10:00,90.1,46.2,30.09,SSW,202,1.3,3.1,22,0.00,,---,0.00,VWS V14.01,2013-05-30 15:10:00,
2013-05-30 11:11:00,90.0,47.2,30.09,East,90,2.7,3.8,23,0.00,,---,0.00,VWS V14.01,2013-05-30 15:11:00,
2013-05-30 11:12:00,90.7,47.8,30.09,WSW,248,1.3,2.9,23,0.00,,---,0.00,VWS V14.01,2013-05-30 15:12:00,
2013-05-30 11:13:00,91.4,48.4,30.09,SSW,202,4.0,4.0,23,0.00,,---,0.00,VWS V14.01,2013-05-30 15:13:00,
2013-05-30 11:14:00,92.5,48.2,30.09,South,180,4.0,4.0,22,0.00,,---,0.00,VWS V14.01,2013-05-30 15:14:00,
2013-05-30 11:15:00,92.3,48.0,30.09,South,180,3.1,7.6,22,0.00,,---,0.00,VWS V14.01,2013-05-30 15:15:00,
2013-05-30 11:16:00,92.5,48.2,30.09,WNW,292,2.0,3.1,22,0.00,,---,0.00,VWS V14.01,2013-05-30 15:16:00,
2013-05-30 11:17:00,92.5,48.2,30.09,SSW,202,3.1,4.0,22,0.00,,---,0.00,VWS V14.01,2013-05-30 15:17:00,
2013-05-30 11:18:00,93.4,47.7,30.09,SSE,158,2.7,5.4,21,0.00,,---,0.00,VWS V14.01,2013-05-30 15:18:00,
2013-05-30 11:19:00,92.7,47.1,30.09,South,180,2.2,2.7,21,0.00,,---,0.00,VWS V14.01,2013-05-30 15:19:00,
2013-05-30 11:20:00,92.5,46.9,30.09,WSW,248,2.9,3.4,21,0.00,,---,0.00,VWS V14.01,2013-05-30 15:20:00,
2013-05-30 11:21:00,92.3,46.8,30.09,South,180,2.0,3.8,21,0.00,,---,0.00,VWS V14.01,2013-05-30 15:21:00,
2013-05-30 11:22:00,92.7,47.1,30.09,East,90,0.0,2.7,21,0.00,,---,0.00,VWS V14.01,2013-05-30 15:22:00,
2013-05-30 11:23:00,93.0,48.6,30.09,SSW,202,1.1,3.6,22,0.00,,---,0.00,VWS V14.01,2013-05-30 15:23:00,
2013-05-30 11:24:00,93.6,46.5,30.09,NNW,338,2.2,4.0,20,0.00,,---,0.00,VWS V14.01,2013-05-30 15:24:00,
2013-05-30 11:25:00,93.4,47.7,30.09,West,270,1.3,3.1,21,0.00,,---,0.00,VWS V14.01,2013-05-30 15:25:00,
2013-05-30 11:26:00,93.6,46.5,30.09,SSE,158,4.0,5.4,20,0.00,,---,0.00,VWS V14.01,2013-05-30 15:26:00,
2013-05-30 11:27:00,93.4,46.4,30.09,SSE,158,0.0,4.0,20,0.00,,---,0.00,VWS V14.01,2013-05-30 15:27:00,
2013-05-30 11:28:00,92.7,45.8,30.09,ESE,112,2.0,3.4,20,0.00,,---,0.00,VWS V14.01,2013-05-30 15:28:00,
2013-05-30 11:29:00,93.0,47.3,30.09,WSW,248,0.0,1.1,21,0.00,,---,0.00,VWS V14.01,2013-05-30 15:29:00,
2013-05-30 11:30:00,92.7,47.1,30.09,SSE,158,0.0,2.5,21,0.00,,---,0.00,VWS V14.01,2013-05-30 15:30:00,
2013-05-30 11:31:00,92.8,47.2,30.09,South,180,1.1,2.2,21,0.00,,---,0.00,VWS V14.01,2013-05-30 15:31:00,
2013-05-30 11:32:00,93.0,47.3,30.09,SSW,202,3.1,3.1,21,0.00,,---,0.00,VWS V14.01,2013-05-30 15:32:00,
2013-05-30 11:33:00,94.1,48.2,30.09,ENE,68,1.3,3.4,21,0.00,,---,0.00,VWS V14.01,2013-05-30 15:33:00,
2013-05-30 11:34:00,94.3,47.1,30.09,SSE,158,2.0,2.0,20,0.00,,---,0.00,VWS V14.01,2013-05-30 15:34:00,
2013-05-30 11:35:00,94.5,47.2,30.09,ESE,112,2.7,3.4,20,0.00,,---,0.00,VWS V14.01,2013-05-30 15:35:00,
2013-05-30 11:36:00,94.1,47.0,30.09,WSW,248,2.0,4.9,20,0.00,,---,0.00,VWS V14.01,2013-05-30 15:36:00,
2013-05-30 11:37:00,94.3,47.1,30.09,SSE,158,2.9,3.1,20,0.00,,---,0.00,VWS V14.01,2013-05-30 15:37:00,
2013-05-30 11:38:00,94.5,47.2,30.09,SSE,158,2.7,3.1,20,0.00,,---,0.00,VWS V14.01,2013-05-30 15:38:00,
2013-05-30 11:39:00,93.6,46.5,30.09,ESE,112,2.5,2.9,20,0.00,,---,0.00,VWS V14.01,2013-05-30 15:39:00,
2013-05-30 11:40:00,93.7,46.7,30.09,WSW,248,2.2,3.4,20,0.00,,---,0.00,VWS V14.01,2013-05-30 15:40:00,
2013-05-30 11:41:00,93.6,46.5,30.09,SSE,158,2.9,2.9,20,0.00,,---,0.00,VWS V14.01,2013-05-30 15:41:00,
2013-05-30 11:42:00,93.0,46.1,30.09,SSW,202,1.6,3.1,20,0.00,,---,0.00,VWS V14.01,2013-05-30 15:42:00,
2013-05-30 11:43:00,93.2,46.2,30.09,WSW,248,4.7,5.6,20,0.00,,---,0.00,VWS V14.01,2013-05-30 15:43:00,
2013-05-30 11:44:00,94.1,47.0,30.09,NW,315,2.2,4.0,20,0.00,,---,0.00,VWS V14.01,2013-05-30 15:44:00,
2013-05-30 11:45:00,93.9,46.8,30.09,ESE,112,4.3,4.3,20,0.00,,---,0.00,VWS V14.01,2013-05-30 15:45:00,
2013-05-30 11:46:00,93.7,46.7,30.09,East,90,4.0,6.3,20,0.00,,---,0.00,VWS V14.01,2013-05-30 15:46:00,
2013-05-30 11:47:00,94.1,47.0,30.09,WNW,292,2.9,4.0,20,0.00,,---,0.00,VWS V14.01,2013-05-30 15:47:00,
2013-05-30 11:48:00,93.9,46.8,30.09,NNW,338,2.2,3.1,20,0.00,,---,0.00,VWS V14.01,2013-05-30 15:48:00,
2013-05-30 11:49:00,95.4,46.6,30.09,SE,135,2.0,2.7,19,0.00,,---,0.00,VWS V14.01,2013-05-30 15:49:00,
2013-05-30 11:50:00,94.3,47.1,30.09,WSW,248,2.2,3.1,20,0.00,,---,0.00,VWS V14.01,2013-05-30 15:50:00,
2013-05-30 11:51:00,95.0,46.3,30.09,WNW,292,2.7,2.7,19,0.00,,---,0.00,VWS V14.01,2013-05-30 15:51:00,
2013-05-30 11:52:00,95.4,46.6,30.09,SSW,202,3.6,3.6,19,0.00,,---,0.00,VWS V14.01,2013-05-30 15:52:00,
2013-05-30 11:53:00,95.0,46.3,30.09,SW,225,4.0,4.0,19,0.00,,---,0.00,VWS V14.01,2013-05-30 15:53:00,
2013-05-30 11:54:00,94.6,46.0,30.09,SSW,202,3.8,3.8,19,0.00,,---,0.00,VWS V14.01,2013-05-30 15:54:00,
2013-05-30 11:55:00,95.0,46.3,30.09,SSW,202,2.9,3.8,19,0.00,,---,0.00,VWS V14.01,2013-05-30 15:55:00,
2013-05-30 11:56:00,94.6,46.0,30.09,SSW,202,3.8,4.0,19,0.00,,---,0.00,VWS V14.01,2013-05-30 15:56:00,
2013-05-30 11:57:00,94.1,44.2,30.09,NNW,338,3.8,3.8,18,0.00,,---,0.00,VWS V14.01,2013-05-30 15:57:00,
2013-05-30 11:58:00,93.6,45.2,30.09,SSE,158,3.4,5.4,19,0.00,,---,0.00,VWS V14.01,2013-05-30 15:58:00,
2013-05-30 11:59:00,92.8,44.6,30.09,SSE,158,1.6,6.5,19,0.00,,---,0.00,VWS V14.01,2013-05-30 15:59:00,
2013-05-30 12:00:00,93.6,45.2,30.09,North,0,3.6,3.6,19,0.00,,---,0.00,VWS V14.01,2013-05-30 16:00:00,
2013-05-30 12:01:00,93.6,45.2,30.09,SSW,202,6.5,6.5,19,0.00,,---,0.00,VWS V14.01,2013-05-30 16:01:00,
2013-05-30 12:02:00,92.8,44.6,30.06,SW,225,2.7,6.5,19,0.00,,---,0.00,VWS V14.01,2013-05-30 16:02:00,
2013-05-30 12:03:00,91.9,45.2,30.06,SSW,202,4.9,5.8,20,0.00,,---,0.00,VWS V14.01,2013-05-30 16:03:00,
2013-05-30 12:04:00,91.8,45.0,30.06,ENE,68,1.1,2.0,20,0.00,,---,0.00,VWS V14.01,2013-05-30 16:04:00,
2013-05-30 12:05:00,91.0,44.4,30.06,South,180,3.4,7.6,20,0.00,,---,0.00,VWS V14.01,2013-05-30 16:05:00,
2013-05-30 12:06:00,91.0,45.7,30.06,WNW,292,1.6,3.4,21,0.00,,---,0.00,VWS V14.01,2013-05-30 16:06:00,
2013-05-30 12:07:00,91.8,45.0,30.06,ENE,68,3.1,3.1,20,0.00,,---,0.00,VWS V14.01,2013-05-30 16:07:00,
2013-05-30 12:08:00,92.3,46.8,30.06,SSW,202,0.9,3.1,21,0.00,,---,0.00,VWS V14.01,2013-05-30 16:08:00,
2013-05-30 12:09:00,91.6,46.2,30.06,SW,225,2.5,2.7,21,0.00,,---,0.00,VWS V14.01,2013-05-30 16:09:00,
2013-05-30 12:10:00,92.1,46.6,30.06,NE,45,3.8,3.8,21,0.00,,---,0.00,VWS V14.01,2013-05-30 16:10:00,
2013-05-30 12:11:00,91.6,46.2,30.06,SSW,202,2.7,3.8,21,0.00,,---,0.00,VWS V14.01,2013-05-30 16:11:00,
2013-05-30 12:12:00,91.8,46.3,30.06,SW,225,2.5,2.7,21,0.00,,---,0.00,VWS V14.01,2013-05-30 16:12:00,
2013-05-30 12:13:00,91.9,46.5,30.06,NNE,22,5.8,5.8,21,0.00,,---,0.00,VWS V14.01,2013-05-30 16:13:00,
2013-05-30 12:14:00,91.4,46.0,30.06,ESE,112,2.0,2.5,21,0.00,,---,0.00,VWS V14.01,2013-05-30 16:14:00,
2013-05-30 12:15:00,91.6,46.2,30.06,NE,45,1.6,6.9,21,0.00,,---,0.00,VWS V14.01,2013-05-30 16:15:00,
2013-05-30 12:16:00,91.6,46.2,30.06,SSE,158,2.5,4.9,21,0.00,,---,0.00,VWS V14.01,2013-05-30 16:16:00,
2013-05-30 12:17:00,91.4,46.0,30.06,NW,315,2.7,2.7,21,0.00,,---,0.00,VWS V14.01,2013-05-30 16:17:00,
2013-05-30 12:18:00,91.2,47.1,30.06,SSW,202,2.2,3.4,22,0.00,,---,0.00,VWS V14.01,2013-05-30 16:18:00,
2013-05-30 12:19:00,91.2,47.1,30.06,SSW,202,3.4,3.4,22,0.00,,---,0.00,VWS V14.01,2013-05-30 16:19:00,
2013-05-30 12:20:00,91.4,46.0,30.06,SSW,202,3.1,3.4,21,0.00,,---,0.00,VWS V14.01,2013-05-30 16:20:00,
2013-05-30 12:21:00,91.2,47.1,30.06,SSW,202,2.5,3.8,22,0.00,,---,0.00,VWS V14.01,2013-05-30 16:21:00,
2013-05-30 12:22:00,90.7,46.7,30.06,NW,315,2.7,5.6,22,0.00,,---,0.00,VWS V14.01,2013-05-30 16:22:00,
2013-05-30 12:23:00,90.3,46.3,30.06,NE,45,3.1,3.1,22,0.00,,---,0.00,VWS V14.01,2013-05-30 16:23:00,
2013-05-30 12:24:00,90.5,47.7,30.06,SE,135,2.7,3.6,23,0.00,,---,0.00,VWS V14.01,2013-05-30 16:24:00,
2013-05-30 12:25:00,90.7,47.8,30.06,SSE,158,1.6,2.0,23,0.00,,---,0.00,VWS V14.01,2013-05-30 16:25:00,
2013-05-30 12:26:00,90.5,47.7,30.06,SSE,158,3.6,4.3,23,0.00,,---,0.00,VWS V14.01,2013-05-30 16:26:00,
2013-05-30 12:27:00,90.3,47.5,30.06,SSW,202,3.6,5.6,23,0.00,,---,0.00,VWS V14.01,2013-05-30 16:27:00,
2013-05-30 12:28:00,90.0,47.2,30.06,SSE,158,3.1,5.6,23,0.00,,---,0.00,VWS V14.01,2013-05-30 16:28:00,
2013-05-30 12:29:00,90.1,48.5,30.06,SSW,202,2.5,4.7,24,0.00,,---,0.00,VWS V14.01,2013-05-30 16:29:00,
2013-05-30 12:30:00,90.1,48.5,30.06,SW,225,0.0,3.8,24,0.00,,---,0.00,VWS V14.01,2013-05-30 16:30:00,
2013-05-30 12:31:00,90.3,49.8,30.06,WSW,248,4.7,5.6,25,0.00,,---,0.00,VWS V14.01,2013-05-30 16:31:00,
2013-05-30 12:32:00,90.1,48.5,30.06,SSE,158,2.9,4.7,24,0.00,,---,0.00,VWS V14.01,2013-05-30 16:32:00,
2013-05-30 12:33:00,89.6,48.1,30.06,North,0,3.4,6.3,24,0.00,,---,0.00,VWS V14.01,2013-05-30 16:33:00,
2013-05-30 12:34:00,89.4,49.0,30.06,NE,45,1.3,4.7,25,0.00,,---,0.00,VWS V14.01,2013-05-30 16:34:00,
2013-05-30 12:35:00,89.4,49.0,30.06,SSW,202,6.0,6.0,25,0.00,,---,0.00,VWS V14.01,2013-05-30 16:35:00,
2013-05-30 12:36:00,89.4,49.0,30.06,West,270,4.7,6.0,25,0.00,,---,0.00,VWS V14.01,2013-05-30 16:36:00,
2013-05-30 12:37:00,89.6,49.2,30.06,SSW,202,0.9,4.7,25,0.00,,---,0.00,VWS V14.01,2013-05-30 16:37:00,
2013-05-30 12:38:00,90.3,50.8,30.06,SSW,202,2.7,4.0,26,0.00,,---,0.00,VWS V14.01,2013-05-30 16:38:00,
2013-05-30 12:39:00,93.0,50.9,30.06,East,90,4.9,4.9,24,0.00,,---,0.00,VWS V14.01,2013-05-30 16:39:00,
2013-05-30 12:40:00,92.5,50.5,30.06,WSW,248,4.9,5.4,24,0.00,,---,0.00,VWS V14.01,2013-05-30 16:40:00,
2013-05-30 12:41:00,93.0,50.9,30.06,NNE,22,1.3,4.9,24,0.00,,---,0.00,VWS V14.01,2013-05-30 16:41:00,
2013-05-30 12:42:00,93.7,50.4,30.06,SW,225,0.9,4.9,23,0.00,,---,0.00,VWS V14.01,2013-05-30 16:42:00,
2013-05-30 12:43:00,94.6,51.1,30.06,ESE,112,0.0,2.2,23,0.00,,---,0.00,VWS V14.01,2013-05-30 16:43:00,
2013-05-30 12:44:00,96.1,49.9,30.06,WNW,292,2.0,2.0,21,0.00,,---,0.00,VWS V14.01,2013-05-30 16:44:00,
2013-05-30 12:45:00,95.0,49.0,30.06,ESE,112,2.7,4.9,21,0.00,,---,0.00,VWS V14.01,2013-05-30 16:45:00,
2013-05-30 12:46:00,95.4,49.3,30.06,WNW,292,2.0,2.7,21,0.00,,---,0.00,VWS V14.01,2013-05-30 16:46:00,
2013-05-30 12:47:00,96.1,49.9,30.06,NNW,338,3.4,3.4,21,0.00,,---,0.00,VWS V14.01,2013-05-30 16:47:00,
2013-05-30 12:48:00,96.4,50.2,30.06,SSE,158,2.0,3.8,21,0.00,,---,0.00,VWS V14.01,2013-05-30 16:48:00,
2013-05-30 12:49:00,96.6,49.0,30.06,SSW,202,1.6,2.2,20,0.00,,---,0.00,VWS V14.01,2013-05-30 16:49:00,
2013-05-30 12:50:00,97.2,49.5,30.06,SW,225,2.7,5.4,20,0.00,,---,0.00,VWS V14.01,2013-05-30 16:50:00,
2013-05-30 12:51:00,96.6,49.0,30.06,NNW,338,2.2,5.4,20,0.00,,---,0.00,VWS V14.01,2013-05-30 16:51:00,
2013-05-30 12:52:00,96.1,48.6,30.06,SSE,158,2.2,2.7,20,0.00,,---,0.00,VWS V14.01,2013-05-30 16:52:00,
2013-05-30 12:53:00,96.1,48.6,30.06,NNW,338,2.2,2.2,20,0.00,,---,0.00,VWS V14.01,2013-05-30 16:53:00,
2013-05-30 12:54:00,96.1,48.6,30.06,SSW,202,3.1,3.1,20,0.00,,---,0.00,VWS V14.01,2013-05-30 16:54:00,
2013-05-30 12:55:00,97.0,47.9,30.06,SW,225,3.1,3.1,19,0.00,,---,0.00,VWS V14.01,2013-05-30 16:55:00,
2013-05-30 12:56:00,96.1,48.6,30.06,SSW,202,2.7,3.6,20,0.00,,---,0.00,VWS V14.01,2013-05-30 16:56:00,
2013-05-30 12:57:00,95.9,47.0,30.06,West,270,1.6,5.8,19,0.00,,---,0.00,VWS V14.01,2013-05-30 16:57:00,
2013-05-30 12:58:00,95.9,47.0,30.06,SSW,202,2.7,3.8,19,0.00,,---,0.00,VWS V14.01,2013-05-30 16:58:00,
2013-05-30 12:59:00,97.0,47.9,30.06,SE,135,2.0,2.0,19,0.00,,---,0.00,VWS V14.01,2013-05-30 16:59:00,
2013-05-30 13:00:00,97.0,47.9,30.06,SSE,158,2.9,3.1,19,0.00,,---,0.00,VWS V14.01,2013-05-30 17:00:00,
2013-05-30 13:01:00,97.2,48.1,30.06,ESE,112,2.0,3.8,19,0.00,,---,0.00,VWS V14.01,2013-05-30 17:01:00,
2013-05-30 13:02:00,97.0,47.9,30.03,West,270,2.9,2.9,19,0.00,,---,0.00,VWS V14.01,2013-05-30 17:02:00,
2013-05-30 13:03:00,96.4,46.1,30.03,SW,225,4.7,6.5,18,0.00,,---,0.00,VWS V14.01,2013-05-30 17:03:00,
2013-05-30 13:04:00,97.5,45.4,30.03,East,90,4.0,4.0,17,0.00,,---,0.00,VWS V14.01,2013-05-30 17:04:00,
2013-05-30 13:05:00,97.2,45.1,30.03,WSW,248,1.6,4.0,17,0.00,,---,0.00,VWS V14.01,2013-05-30 17:05:00,
2013-05-30 13:06:00,97.5,45.4,30.03,NE,45,3.6,3.6,17,0.00,,---,0.00,VWS V14.01,2013-05-30 17:06:00,
2013-05-30 13:07:00,97.3,45.3,30.03,SW,225,1.1,8.7,17,0.00,,---,0.00,VWS V14.01,2013-05-30 17:07:00,
2013-05-30 13:08:00,97.3,45.3,30.03,ENE,68,3.6,5.6,17,0.00,,---,0.00,VWS V14.01,2013-05-30 17:08:00,
2013-05-30 13:09:00,98.4,46.1,30.03,South,180,2.9,2.9,17,0.00,,---,0.00,VWS V14.01,2013-05-30 17:09:00,
2013-05-30 13:10:00,98.2,46.0,30.03,SSW,202,1.1,4.3,17,0.00,,---,0.00,VWS V14.01,2013-05-30 17:10:00,
2013-05-30 13:11:00,98.2,46.0,30.03,East,90,2.9,4.0,17,0.00,,---,0.00,VWS V14.01,2013-05-30 17:11:00,
2013-05-30 13:12:00,98.2,46.0,30.03,WNW,292,3.8,3.8,17,0.00,,---,0.00,VWS V14.01,2013-05-30 17:12:00,
2013-05-30 13:13:00,98.2,46.0,30.03,NNW,338,2.7,3.8,17,0.00,,---,0.00,VWS V14.01,2013-05-30 17:13:00,
2013-05-30 13:14:00,98.8,44.8,30.03,SW,225,2.7,5.4,16,0.00,,---,0.00,VWS V14.01,2013-05-30 17:14:00,
2013-05-30 13:15:00,99.1,45.1,30.03,South,180,4.3,4.3,16,0.00,,---,0.00,VWS V14.01,2013-05-30 17:15:00,
2013-05-30 13:16:00,98.8,44.8,30.03,SSW,202,5.4,5.4,16,0.00,,---,0.00,VWS V14.01,2013-05-30 17:16:00,
2013-05-30 13:17:00,98.8,44.8,30.03,WSW,248,2.7,5.4,16,0.00,,---,0.00,VWS V14.01,2013-05-30 17:17:00,
2013-05-30 13:18:00,97.5,45.4,30.03,WNW,292,1.3,7.2,17,0.00,,---,0.00,VWS V14.01,2013-05-30 17:18:00,
2013-05-30 13:19:00,96.6,44.7,30.03,WNW,292,2.5,2.5,17,0.00,,---,0.00,VWS V14.01,2013-05-30 17:19:00,
2013-05-30 13:20:00,96.4,44.6,30.03,ENE,68,3.8,10.3,17,0.00,,---,0.00,VWS V14.01,2013-05-30 17:20:00,
2013-05-30 13:21:00,96.6,44.7,30.03,NNE,22,2.0,4.9,17,0.00,,---,0.00,VWS V14.01,2013-05-30 17:21:00,
2013-05-30 13:22:00,97.0,45.0,30.03,West,270,3.8,3.8,17,0.00,,---,0.00,VWS V14.01,2013-05-30 17:22:00,
2013-05-30 13:23:00,97.0,46.5,30.03,South,180,3.8,3.8,18,0.00,,---,0.00,VWS V14.01,2013-05-30 17:23:00,
2013-05-30 13:24:00,95.9,45.6,30.03,NNW,338,6.0,9.4,18,0.00,,---,0.00,VWS V14.01,2013-05-30 17:24:00,
2013-05-30 13:25:00,97.0,45.0,30.03,West,270,6.5,9.8,17,0.00,,---,0.00,VWS V14.01,2013-05-30 17:25:00,
2013-05-30 13:26:00,95.9,45.6,30.03,ENE,68,9.4,9.4,18,0.00,,---,0.00,VWS V14.01,2013-05-30 17:26:00,
2013-05-30 13:27:00,95.9,45.6,30.03,SW,225,4.9,9.4,18,0.00,,---,0.00,VWS V14.01,2013-05-30 17:27:00,
2013-05-30 13:28:00,96.3,45.9,30.03,ENE,68,3.6,4.9,18,0.00,,---,0.00,VWS V14.01,2013-05-30 17:28:00,
2013-05-30 13:29:00,97.2,45.1,30.06,ESE,112,6.0,6.0,17,0.00,,---,0.00,VWS V14.01,2013-05-30 17:29:00,
2013-05-30 13:30:00,97.0,45.0,30.03,WNW,292,3.1,3.1,17,0.00,,---,0.00,VWS V14.01,2013-05-30 17:30:00,
2013-05-30 13:31:00,97.0,45.0,30.03,NW,315,1.3,4.0,17,0.00,,---,0.00,VWS V14.01,2013-05-30 17:31:00,
2013-05-30 13:32:00,97.2,45.1,30.06,East,90,5.8,6.0,17,0.00,,---,0.00,VWS V14.01,2013-05-30 17:32:00,
2013-05-30 13:33:00,96.6,44.7,30.06,SSE,158,1.1,5.8,17,0.00,,---,0.00,VWS V14.01,2013-05-30 17:33:00,
2013-05-30 13:34:00,97.2,45.1,30.06,South,180,1.3,5.8,17,0.00,,---,0.00,VWS V14.01,2013-05-30 17:34:00,
2013-05-30 13:35:00,97.2,45.1,30.06,SSW,202,2.5,3.4,17,0.00,,---,0.00,VWS V14.01,2013-05-30 17:35:00,
2013-05-30 13:36:00,97.0,45.0,30.06,SSW,202,5.8,5.8,17,0.00,,---,0.00,VWS V14.01,2013-05-30 17:36:00,
2013-05-30 13:37:00,97.2,45.1,30.06,ESE,112,1.6,5.8,17,0.00,,---,0.00,VWS V14.01,2013-05-30 17:37:00,
2013-05-30 13:38:00,97.0,45.0,30.06,ENE,68,3.1,4.7,17,0.00,,---,0.00,VWS V14.01,2013-05-30 17:38:00,
2013-05-30 13:39:00,97.0,45.0,30.06,SSE,158,2.5,2.5,17,0.00,,---,0.00,VWS V14.01,2013-05-30 17:39:00,
2013-05-30 13:40:00,96.4,44.6,30.06,South,180,3.6,6.9,17,0.00,,---,0.00,VWS V14.01,2013-05-30 17:40:00,
2013-05-30 13:41:00,97.0,45.0,30.06,SSW,202,1.3,3.6,17,0.00,,---,0.00,VWS V14.01,2013-05-30 17:41:00,
2013-05-30 13:42:00,97.0,45.0,30.06,SSW,202,2.2,2.5,17,0.00,,---,0.00,VWS V14.01,2013-05-30 17:42:00,
2013-05-30 13:43:00,96.3,45.9,30.06,NNW,338,3.4,3.8,18,0.00,,---,0.00,VWS V14.01,2013-05-30 17:43:00,
2013-05-30 13:44:00,96.4,46.1,30.06,SE,135,5.6,6.9,18,0.00,,---,0.00,VWS V14.01,2013-05-30 17:44:00,
2013-05-30 13:45:00,96.6,46.2,30.06,North,0,2.7,3.4,18,0.00,,---,0.00,VWS V14.01,2013-05-30 17:45:00,
2013-05-30 13:46:00,96.4,46.1,30.06,SSE,158,4.0,4.3,18,0.00,,---,0.00,VWS V14.01,2013-05-30 17:46:00,
2013-05-30 13:47:00,96.4,46.1,30.06,SE,135,1.6,6.9,18,0.00,,---,0.00,VWS V14.01,2013-05-30 17:47:00,
2013-05-30 13:48:00,96.3,45.9,30.06,SSW,202,1.6,3.6,18,0.00,,---,0.00,VWS V14.01,2013-05-30 17:48:00,
2013-05-30 13:49:00,96.8,46.3,30.06,SSW,202,3.1,7.4,18,0.00,,---,0.00,VWS V14.01,2013-05-30 17:49:00,
2013-05-30 13:50:00,97.0,46.5,30.06,East,90,3.1,3.1,18,0.00,,---,0.00,VWS V14.01,2013-05-30 17:50:00,
2013-05-30 13:51:00,96.8,46.3,30.06,South,180,3.4,3.4,18,0.00,,---,0.00,VWS V14.01,2013-05-30 17:51:00,
2013-05-30 13:52:00,95.5,45.3,30.06,SW,225,2.7,7.4,18,0.00,,---,0.00,VWS V14.01,2013-05-30 17:52:00,
2013-05-30 13:53:00,95.0,44.9,30.06,SSW,202,2.0,2.7,18,0.00,,---,0.00,VWS V14.01,2013-05-30 17:53:00,
2013-05-30 13:54:00,93.4,43.6,30.06,SSW,202,4.0,4.0,18,0.00,,---,0.00,VWS V14.01,2013-05-30 17:54:00,
2013-05-30 13:55:00,94.3,45.7,30.06,SSW,202,3.8,4.0,19,0.00,,---,0.00,VWS V14.01,2013-05-30 17:55:00,
2013-05-30 13:56:00,93.4,43.6,30.06,SSW,202,3.6,6.3,18,0.00,,---,0.00,VWS V14.01,2013-05-30 17:56:00,
2013-05-30 13:57:00,91.9,43.8,30.06,SSW,202,2.9,4.0,19,0.00,,---,0.00,VWS V14.01,2013-05-30 17:57:00,
2013-05-30 13:58:00,92.3,44.1,30.06,NE,45,2.7,4.3,19,0.00,,---,0.00,VWS V14.01,2013-05-30 17:58:00,
2013-05-30 13:59:00,92.8,44.6,30.06,SSE,158,4.9,4.9,19,0.00,,---,0.00,VWS V14.01,2013-05-30 17:59:00,
2013-05-30 14:00:00,92.7,44.4,30.06,NNE,22,3.4,6.0,19,0.00,,---,0.00,VWS V14.01,2013-05-30 18:00:00,
2013-05-30 14:01:00,92.7,44.4,30.06,SSW,202,2.9,5.4,19,0.00,,---,0.00,VWS V14.01,2013-05-30 18:01:00,
2013-05-30 14:02:00,92.8,44.6,30.03,South,180,6.9,6.9,19,0.00,,---,0.00,VWS V14.01,2013-05-30 18:02:00,
2013-05-30 14:03:00,92.1,44.0,30.03,West,270,6.5,10.5,19,0.00,,---,0.00,VWS V14.01,2013-05-30 18:03:00,
2013-05-30 14:04:00,94.3,45.7,30.03,South,180,4.9,4.9,19,0.00,,---,0.00,VWS V14.01,2013-05-30 18:04:00,
2013-05-30 14:05:00,93.4,45.0,30.03,SSW,202,2.5,4.3,19,0.00,,---,0.00,VWS V14.01,2013-05-30 18:05:00,
2013-05-30 14:06:00,94.3,45.7,30.03,SSW,202,2.7,2.7,19,0.00,,---,0.00,VWS V14.01,2013-05-30 18:06:00,
2013-05-30 14:07:00,94.1,45.6,30.03,SSW,202,3.4,4.9,19,0.00,,---,0.00,VWS V14.01,2013-05-30 18:07:00,
2013-05-30 14:08:00,93.7,45.3,30.03,South,180,5.8,5.8,19,0.00,,---,0.00,VWS V14.01,2013-05-30 18:08:00,
2013-05-30 14:09:00,95.4,46.6,30.03,SW,225,1.3,6.0,19,0.00,,---,0.00,VWS V14.01,2013-05-30 18:09:00,
2013-05-30 14:10:00,94.6,46.0,30.03,SSW,202,3.1,3.1,19,0.00,,---,0.00,VWS V14.01,2013-05-30 18:10:00,
2013-05-30 14:11:00,95.2,46.5,30.03,NNE,22,6.0,6.0,19,0.00,,---,0.00,VWS V14.01,2013-05-30 18:11:00,
2013-05-30 14:12:00,95.4,46.6,30.03,ENE,68,3.8,6.0,19,0.00,,---,0.00,VWS V14.01,2013-05-30 18:12:00,
2013-05-30 14:13:00,95.5,46.8,30.03,West,270,5.4,5.6,19,0.00,,---,0.00,VWS V14.01,2013-05-30 18:13:00,
2013-05-30 14:14:00,94.8,46.2,30.03,SSW,202,1.3,1.3,19,0.00,,---,0.00,VWS V14.01,2013-05-30 18:14:00,
2013-05-30 14:15:00,95.7,45.5,30.03,SE,135,1.3,3.1,18,0.00,,---,0.00,VWS V14.01,2013-05-30 18:15:00,
2013-05-30 14:16:00,95.0,44.9,30.03,South,180,1.1,6.0,18,0.00,,---,0.00,VWS V14.01,2013-05-30 18:16:00,
2013-05-30 14:17:00,94.8,46.2,30.03,NNE,22,2.2,2.2,19,0.00,,---,0.00,VWS V14.01,2013-05-30 18:17:00,
2013-05-30 14:18:00,94.8,46.2,30.03,ENE,68,5.6,5.6,19,0.00,,---,0.00,VWS V14.01,2013-05-30 18:18:00,
2013-05-30 14:19:00,93.2,44.9,30.03,ESE,112,3.1,4.3,19,0.00,,---,0.00,VWS V14.01,2013-05-30 18:19:00,
2013-05-30 14:20:00,93.6,45.2,30.03,WNW,292,4.3,7.8,19,0.00,,---,0.00,VWS V14.01,2013-05-30 18:20:00,
2013-05-30 14:21:00,93.2,44.9,30.03,ESE,112,4.3,4.3,19,0.00,,---,0.00,VWS V14.01,2013-05-30 18:21:00,
2013-05-30 14:22:00,92.8,44.6,30.03,SSE,158,3.1,4.3,19,0.00,,---,0.00,VWS V14.01,2013-05-30 18:22:00,
2013-05-30 14:23:00,92.7,44.4,30.03,SSW,202,3.6,3.6,19,0.00,,---,0.00,VWS V14.01,2013-05-30 18:23:00,
2013-05-30 14:24:00,91.0,43.1,30.03,SE,135,1.6,2.9,19,0.00,,---,0.00,VWS V14.01,2013-05-30 18:24:00,
2013-05-30 14:25:00,92.1,44.0,30.03,SSE,158,3.8,5.4,19,0.00,,---,0.00,VWS V14.01,2013-05-30 18:25:00,
2013-05-30 14:26:00,91.0,43.1,30.03,SW,225,2.9,5.8,19,0.00,,---,0.00,VWS V14.01,2013-05-30 18:26:00,
2013-05-30 14:27:00,91.0,44.4,30.03,SE,135,2.2,2.9,20,0.00,,---,0.00,VWS V14.01,2013-05-30 18:27:00,
2013-05-30 14:28:00,90.7,44.1,30.03,NNW,338,2.0,4.0,20,0.00,,---,0.00,VWS V14.01,2013-05-30 18:28:00,
2013-05-30 14:29:00,90.5,45.3,30.03,WNW,292,2.9,4.7,21,0.00,,---,0.00,VWS V14.01,2013-05-30 18:29:00,
2013-05-30 14:30:00,90.5,44.0,30.03,ENE,68,4.9,7.2,20,0.00,,---,0.00,VWS V14.01,2013-05-30 18:30:00,
2013-05-30 14:31:00,90.3,45.1,30.03,SSE,158,2.7,7.6,21,0.00,,---,0.00,VWS V14.01,2013-05-30 18:31:00,
2013-05-30 14:32:00,90.5,45.3,30.03,ESE,112,4.0,4.7,21,0.00,,---,0.00,VWS V14.01,2013-05-30 18:32:00,
2013-05-30 14:33:00,90.1,46.2,30.03,ESE,112,1.3,7.8,22,0.00,,---,0.00,VWS V14.01,2013-05-30 18:33:00,
2013-05-30 14:34:00,91.4,48.4,30.03,ENE,68,3.1,3.1,23,0.00,,---,0.00,VWS V14.01,2013-05-30 18:34:00,
2013-05-30 14:35:00,91.2,48.3,30.03,ENE,68,3.4,3.8,23,0.00,,---,0.00,VWS V14.01,2013-05-30 18:35:00,
2013-05-30 14:36:00,91.4,48.4,30.03,ESE,112,2.5,5.4,23,0.00,,---,0.00,VWS V14.01,2013-05-30 18:36:00,
2013-05-30 14:37:00,91.2,48.3,30.03,SSE,158,3.8,4.7,23,0.00,,---,0.00,VWS V14.01,2013-05-30 18:37:00,
2013-05-30 14:38:00,91.2,48.3,30.03,ESE,112,1.6,3.8,23,0.00,,---,0.00,VWS V14.01,2013-05-30 18:38:00,
2013-05-30 14:39:00,90.1,48.5,30.03,ENE,68,7.2,7.2,24,0.00,,---,0.00,VWS V14.01,2013-05-30 18:39:00,
2013-05-30 14:40:00,91.0,49.3,30.03,ENE,68,4.7,4.7,24,0.00,,---,0.00,VWS V14.01,2013-05-30 18:40:00,
2013-05-30 14:41:00,90.7,49.0,30.03,ENE,68,7.2,7.2,24,0.00,,---,0.00,VWS V14.01,2013-05-30 18:41:00,
2013-05-30 14:42:00,89.8,48.2,30.03,NNW,338,3.4,7.4,24,0.00,,---,0.00,VWS V14.01,2013-05-30 18:42:00,
2013-05-30 14:43:00,89.6,49.2,30.03,East,90,5.4,5.4,25,0.00,,---,0.00,VWS V14.01,2013-05-30 18:43:00,
2013-05-30 14:44:00,89.1,49.8,30.03,NNE,22,3.6,7.8,26,0.00,,---,0.00,VWS V14.01,2013-05-30 18:44:00,
2013-05-30 14:45:00,89.2,49.9,30.03,NNE,22,1.1,6.0,26,0.00,,---,0.00,VWS V14.01,2013-05-30 18:45:00,
2013-05-30 14:46:00,89.2,49.9,30.03,ESE,112,7.8,7.8,26,0.00,,---,0.00,VWS V14.01,2013-05-30 18:46:00,
2013-05-30 14:47:00,89.1,49.8,30.06,NE,45,5.4,7.8,26,0.00,,---,0.00,VWS V14.01,2013-05-30 18:47:00,
2013-05-30 14:48:00,88.5,50.3,30.06,NNW,338,7.6,7.6,27,0.00,,---,0.00,VWS V14.01,2013-05-30 18:48:00,
2013-05-30 14:49:00,88.2,51.0,30.06,NNE,22,2.2,4.3,28,0.00,,---,0.00,VWS V14.01,2013-05-30 18:49:00,
2013-05-30 14:50:00,88.2,51.0,30.06,ENE,68,3.4,3.8,28,0.00,,---,0.00,VWS V14.01,2013-05-30 18:50:00,
2013-05-30 14:51:00,88.2,51.0,30.06,East,90,4.3,4.3,28,0.00,,---,0.00,VWS V14.01,2013-05-30 18:51:00,
2013-05-30 14:52:00,88.3,51.1,30.06,East,90,2.5,4.3,28,0.00,,---,0.00,VWS V14.01,2013-05-30 18:52:00,
2013-05-30 14:53:00,88.3,51.1,30.06,East,90,4.0,4.0,28,0.00,,---,0.00,VWS V14.01,2013-05-30 18:53:00,
2013-05-30 14:54:00,87.6,51.5,30.06,ENE,68,3.4,3.4,29,0.00,,---,0.00,VWS V14.01,2013-05-30 18:54:00,
2013-05-30 14:55:00,88.0,50.8,30.06,NNW,338,3.6,6.0,28,0.00,,---,0.00,VWS V14.01,2013-05-30 18:55:00,
2013-05-30 14:56:00,87.8,50.7,30.06,ESE,112,3.1,4.3,28,0.00,,---,0.00,VWS V14.01,2013-05-30 18:56:00,
2013-05-30 14:57:00,87.6,51.5,30.06,SW,225,1.6,3.4,29,0.00,,---,0.00,VWS V14.01,2013-05-30 18:57:00,
2013-05-30 14:58:00,87.4,51.3,30.06,SE,135,3.6,3.6,29,0.00,,---,0.00,VWS V14.01,2013-05-30 18:58:00,
2013-05-30 14:59:00,87.3,51.2,30.06,NNE,22,3.1,3.4,29,0.00,,---,0.00,VWS V14.01,2013-05-30 18:59:00,
2013-05-30 15:00:00,87.4,51.3,30.06,ESE,112,5.6,5.6,29,0.00,,---,0.00,VWS V14.01,2013-05-30 19:00:00,
2013-05-30 15:01:00,87.3,51.2,30.06,ESE,112,2.9,5.6,29,0.00,,---,0.00,VWS V14.01,2013-05-30 19:01:00,
2013-05-30 15:02:00,87.3,51.2,30.03,East,90,0.0,3.4,29,0.00,,---,0.00,VWS V14.01,2013-05-30 19:02:00,
2013-05-30 15:03:00,87.4,51.3,30.03,SSE,158,5.6,5.6,29,0.00,,---,0.00,VWS V14.01,2013-05-30 19:03:00,
2013-05-30 15:04:00,87.1,51.9,30.03,ENE,68,2.2,4.0,30,0.00,,---,0.00,VWS V14.01,2013-05-30 19:04:00,
2013-05-30 15:05:00,87.1,51.9,30.03,ESE,112,3.1,5.6,30,0.00,,---,0.00,VWS V14.01,2013-05-30 19:05:00,
2013-05-30 15:06:00,87.1,51.9,30.03,SE,135,4.0,4.3,30,0.00,,---,0.00,VWS V14.01,2013-05-30 19:06:00,
2013-05-30 15:07:00,87.3,52.1,30.03,NNE,22,1.6,4.0,30,0.00,,---,0.00,VWS V14.01,2013-05-30 19:07:00,
2013-05-30 15:08:00,87.4,52.2,30.03,ESE,112,5.4,5.8,30,0.00,,---,0.00,VWS V14.01,2013-05-30 19:08:00,
2013-05-30 15:09:00,87.8,51.6,30.03,East,90,2.0,4.9,29,0.00,,---,0.00,VWS V14.01,2013-05-30 19:09:00,
2013-05-30 15:10:00,87.3,52.1,30.03,SSE,158,1.6,7.6,30,0.00,,---,0.00,VWS V14.01,2013-05-30 19:10:00,
2013-05-30 15:11:00,87.6,52.4,30.03,WNW,292,4.9,4.9,30,0.00,,---,0.00,VWS V14.01,2013-05-30 19:11:00,
2013-05-30 15:12:00,88.0,51.8,30.03,NNW,338,5.8,5.8,29,0.00,,---,0.00,VWS V14.01,2013-05-30 19:12:00,
2013-05-30 15:13:00,88.2,51.9,30.03,NNW,338,2.5,5.8,29,0.00,,---,0.00,VWS V14.01,2013-05-30 19:13:00,
2013-05-30 15:14:00,89.4,53.0,30.03,ENE,68,4.3,4.3,29,0.00,,---,0.00,VWS V14.01,2013-05-30 19:14:00,
2013-05-30 15:15:00,89.1,52.7,30.03,ENE,68,2.7,2.9,29,0.00,,---,0.00,VWS V14.01,2013-05-30 19:15:00,
2013-05-30 15:16:00,89.4,53.0,30.03,ESE,112,1.3,4.0,29,0.00,,---,0.00,VWS V14.01,2013-05-30 19:16:00,
2013-05-30 15:17:00,89.6,53.2,30.03,East,90,2.9,4.3,29,0.00,,---,0.00,VWS V14.01,2013-05-30 19:17:00,
2013-05-30 15:18:00,89.8,52.4,30.03,ENE,68,4.0,4.0,28,0.00,,---,0.00,VWS V14.01,2013-05-30 19:18:00,
2013-05-30 15:19:00,91.6,52.9,30.03,SE,135,1.6,2.9,27,0.00,,---,0.00,VWS V14.01,2013-05-30 19:19:00,
2013-05-30 15:20:00,91.0,53.4,30.03,East,90,1.3,8.5,28,0.00,,---,0.00,VWS V14.01,2013-05-30 19:20:00,
2013-05-30 15:21:00,91.6,52.9,30.03,SE,135,2.9,3.4,27,0.00,,---,0.00,VWS V14.01,2013-05-30 19:21:00,
2013-05-30 15:22:00,92.3,53.5,30.03,SSE,158,2.9,2.9,27,0.00,,---,0.00,VWS V14.01,2013-05-30 19:22:00,
2013-05-30 15:23:00,92.7,53.8,30.03,ESE,112,2.5,3.6,27,0.00,,---,0.00,VWS V14.01,2013-05-30 19:23:00,
2013-05-30 15:24:00,93.7,53.7,30.03,South,180,5.6,5.6,26,0.00,,---,0.00,VWS V14.01,2013-05-30 19:24:00,
2013-05-30 15:25:00,93.2,54.3,30.03,East,90,4.9,4.9,27,0.00,,---,0.00,VWS V14.01,2013-05-30 19:25:00,
2013-05-30 15:26:00,93.7,53.7,30.03,NE,45,3.6,4.9,26,0.00,,---,0.00,VWS V14.01,2013-05-30 19:26:00,
2013-05-30 15:27:00,93.7,53.7,30.03,SSE,158,3.1,5.6,26,0.00,,---,0.00,VWS V14.01,2013-05-30 19:27:00,
2013-05-30 15:28:00,93.7,52.6,30.03,SSE,158,3.8,5.6,25,0.00,,---,0.00,VWS V14.01,2013-05-30 19:28:00,
2013-05-30 15:29:00,93.6,51.4,30.03,WNW,292,4.3,4.9,24,0.00,,---,0.00,VWS V14.01,2013-05-30 19:29:00,
2013-05-30 15:30:00,93.7,51.5,30.03,SW,225,2.5,3.6,24,0.00,,---,0.00,VWS V14.01,2013-05-30 19:30:00,
2013-05-30 15:31:00,93.6,51.4,30.03,SE,135,4.9,6.0,24,0.00,,---,0.00,VWS V14.01,2013-05-30 19:31:00,
2013-05-30 15:32:00,93.2,51.1,30.03,SW,225,2.0,4.9,24,0.00,,---,0.00,VWS V14.01,2013-05-30 19:32:00,
2013-05-30 15:33:00,93.4,51.2,30.03,NE,45,6.7,6.7,24,0.00,,---,0.00,VWS V14.01,2013-05-30 19:33:00,
2013-05-30 15:34:00,93.4,50.1,30.03,NNE,22,1.6,1.6,23,0.00,,---,0.00,VWS V14.01,2013-05-30 19:34:00,
2013-05-30 15:35:00,93.2,51.1,30.03,WNW,292,4.0,4.0,24,0.00,,---,0.00,VWS V14.01,2013-05-30 19:35:00,
2013-05-30 15:36:00,93.4,50.1,30.03,NNE,22,1.6,4.0,23,0.00,,---,0.00,VWS V14.01,2013-05-30 19:36:00,
2013-05-30 15:37:00,93.6,50.2,30.03,East,90,1.6,3.8,23,0.00,,---,0.00,VWS V14.01,2013-05-30 19:37:00,
2013-05-30 15:38:00,93.6,50.2,30.03,West,270,3.8,3.8,23,0.00,,---,0.00,VWS V14.01,2013-05-30 19:38:00,
2013-05-30 15:39:00,93.9,49.3,30.03,ENE,68,4.0,4.7,22,0.00,,---,0.00,VWS V14.01,2013-05-30 19:39:00,
2013-05-30 15:40:00,93.7,49.2,30.03,SE,135,1.6,7.6,22,0.00,,---,0.00,VWS V14.01,2013-05-30 19:40:00,
2013-05-30 15:41:00,93.7,49.2,30.03,ESE,112,4.7,6.3,22,0.00,,---,0.00,VWS V14.01,2013-05-30 19:41:00,
2013-05-30 15:42:00,93.9,49.3,30.03,NE,45,3.1,4.7,22,0.00,,---,0.00,VWS V14.01,2013-05-30 19:42:00,
2013-05-30 15:43:00,94.3,48.4,30.03,East,90,2.7,3.8,21,0.00,,---,0.00,VWS V14.01,2013-05-30 19:43:00,
2013-05-30 15:44:00,95.2,47.8,30.03,NNE,22,2.5,2.5,20,0.00,,---,0.00,VWS V14.01,2013-05-30 19:44:00,
2013-05-30 15:45:00,94.8,48.8,30.03,East,90,1.6,2.9,21,0.00,,---,0.00,VWS V14.01,2013-05-30 19:45:00,
2013-05-30 15:46:00,95.2,47.8,30.03,NNE,22,1.6,2.2,20,0.00,,---,0.00,VWS V14.01,2013-05-30 19:46:00,
2013-05-30 15:47:00,95.2,47.8,30.03,ESE,112,2.0,2.5,20,0.00,,---,0.00,VWS V14.01,2013-05-30 19:47:00,
2013-05-30 15:48:00,95.9,48.4,30.03,West,270,2.2,2.2,20,0.00,,---,0.00,VWS V14.01,2013-05-30 19:48:00,
2013-05-30 15:49:00,94.8,48.8,30.03,SSE,158,3.8,3.8,21,0.00,,---,0.00,VWS V14.01,2013-05-30 19:49:00,
2013-05-30 15:50:00,94.8,47.5,30.03,NNW,338,6.3,6.3,20,0.00,,---,0.00,VWS V14.01,2013-05-30 19:50:00,
2013-05-30 15:51:00,94.8,48.8,30.03,North,0,2.5,6.3,21,0.00,,---,0.00,VWS V14.01,2013-05-30 19:51:00,
2013-05-30 15:52:00,94.1,48.2,30.03,ENE,68,3.8,7.8,21,0.00,,---,0.00,VWS V14.01,2013-05-30 19:52:00,
2013-05-30 15:53:00,93.9,48.1,30.03,NNE,22,2.7,3.8,21,0.00,,---,0.00,VWS V14.01,2013-05-30 19:53:00,
2013-05-30 15:54:00,93.9,46.8,30.03,SSE,158,1.6,2.0,20,0.00,,---,0.00,VWS V14.01,2013-05-30 19:54:00,
2013-05-30 15:55:00,93.9,48.1,30.03,East,90,8.1,8.1,21,0.00,,---,0.00,VWS V14.01,2013-05-30 19:55:00,
2013-05-30 15:56:00,93.7,46.7,30.03,East,90,2.0,8.1,20,0.00,,---,0.00,VWS V14.01,2013-05-30 19:56:00,
2013-05-30 15:57:00,94.5,48.5,30.03,West,270,3.1,3.1,21,0.00,,---,0.00,VWS V14.01,2013-05-30 19:57:00,
2013-05-30 15:58:00,94.1,48.2,30.03,NNE,22,2.0,3.8,21,0.00,,---,0.00,VWS V14.01,2013-05-30 19:58:00,
2013-05-30 15:59:00,92.8,47.2,30.03,East,90,3.6,3.6,21,0.00,,---,0.00,VWS V14.01,2013-05-30 19:59:00,
2013-05-30 16:00:00,93.4,46.4,30.03,ESE,112,1.6,5.4,20,0.00,,---,0.00,VWS V14.01,2013-05-30 20:00:00,
2013-05-30 16:01:00,92.8,47.2,30.03,East,90,3.6,5.8,21,0.00,,---,0.00,VWS V14.01,2013-05-30 20:01:00,
2013-05-30 16:02:00,92.3,46.8,30.03,SE,135,3.6,5.4,21,0.00,,---,0.00,VWS V14.01,2013-05-30 20:02:00,
2013-05-30 16:03:00,92.3,46.8,30.03,SSE,158,2.9,4.0,21,0.00,,---,0.00,VWS V14.01,2013-05-30 20:03:00,
2013-05-30 16:04:00,91.0,47.0,30.03,NNW,338,3.8,3.8,22,0.00,,---,0.00,VWS V14.01,2013-05-30 20:04:00,
2013-05-30 16:05:00,91.2,47.1,30.03,ESE,112,3.4,4.7,22,0.00,,---,0.00,VWS V14.01,2013-05-30 20:05:00,
2013-05-30 16:06:00,91.0,47.0,30.03,NW,315,2.5,3.6,22,0.00,,---,0.00,VWS V14.01,2013-05-30 20:06:00,
2013-05-30 16:07:00,90.7,46.7,30.03,ESE,112,2.0,3.8,22,0.00,,---,0.00,VWS V14.01,2013-05-30 20:07:00,
2013-05-30 16:08:00,90.7,46.7,30.03,WSW,248,1.3,2.0,22,0.00,,---,0.00,VWS V14.01,2013-05-30 20:08:00,
2013-05-30 16:09:00,90.5,47.7,30.03,WNW,292,3.8,3.8,23,0.00,,---,0.00,VWS V14.01,2013-05-30 20:09:00,
2013-05-30 16:10:00,90.7,46.7,30.03,SW,225,1.6,2.2,22,0.00,,---,0.00,VWS V14.01,2013-05-30 20:10:00,
2013-05-30 16:11:00,90.7,47.8,30.03,West,270,2.9,2.9,23,0.00,,---,0.00,VWS V14.01,2013-05-30 20:11:00,
2013-05-30 16:12:00,90.5,47.7,30.03,SE,135,0.0,3.8,23,0.00,,---,0.00,VWS V14.01,2013-05-30 20:12:00,
2013-05-30 16:13:00,91.2,48.3,30.03,ENE,68,2.5,2.5,23,0.00,,---,0.00,VWS V14.01,2013-05-30 20:13:00,
2013-05-30 16:14:00,90.9,48.0,30.03,East,90,2.5,2.5,23,0.00,,---,0.00,VWS V14.01,2013-05-30 20:14:00,
2013-05-30 16:15:00,91.0,49.3,30.03,SSE,158,2.7,3.6,24,0.00,,---,0.00,VWS V14.01,2013-05-30 20:15:00,
2013-05-30 16:16:00,90.9,48.0,30.03,East,90,2.5,5.8,23,0.00,,---,0.00,VWS V14.01,2013-05-30 20:16:00,
2013-05-30 16:17:00,91.2,48.3,30.03,ESE,112,3.1,3.6,23,0.00,,---,0.00,VWS V14.01,2013-05-30 20:17:00,
2013-05-30 16:18:00,91.4,48.4,30.03,NE,45,4.0,4.7,23,0.00,,---,0.00,VWS V14.01,2013-05-30 20:18:00,
2013-05-30 16:19:00,91.2,48.3,30.03,SSW,202,6.5,6.5,23,0.00,,---,0.00,VWS V14.01,2013-05-30 20:19:00,
2013-05-30 16:20:00,91.2,48.3,30.03,SE,135,2.0,2.9,23,0.00,,---,0.00,VWS V14.01,2013-05-30 20:20:00,
2013-05-30 16:21:00,91.2,48.3,30.03,NNE,22,3.1,3.1,23,0.00,,---,0.00,VWS V14.01,2013-05-30 20:21:00,
2013-05-30 16:22:00,91.0,47.0,30.03,East,90,2.7,6.5,22,0.00,,---,0.00,VWS V14.01,2013-05-30 20:22:00,
2013-05-30 16:23:00,90.7,46.7,30.03,WNW,292,2.7,5.4,22,0.00,,---,0.00,VWS V14.01,2013-05-30 20:23:00,
2013-05-30 16:24:00,91.4,47.2,30.03,WSW,248,3.8,3.8,22,0.00,,---,0.00,VWS V14.01,2013-05-30 20:24:00,
2013-05-30 16:25:00,91.4,47.2,30.03,ENE,68,4.7,4.7,22,0.00,,---,0.00,VWS V14.01,2013-05-30 20:25:00,
2013-05-30 16:26:00,91.4,47.2,30.03,WSW,248,3.8,7.4,22,0.00,,---,0.00,VWS V14.01,2013-05-30 20:26:00,
2013-05-30 16:27:00,91.2,47.1,30.03,East,90,2.0,3.8,22,0.00,,---,0.00,VWS V14.01,2013-05-30 20:27:00,
2013-05-30 16:28:00,91.2,47.1,30.03,SSW,202,5.4,5.4,22,0.00,,---,0.00,VWS V14.01,2013-05-30 20:28:00,
2013-05-30 16:29:00,91.2,47.1,30.03,NE,45,2.9,2.9,22,0.00,,---,0.00,VWS V14.01,2013-05-30 20:29:00,
2013-05-30 16:30:00,91.2,47.1,30.03,ENE,68,2.5,3.8,22,0.00,,---,0.00,VWS V14.01,2013-05-30 20:30:00,
2013-05-30 16:31:00,91.2,47.1,30.03,NE,45,2.9,5.4,22,0.00,,---,0.00,VWS V14.01,2013-05-30 20:31:00,
2013-05-30 16:32:00,91.2,47.1,30.03,SSE,158,5.8,6.0,22,0.00,,---,0.00,VWS V14.01,2013-05-30 20:32:00,
2013-05-30 16:33:00,90.5,47.7,30.03,SSE,158,2.0,7.6,23,0.00,,---,0.00,VWS V14.01,2013-05-30 20:33:00,
2013-05-30 16:34:00,91.9,48.9,30.03,SE,135,3.4,3.4,23,0.00,,---,0.00,VWS V14.01,2013-05-30 20:34:00,
2013-05-30 16:35:00,91.2,48.3,30.03,SSE,158,10.3,10.3,23,0.00,,---,0.00,VWS V14.01,2013-05-30 20:35:00,
2013-05-30 16:36:00,91.9,48.9,30.03,SW,225,2.9,10.3,23,0.00,,---,0.00,VWS V14.01,2013-05-30 20:36:00,
2013-05-30 16:37:00,91.8,48.7,30.03,South,180,0.9,3.8,23,0.00,,---,0.00,VWS V14.01,2013-05-30 20:37:00,
2013-05-30 16:38:00,91.6,47.4,30.03,SSW,202,2.2,3.6,22,0.00,,---,0.00,VWS V14.01,2013-05-30 20:38:00,
2013-05-30 16:39:00,91.2,47.1,30.03,SSW,202,2.9,2.9,22,0.00,,---,0.00,VWS V14.01,2013-05-30 20:39:00,
2013-05-30 16:40:00,91.4,47.2,30.03,NNE,22,1.6,2.7,22,0.00,,---,0.00,VWS V14.01,2013-05-30 20:40:00,
2013-05-30 16:41:00,91.2,47.1,30.03,SSW,202,2.9,7.4,22,0.00,,---,0.00,VWS V14.01,2013-05-30 20:41:00,
2013-05-30 16:42:00,91.0,47.0,30.03,SE,135,2.7,2.9,22,0.00,,---,0.00,VWS V14.01,2013-05-30 20:42:00,
2013-05-30 16:43:00,90.9,46.8,30.03,SSW,202,4.9,4.9,22,0.00,,---,0.00,VWS V14.01,2013-05-30 20:43:00,
2013-05-30 16:44:00,91.6,46.2,30.03,NE,45,3.6,5.4,21,0.00,,---,0.00,VWS V14.01,2013-05-30 20:44:00,
2013-05-30 16:45:00,91.8,46.3,30.03,SSW,202,5.8,5.8,21,0.00,,---,0.00,VWS V14.01,2013-05-30 20:45:00,
2013-05-30 16:46:00,91.6,46.2,30.03,NW,315,5.4,6.0,21,0.00,,---,0.00,VWS V14.01,2013-05-30 20:46:00,
2013-05-30 16:47:00,91.2,45.9,30.03,South,180,2.7,5.4,21,0.00,,---,0.00,VWS V14.01,2013-05-30 20:47:00,
2013-05-30 16:48:00,91.2,45.9,30.03,NNW,338,2.7,7.4,21,0.00,,---,0.00,VWS V14.01,2013-05-30 20:48:00,
2013-05-30 16:49:00,91.6,46.2,30.03,ESE,112,2.9,4.7,21,0.00,,---,0.00,VWS V14.01,2013-05-30 20:49:00,
2013-05-30 16:50:00,91.4,46.0,30.03,East,90,2.7,2.9,21,0.00,,---,0.00,VWS V14.01,2013-05-30 20:50:00,
2013-05-30 16:51:00,91.6,46.2,30.03,East,90,2.7,10.5,21,0.00,,---,0.00,VWS V14.01,2013-05-30 20:51:00,
2013-05-30 16:52:00,92.1,46.6,30.03,North,0,0.9,5.6,21,0.00,,---,0.00,VWS V14.01,2013-05-30 20:52:00,
2013-05-30 16:53:00,92.5,46.9,30.03,SE,135,2.7,2.7,21,0.00,,---,0.00,VWS V14.01,2013-05-30 20:53:00,
2013-05-30 16:54:00,93.0,46.1,30.03,WSW,248,2.9,4.0,20,0.00,,---,0.00,VWS V14.01,2013-05-30 20:54:00,
2013-05-30 16:55:00,93.0,46.1,30.03,East,90,0.0,3.6,20,0.00,,---,0.00,VWS V14.01,2013-05-30 20:55:00,
2013-05-30 16:56:00,93.0,46.1,30.03,SE,135,4.0,5.4,20,0.00,,---,0.00,VWS V14.01,2013-05-30 20:56:00,
2013-05-30 16:57:00,93.0,46.1,30.03,WNW,292,3.4,4.0,20,0.00,,---,0.00,VWS V14.01,2013-05-30 20:57:00,
2013-05-30 16:58:00,93.0,46.1,30.03,SSW,202,2.7,3.4,20,0.00,,---,0.00,VWS V14.01,2013-05-30 20:58:00,
2013-05-30 16:59:00,92.5,44.3,30.03,NNE,22,3.4,3.4,19,0.00,,---,0.00,VWS V14.01,2013-05-30 20:59:00,
2013-05-30 17:00:00,92.5,44.3,30.03,East,90,8.7,8.7,19,0.00,,---,0.00,VWS V14.01,2013-05-30 21:00:00,
2013-05-30 17:01:00,92.5,44.3,30.03,NE,45,2.0,8.7,19,0.00,,---,0.00,VWS V14.01,2013-05-30 21:01:00,
2013-05-30 17:02:00,92.1,44.0,30.03,ESE,112,3.8,3.8,19,0.00,,---,0.00,VWS V14.01,2013-05-30 21:02:00,
2013-05-30 17:03:00,91.2,44.6,30.03,SSE,158,3.8,7.6,20,0.00,,---,0.00,VWS V14.01,2013-05-30 21:03:00,
2013-05-30 17:04:00,91.2,44.6,30.03,SSW,202,2.2,3.4,20,0.00,,---,0.00,VWS V14.01,2013-05-30 21:04:00,
2013-05-30 17:05:00,91.0,44.4,30.03,NNE,22,3.8,3.8,20,0.00,,---,0.00,VWS V14.01,2013-05-30 21:05:00,
2013-05-30 17:06:00,91.0,44.4,30.03,NE,45,3.4,4.0,20,0.00,,---,0.00,VWS V14.01,2013-05-30 21:06:00,
2013-05-30 17:07:00,91.4,44.7,30.03,ESE,112,1.3,3.4,20,0.00,,---,0.00,VWS V14.01,2013-05-30 21:07:00,
2013-05-30 17:08:00,91.2,44.6,30.03,SSE,158,6.9,6.9,20,0.00,,---,0.00,VWS V14.01,2013-05-30 21:08:00,
2013-05-30 17:09:00,90.5,45.3,30.03,NNE,22,3.4,5.8,21,0.00,,---,0.00,VWS V14.01,2013-05-30 21:09:00,
2013-05-30 17:10:00,90.5,44.0,30.03,West,270,2.2,4.7,20,0.00,,---,0.00,VWS V14.01,2013-05-30 21:10:00,
2013-05-30 17:11:00,90.5,45.3,30.03,NNE,22,5.8,5.8,21,0.00,,---,0.00,VWS V14.01,2013-05-30 21:11:00,
2013-05-30 17:12:00,90.3,45.1,30.03,SSW,202,4.0,5.8,21,0.00,,---,0.00,VWS V14.01,2013-05-30 21:12:00,
2013-05-30 17:13:00,90.1,45.0,30.03,South,180,4.3,4.3,21,0.00,,---,0.00,VWS V14.01,2013-05-30 21:13:00,
2013-05-30 17:14:00,90.1,45.0,30.03,WSW,248,2.5,2.5,21,0.00,,---,0.00,VWS V14.01,2013-05-30 21:14:00,
2013-05-30 17:15:00,89.8,44.7,30.03,SW,225,4.7,4.7,21,0.00,,---,0.00,VWS V14.01,2013-05-30 21:15:00,
2013-05-30 17:16:00,90.1,45.0,30.03,North,0,1.3,4.7,21,0.00,,---,0.00,VWS V14.01,2013-05-30 21:16:00,
2013-05-30 17:17:00,90.3,45.1,30.03,ESE,112,2.7,2.7,21,0.00,,---,0.00,VWS V14.01,2013-05-30 21:17:00,
2013-05-30 17:18:00,90.7,46.7,30.03,East,90,3.4,3.6,22,0.00,,---,0.00,VWS V14.01,2013-05-30 21:18:00,
2013-05-30 17:19:00,90.9,45.6,30.03,SW,225,2.0,2.7,21,0.00,,---,0.00,VWS V14.01,2013-05-30 21:19:00,
2013-05-30 17:20:00,91.0,45.7,30.03,ESE,112,5.8,7.4,21,0.00,,---,0.00,VWS V14.01,2013-05-30 21:20:00,
2013-05-30 17:21:00,90.9,45.6,30.03,SE,135,2.7,5.8,21,0.00,,---,0.00,VWS V14.01,2013-05-30 21:21:00,
2013-05-30 17:22:00,90.9,45.6,30.03,South,180,3.6,3.6,21,0.00,,---,0.00,VWS V14.01,2013-05-30 21:22:00,
2013-05-30 17:23:00,90.9,45.6,30.03,ENE,68,2.7,5.6,21,0.00,,---,0.00,VWS V14.01,2013-05-30 21:23:00,
2013-05-30 17:24:00,90.3,45.1,30.03,SSW,202,2.7,3.8,21,0.00,,---,0.00,VWS V14.01,2013-05-30 21:24:00,
2013-05-30 17:25:00,90.7,45.4,30.03,East,90,3.8,4.9,21,0.00,,---,0.00,VWS V14.01,2013-05-30 21:25:00,
2013-05-30 17:26:00,90.3,45.1,30.03,SSW,202,3.8,7.8,21,0.00,,---,0.00,VWS V14.01,2013-05-30 21:26:00,
2013-05-30 17:27:00,90.1,45.0,30.03,South,180,1.1,3.8,21,0.00,,---,0.00,VWS V14.01,2013-05-30 21:27:00,
2013-05-30 17:28:00,90.0,44.8,30.03,South,180,2.0,6.9,21,0.00,,---,0.00,VWS V14.01,2013-05-30 21:28:00,
2013-05-30 17:29:00,89.2,45.5,30.03,SE,135,1.3,1.3,22,0.00,,---,0.00,VWS V14.01,2013-05-30 21:29:00,
2013-05-30 17:30:00,89.4,45.6,30.03,SE,135,2.0,2.0,22,0.00,,---,0.00,VWS V14.01,2013-05-30 21:30:00,
2013-05-30 17:31:00,89.2,45.5,30.03,WNW,292,1.1,3.8,22,0.00,,---,0.00,VWS V14.01,2013-05-30 21:31:00,
2013-05-30 17:32:00,89.1,45.3,30.03,SSE,158,2.2,2.7,22,0.00,,---,0.00,VWS V14.01,2013-05-30 21:32:00,
2013-05-30 17:33:00,89.1,45.3,30.03,South,180,1.3,2.2,22,0.00,,---,0.00,VWS V14.01,2013-05-30 21:33:00,
2013-05-30 17:34:00,88.7,45.0,30.03,South,180,3.6,4.0,22,0.00,,---,0.00,VWS V14.01,2013-05-30 21:34:00,
2013-05-30 17:35:00,89.2,45.5,30.03,SW,225,2.0,3.8,22,0.00,,---,0.00,VWS V14.01,2013-05-30 21:35:00,
2013-05-30 17:36:00,89.1,45.3,30.03,NW,315,4.0,4.0,22,0.00,,---,0.00,VWS V14.01,2013-05-30 21:36:00,
2013-05-30 17:37:00,88.5,44.9,30.03,WSW,248,3.4,4.0,22,0.00,,---,0.00,VWS V14.01,2013-05-30 21:37:00,
2013-05-30 17:38:00,88.5,44.9,30.03,SSW,202,2.5,3.4,22,0.00,,---,0.00,VWS V14.01,2013-05-30 21:38:00,
2013-05-30 17:39:00,88.2,44.6,30.03,ESE,112,4.0,4.0,22,0.00,,---,0.00,VWS V14.01,2013-05-30 21:39:00,
2013-05-30 17:40:00,88.2,44.6,30.03,SSW,202,1.6,3.8,22,0.00,,---,0.00,VWS V14.01,2013-05-30 21:40:00,
2013-05-30 17:41:00,88.2,44.6,30.03,SE,135,2.7,3.8,22,0.00,,---,0.00,VWS V14.01,2013-05-30 21:41:00,
2013-05-30 17:42:00,88.2,44.6,30.03,SSE,158,4.3,4.7,22,0.00,,---,0.00,VWS V14.01,2013-05-30 21:42:00,
2013-05-30 17:43:00,88.0,44.4,30.03,SSW,202,3.4,4.3,22,0.00,,---,0.00,VWS V14.01,2013-05-30 21:43:00,
2013-05-30 17:44:00,88.3,45.9,30.03,South,180,1.3,2.2,23,0.00,,---,0.00,VWS V14.01,2013-05-30 21:44:00,
2013-05-30 17:45:00,88.2,45.7,30.03,NNW,338,1.3,2.0,23,0.00,,---,0.00,VWS V14.01,2013-05-30 21:45:00,
2013-05-30 17:46:00,88.3,45.9,30.03,South,180,2.2,2.2,23,0.00,,---,0.00,VWS V14.01,2013-05-30 21:46:00,
2013-05-30 17:47:00,88.7,46.2,30.03,WNW,292,0.0,2.2,23,0.00,,---,0.00,VWS V14.01,2013-05-30 21:47:00,
2013-05-30 17:48:00,88.7,46.2,30.03,SE,135,1.3,2.5,23,0.00,,---,0.00,VWS V14.01,2013-05-30 21:48:00,
2013-05-30 17:49:00,88.7,46.2,30.03,WNW,292,2.5,2.5,23,0.00,,---,0.00,VWS V14.01,2013-05-30 21:49:00,
2013-05-30 17:50:00,88.7,46.2,30.03,SSW,202,1.3,3.6,23,0.00,,---,0.00,VWS V14.01,2013-05-30 21:50:00,
2013-05-30 17:51:00,88.7,46.2,30.03,ENE,68,1.3,3.1,23,0.00,,---,0.00,VWS V14.01,2013-05-30 21:51:00,
2013-05-30 17:52:00,88.7,46.2,30.03,SSE,158,2.2,2.9,23,0.00,,---,0.00,VWS V14.01,2013-05-30 21:52:00,
2013-05-30 17:53:00,88.7,46.2,30.03,SW,225,2.2,4.3,23,0.00,,---,0.00,VWS V14.01,2013-05-30 21:53:00,
2013-05-30 17:54:00,88.3,43.5,30.03,WSW,248,1.3,5.8,21,0.00,,---,0.00,VWS V14.01,2013-05-30 21:54:00,
2013-05-30 17:55:00,88.7,45.0,30.03,ENE,68,4.0,5.8,22,0.00,,---,0.00,VWS V14.01,2013-05-30 21:55:00,
2013-05-30 17:56:00,88.3,43.5,30.03,SSW,202,5.8,6.0,21,0.00,,---,0.00,VWS V14.01,2013-05-30 21:56:00,
2013-05-30 17:57:00,88.2,43.3,30.03,WNW,292,2.0,5.8,21,0.00,,---,0.00,VWS V14.01,2013-05-30 21:57:00,
2013-05-30 17:58:00,88.3,43.5,30.03,SSW,202,2.2,2.7,21,0.00,,---,0.00,VWS V14.01,2013-05-30 21:58:00,
2013-05-30 17:59:00,88.5,44.9,30.03,SSW,202,1.1,2.0,22,0.00,,---,0.00,VWS V14.01,2013-05-30 21:59:00,
2013-05-30 18:00:00,88.3,43.5,30.03,ESE,112,2.7,2.7,21,0.00,,---,0.00,VWS V14.01,2013-05-30 22:00:00,
2013-05-30 18:01:00,88.5,44.9,30.03,NNE,22,2.0,2.7,22,0.00,,---,0.00,VWS V14.01,2013-05-30 22:01:00,
2013-05-30 18:02:00,88.7,45.0,30.03,ESE,112,2.5,3.1,22,0.00,,---,0.00,VWS V14.01,2013-05-30 22:02:00,
2013-05-30 18:03:00,88.7,45.0,30.03,ENE,68,2.0,4.7,22,0.00,,---,0.00,VWS V14.01,2013-05-30 22:03:00,
2013-05-30 18:04:00,88.5,46.0,30.03,SSE,158,3.4,3.4,23,0.00,,---,0.00,VWS V14.01,2013-05-30 22:04:00,
2013-05-30 18:05:00,88.7,45.0,30.03,SSW,202,2.0,4.0,22,0.00,,---,0.00,VWS V14.01,2013-05-30 22:05:00,
2013-05-30 18:06:00,88.7,45.0,30.03,SSE,158,3.4,3.4,22,0.00,,---,0.00,VWS V14.01,2013-05-30 22:06:00,
2013-05-30 18:07:00,88.3,45.9,30.03,SSE,158,3.1,3.4,23,0.00,,---,0.00,VWS V14.01,2013-05-30 22:07:00,
2013-05-30 18:08:00,88.2,45.7,30.03,SSW,202,4.0,4.0,23,0.00,,---,0.00,VWS V14.01,2013-05-30 22:08:00,
2013-05-30 18:09:00,87.3,46.1,30.03,South,180,4.9,4.9,24,0.00,,---,0.00,VWS V14.01,2013-05-30 22:09:00,
2013-05-30 18:10:00,88.0,45.6,30.03,ENE,68,6.0,6.0,23,0.00,,---,0.00,VWS V14.01,2013-05-30 22:10:00,
2013-05-30 18:11:00,87.3,46.1,30.03,South,180,2.7,6.0,24,0.00,,---,0.00,VWS V14.01,2013-05-30 22:11:00,
2013-05-30 18:12:00,86.9,46.9,30.03,WSW,248,3.4,4.9,25,0.00,,---,0.00,VWS V14.01,2013-05-30 22:12:00,
2013-05-30 18:13:00,86.5,45.5,30.03,ESE,112,3.8,5.8,24,0.00,,---,0.00,VWS V14.01,2013-05-30 22:13:00,
2013-05-30 18:14:00,85.5,44.6,30.03,South,180,2.9,2.9,24,0.00,,---,0.00,VWS V14.01,2013-05-30 22:14:00,
2013-05-30 18:15:00,85.6,44.7,30.03,SW,225,3.4,3.4,24,0.00,,---,0.00,VWS V14.01,2013-05-30 22:15:00,
2013-05-30 18:16:00,85.5,44.6,30.03,WSW,248,2.0,3.4,24,0.00,,---,0.00,VWS V14.01,2013-05-30 22:16:00,
2013-05-30 18:17:00,85.5,44.6,30.03,WNW,292,0.0,2.9,24,0.00,,---,0.00,VWS V14.01,2013-05-30 22:17:00,
2013-05-30 18:18:00,85.3,44.4,30.03,WNW,292,1.6,2.9,24,0.00,,---,0.00,VWS V14.01,2013-05-30 22:18:00,
2013-05-30 18:19:00,85.1,45.4,30.03,SSE,158,2.0,2.0,25,0.00,,---,0.00,VWS V14.01,2013-05-30 22:19:00,
2013-05-30 18:20:00,85.3,44.4,30.03,NNE,22,2.9,2.9,24,0.00,,---,0.00,VWS V14.01,2013-05-30 22:20:00,
2013-05-30 18:21:00,85.1,45.4,30.03,SSE,158,2.0,3.4,25,0.00,,---,0.00,VWS V14.01,2013-05-30 22:21:00,
2013-05-30 18:22:00,85.1,45.4,30.03,SSW,202,2.7,2.7,25,0.00,,---,0.00,VWS V14.01,2013-05-30 22:22:00,
2013-05-30 18:23:00,85.1,47.4,30.03,ENE,68,3.6,3.6,27,0.00,,---,0.00,VWS V14.01,2013-05-30 22:23:00,
2013-05-30 18:24:00,85.1,46.4,30.03,SSE,158,3.4,4.3,26,0.00,,---,0.00,VWS V14.01,2013-05-30 22:24:00,
2013-05-30 18:25:00,85.1,47.4,30.03,North,0,1.6,4.7,27,0.00,,---,0.00,VWS V14.01,2013-05-30 22:25:00,
2013-05-30 18:26:00,85.1,47.4,30.03,ENE,68,2.9,5.4,27,0.00,,---,0.00,VWS V14.01,2013-05-30 22:26:00,
2013-05-30 18:27:00,85.1,46.4,30.03,SSE,158,0.0,3.6,26,0.00,,---,0.00,VWS V14.01,2013-05-30 22:27:00,
2013-05-30 18:28:00,87.1,47.0,30.03,SSW,202,0.0,1.6,25,0.00,,---,0.00,VWS V14.01,2013-05-30 22:28:00,
2013-05-30 18:29:00,85.5,46.7,30.03,SE,135,2.0,3.4,26,0.00,,---,0.00,VWS V14.01,2013-05-30 22:29:00,
2013-05-30 18:30:00,86.5,46.6,30.03,East,90,0.0,2.9,25,0.00,,---,0.00,VWS V14.01,2013-05-30 22:30:00,
2013-05-30 18:31:00,87.1,47.0,30.03,SSW,202,0.0,1.6,25,0.00,,---,0.00,VWS V14.01,2013-05-30 22:31:00,
2013-05-30 18:32:00,87.3,46.1,30.03,ESE,112,2.7,2.9,24,0.00,,---,0.00,VWS V14.01,2013-05-30 22:32:00,
2013-05-30 18:33:00,88.3,45.9,30.03,SW,225,2.9,2.9,23,0.00,,---,0.00,VWS V14.01,2013-05-30 22:33:00,
2013-05-30 18:34:00,87.8,45.4,30.03,SW,225,0.0,2.9,23,0.00,,---,0.00,VWS V14.01,2013-05-30 22:34:00,
2013-05-30 18:35:00,88.2,45.7,30.03,SSE,158,2.0,3.4,23,0.00,,---,0.00,VWS V14.01,2013-05-30 22:35:00,
2013-05-30 18:36:00,88.3,45.9,30.03,WSW,248,2.5,3.1,23,0.00,,---,0.00,VWS V14.01,2013-05-30 22:36:00,
2013-05-30 18:37:00,88.3,44.7,30.03,South,180,4.0,4.0,22,0.00,,---,0.00,VWS V14.01,2013-05-30 22:37:00,
2013-05-30 18:38:00,87.6,45.3,30.03,South,180,5.6,5.6,23,0.00,,---,0.00,VWS V14.01,2013-05-30 22:38:00,
2013-05-30 18:39:00,88.0,44.4,30.03,ENE,68,3.6,3.6,22,0.00,,---,0.00,VWS V14.01,2013-05-30 22:39:00,
2013-05-30 18:40:00,87.8,44.3,30.03,WSW,248,1.3,3.6,22,0.00,,---,0.00,VWS V14.01,2013-05-30 22:40:00,
2013-05-30 18:41:00,87.6,45.3,30.03,South,180,5.6,5.6,23,0.00,,---,0.00,VWS V14.01,2013-05-30 22:41:00,
2013-05-30 18:42:00,87.3,45.0,30.03,East,90,3.6,5.6,23,0.00,,---,0.00,VWS V14.01,2013-05-30 22:42:00,
2013-05-30 18:43:00,88.2,45.7,30.03,NW,315,0.0,0.9,23,0.00,,---,0.00,VWS V14.01,2013-05-30 22:43:00,
2013-05-30 18:44:00,87.6,45.3,30.03,NNE,22,5.8,5.8,23,0.00,,---,0.00,VWS V14.01,2013-05-30 22:44:00,
2013-05-30 18:45:00,87.8,45.4,30.03,ESE,112,0.0,5.8,23,0.00,,---,0.00,VWS V14.01,2013-05-30 22:45:00,
2013-05-30 18:46:00,88.2,45.7,30.03,NW,315,0.0,0.9,23,0.00,,---,0.00,VWS V14.01,2013-05-30 22:46:00,
2013-05-30 18:47:00,88.2,45.7,30.03,SW,225,0.0,2.0,23,0.00,,---,0.00,VWS V14.01,2013-05-30 22:47:00,
2013-05-30 18:48:00,89.1,45.3,30.03,NE,45,0.9,0.9,22,0.00,,---,0.00,VWS V14.01,2013-05-30 22:48:00,
2013-05-30 18:49:00,88.7,46.2,30.03,SSW,202,0.0,0.0,23,0.00,,---,0.00,VWS V14.01,2013-05-30 22:49:00,
2013-05-30 18:50:00,88.9,46.3,30.03,WSW,248,0.0,0.0,23,0.00,,---,0.00,VWS V14.01,2013-05-30 22:50:00,
2013-05-30 18:51:00,89.1,45.3,30.03,NE,45,0.9,0.9,22,0.00,,---,0.00,VWS V14.01,2013-05-30 22:51:00,
2013-05-30 18:52:00,89.2,45.5,30.03,SE,135,0.0,5.6,22,0.00,,---,0.00,VWS V14.01,2013-05-30 22:52:00,
2013-05-30 18:53:00,89.4,45.6,30.03,West,270,0.0,2.2,22,0.00,,---,0.00,VWS V14.01,2013-05-30 22:53:00,
2013-05-30 18:54:00,89.4,45.6,30.03,South,180,0.0,1.6,22,0.00,,---,0.00,VWS V14.01,2013-05-30 22:54:00,
2013-05-30 18:55:00,89.4,45.6,30.03,South,180,2.2,4.9,22,0.00,,---,0.00,VWS V14.01,2013-05-30 22:55:00,
2013-05-30 18:56:00,89.4,45.6,30.03,West,270,0.0,2.2,22,0.00,,---,0.00,VWS V14.01,2013-05-30 22:56:00,
2013-05-30 18:57:00,89.4,45.6,30.03,NNE,22,2.7,2.7,22,0.00,,---,0.00,VWS V14.01,2013-05-30 22:57:00,
2013-05-30 18:58:00,88.9,45.2,30.03,South,180,5.6,5.6,22,0.00,,---,0.00,VWS V14.01,2013-05-30 22:58:00,
2013-05-30 18:59:00,89.2,45.5,30.03,SSE,158,0.0,2.7,22,0.00,,---,0.00,VWS V14.01,2013-05-30 22:59:00,
2013-05-30 19:00:00,89.1,45.3,30.03,ESE,112,4.7,4.7,22,0.00,,---,0.00,VWS V14.01,2013-05-30 23:00:00,
2013-05-30 19:01:00,88.9,45.2,30.03,South,180,5.6,5.6,22,0.00,,---,0.00,VWS V14.01,2013-05-30 23:01:00,
2013-05-30 19:02:00,88.7,45.0,30.03,SE,135,2.0,5.6,22,0.00,,---,0.00,VWS V14.01,2013-05-30 23:02:00,
2013-05-30 19:03:00,88.7,46.2,30.03,NNW,338,1.6,2.2,23,0.00,,---,0.00,VWS V14.01,2013-05-30 23:03:00,
2013-05-30 19:04:00,88.5,46.0,30.03,NNE,22,0.0,2.0,23,0.00,,---,0.00,VWS V14.01,2013-05-30 23:04:00,
2013-05-30 19:05:00,88.5,46.0,30.03,SSW,202,2.2,2.2,23,0.00,,---,0.00,VWS V14.01,2013-05-30 23:05:00,
2013-05-30 19:06:00,88.7,46.2,30.03,NNW,338,1.6,2.2,23,0.00,,---,0.00,VWS V14.01,2013-05-30 23:06:00,
2013-05-30 19:07:00,88.7,46.2,30.03,ESE,112,3.6,3.6,23,0.00,,---,0.00,VWS V14.01,2013-05-30 23:07:00,
2013-05-30 19:08:00,88.7,46.2,30.03,North,0,1.3,4.7,23,0.00,,---,0.00,VWS V14.01,2013-05-30 23:08:00,
2013-05-30 19:09:00,88.9,46.3,30.03,NNW,338,0.0,2.5,23,0.00,,---,0.00,VWS V14.01,2013-05-30 23:09:00,
2013-05-30 19:10:00,88.9,46.3,30.03,NNW,338,4.3,4.3,23,0.00,,---,0.00,VWS V14.01,2013-05-30 23:10:00,
2013-05-30 19:11:00,88.7,46.2,30.03,North,0,1.3,4.7,23,0.00,,---,0.00,VWS V14.01,2013-05-30 23:11:00,
2013-05-30 19:12:00,88.7,46.2,30.03,West,270,2.0,4.7,23,0.00,,---,0.00,VWS V14.01,2013-05-30 23:12:00,
2013-05-30 19:13:00,88.0,46.7,30.03,SSE,158,0.0,3.6,24,0.00,,---,0.00,VWS V14.01,2013-05-30 23:13:00,
2013-05-30 19:14:00,88.7,47.3,30.03,SE,135,2.7,3.1,24,0.00,,---,0.00,VWS V14.01,2013-05-30 23:14:00,
2013-05-30 19:15:00,88.3,47.0,30.03,SSE,158,2.7,4.3,24,0.00,,---,0.00,VWS V14.01,2013-05-30 23:15:00,
2013-05-30 19:16:00,88.0,46.7,30.03,SSW,202,2.0,3.6,24,0.00,,---,0.00,VWS V14.01,2013-05-30 23:16:00,
2013-05-30 19:17:00,87.8,46.5,30.03,WNW,292,2.5,5.6,24,0.00,,---,0.00,VWS V14.01,2013-05-30 23:17:00,
2013-05-30 19:18:00,87.4,48.4,30.03,WSW,248,4.3,4.3,26,0.00,,---,0.00,VWS V14.01,2013-05-30 23:18:00,
2013-05-30 19:19:00,87.6,47.5,30.03,SW,225,0.0,2.5,25,0.00,,---,0.00,VWS V14.01,2013-05-30 23:19:00,
2013-05-30 19:20:00,87.6,47.5,30.03,SSE,158,1.1,3.6,25,0.00,,---,0.00,VWS V14.01,2013-05-30 23:20:00,
2013-05-30 19:21:00,87.4,48.4,30.03,WSW,248,4.3,4.3,26,0.00,,---,0.00,VWS V14.01,2013-05-30 23:21:00,
2013-05-30 19:22:00,87.3,48.2,30.03,South,180,4.3,4.3,26,0.00,,---,0.00,VWS V14.01,2013-05-30 23:22:00,
2013-05-30 19:23:00,86.7,48.8,30.03,West,270,1.6,2.5,27,0.00,,---,0.00,VWS V14.01,2013-05-30 23:23:00,
2013-05-30 19:24:00,86.7,47.8,30.03,SE,135,0.9,4.9,26,0.00,,---,0.00,VWS V14.01,2013-05-30 23:24:00,
2013-05-30 19:25:00,86.7,47.8,30.03,ESE,112,1.3,1.3,26,0.00,,---,0.00,VWS V14.01,2013-05-30 23:25:00,
2013-05-30 19:26:00,86.7,48.8,30.03,West,270,1.6,2.5,27,0.00,,---,0.00,VWS V14.01,2013-05-30 23:26:00,
2013-05-30 19:27:00,86.5,48.6,30.03,SSE,158,2.7,3.8,27,0.00,,---,0.00,VWS V14.01,2013-05-30 23:27:00,
2013-05-30 19:28:00,86.4,49.4,30.03,SSW,202,1.3,2.2,28,0.00,,---,0.00,VWS V14.01,2013-05-30 23:28:00,
2013-05-30 19:29:00,86.5,48.6,30.03,ENE,68,2.5,2.5,27,0.00,,---,0.00,VWS V14.01,2013-05-30 23:29:00,
2013-05-30 19:30:00,86.5,49.6,30.03,SW,225,2.2,2.5,28,0.00,,---,0.00,VWS V14.01,2013-05-30 23:30:00,
2013-05-30 19:31:00,86.4,49.4,30.03,SSW,202,1.3,2.2,28,0.00,,---,0.00,VWS V14.01,2013-05-30 23:31:00,
2013-05-30 19:32:00,86.4,49.4,30.03,ESE,112,4.0,4.0,28,0.00,,---,0.00,VWS V14.01,2013-05-30 23:32:00,
2013-05-30 19:33:00,85.6,48.8,30.03,ENE,68,2.5,4.0,28,0.00,,---,0.00,VWS V14.01,2013-05-30 23:33:00,
2013-05-30 19:34:00,85.8,49.0,30.03,ESE,112,1.3,2.9,28,0.00,,---,0.00,VWS V14.01,2013-05-30 23:34:00,
2013-05-30 19:35:00,85.6,48.8,30.03,WSW,248,4.0,4.0,28,0.00,,---,0.00,VWS V14.01,2013-05-30 23:35:00,
2013-05-30 19:36:00,85.6,48.8,30.03,ENE,68,2.5,4.0,28,0.00,,---,0.00,VWS V14.01,2013-05-30 23:36:00,
2013-05-30 19:37:00,85.3,49.5,30.03,WSW,248,4.0,4.9,29,0.00,,---,0.00,VWS V14.01,2013-05-30 23:37:00,
2013-05-30 19:38:00,84.4,48.7,30.03,NE,45,0.0,1.1,29,0.00,,---,0.00,VWS V14.01,2013-05-30 23:38:00,
2013-05-30 19:39:00,84.7,49.0,30.03,SW,225,2.0,2.5,29,0.00,,---,0.00,VWS V14.01,2013-05-30 23:39:00,
2013-05-30 19:40:00,84.6,48.8,30.03,West,270,1.1,2.5,29,0.00,,---,0.00,VWS V14.01,2013-05-30 23:40:00,
2013-05-30 19:41:00,84.4,48.7,30.03,ESE,112,1.3,1.3,29,0.00,,---,0.00,VWS V14.01,2013-05-30 23:41:00,
2013-05-30 19:42:00,84.4,48.7,30.03,SSE,158,2.7,2.9,29,0.00,,---,0.00,VWS V14.01,2013-05-30 23:42:00,
2013-05-30 19:43:00,83.7,49.0,30.03,SSW,202,3.4,6.5,30,0.00,,---,0.00,VWS V14.01,2013-05-30 23:43:00,
2013-05-30 19:44:00,84.0,49.3,30.03,WSW,248,1.6,6.3,30,0.00,,---,0.00,VWS V14.01,2013-05-30 23:44:00,
2013-05-30 19:45:00,83.8,49.1,30.03,SSE,158,5.4,5.4,30,0.00,,---,0.00,VWS V14.01,2013-05-30 23:45:00,
2013-05-30 19:46:00,83.7,49.0,30.03,SSW,202,3.4,6.5,30,0.00,,---,0.00,VWS V14.01,2013-05-30 23:46:00,
2013-05-30 19:47:00,83.5,48.8,30.00,ESE,112,2.7,3.4,30,0.00,,---,0.00,VWS V14.01,2013-05-30 23:47:00,
2013-05-30 19:48:00,83.3,48.7,30.00,NNW,338,3.1,3.1,30,0.00,,---,0.00,VWS V14.01,2013-05-30 23:48:00,
2013-05-30 19:49:00,83.5,48.8,30.00,SW,225,0.0,1.6,30,0.00,,---,0.00,VWS V14.01,2013-05-30 23:49:00,
2013-05-30 19:50:00,83.3,48.7,30.00,SE,135,0.0,0.0,30,0.00,,---,0.00,VWS V14.01,2013-05-30 23:50:00,
2013-05-30 19:51:00,83.3,48.7,30.00,SE,135,2.5,3.1,30,0.00,,---,0.00,VWS V14.01,2013-05-30 23:51:00,
2013-05-30 19:52:00,83.3,49.5,30.00,ESE,112,0.0,2.5,31,0.00,,---,0.00,VWS V14.01,2013-05-30 23:52:00,
2013-05-30 19:53:00,82.9,49.2,30.00,SSE,158,0.0,1.6,31,0.00,,---,0.00,VWS V14.01,2013-05-30 23:53:00,
2013-05-30 19:54:00,83.1,49.4,30.00,WSW,248,2.5,2.7,31,0.00,,---,0.00,VWS V14.01,2013-05-30 23:54:00,
2013-05-30 19:55:00,83.1,49.4,30.00,West,270,1.6,2.9,31,0.00,,---,0.00,VWS V14.01,2013-05-30 23:55:00,
2013-05-30 19:56:00,82.9,49.2,30.00,SSE,158,0.9,1.6,31,0.00,,---,0.00,VWS V14.01,2013-05-30 23:56:00,
2013-05-30 19:57:00,82.9,49.2,30.00,SW,225,3.6,3.6,31,0.00,,---,0.00,VWS V14.01,2013-05-30 23:57:00,
2013-05-30 19:58:00,82.8,49.1,30.00,ENE,68,1.6,3.1,31,0.00,,---,0.00,VWS V14.01,2013-05-30 23:58:00,
2013-05-30 19:59:00,82.8,49.1,30.00,SSW,202,1.1,1.3,31,0.00,,---,0.00,VWS V14.01,2013-05-30 23:59:00,
2013-05-30 20:00:00,82.8,49.1,30.00,WNW,292,0.9,2.7,31,0.00,,---,0.00,VWS V14.01,2013-05-31 00:00:00,
2013-05-30 20:01:00,82.8,49.1,30.00,ENE,68,1.6,3.1,31,0.00,,---,0.00,VWS V14.01,2013-05-31 00:01:00,
2013-05-30 20:02:00,82.8,49.1,30.03,SSE,158,0.0,5.8,31,0.00,,---,0.00,VWS V14.01,2013-05-31 00:02:00,
2013-05-30 20:03:00,82.6,48.9,30.03,East,90,1.1,1.1,31,0.00,,---,0.00,VWS V14.01,2013-05-31 00:03:00,
2013-05-30 20:04:00,82.6,48.9,30.03,SSW,202,2.0,5.6,31,0.00,,---,0.00,VWS V14.01,2013-05-31 00:04:00,
2013-05-30 20:05:00,82.6,48.9,30.03,South,180,0.0,2.0,31,0.00,,---,0.00,VWS V14.01,2013-05-31 00:05:00,
2013-05-30 20:06:00,82.6,48.9,30.03,North,0,2.7,2.7,31,0.00,,---,0.00,VWS V14.01,2013-05-31 00:06:00,
2013-05-30 20:07:00,82.4,48.8,30.03,NE,45,0.0,2.7,31,0.00,,---,0.00,VWS V14.01,2013-05-31 00:07:00,
2013-05-30 20:08:00,82.2,49.5,30.03,ESE,112,1.1,1.3,32,0.00,,---,0.00,VWS V14.01,2013-05-31 00:08:00,
2013-05-30 20:09:00,82.4,49.6,30.03,South,180,1.3,2.5,32,0.00,,---,0.00,VWS V14.01,2013-05-31 00:09:00,
2013-05-30 20:10:00,82.4,49.6,30.03,ENE,68,0.0,1.3,32,0.00,,---,0.00,VWS V14.01,2013-05-31 00:10:00,
2013-05-30 20:11:00,82.2,49.5,30.03,SSW,202,0.9,1.3,32,0.00,,---,0.00,VWS V14.01,2013-05-31 00:11:00,
2013-05-30 20:12:00,82.2,49.5,30.03,SW,225,0.0,0.9,32,0.00,,---,0.00,VWS V14.01,2013-05-31 00:12:00,
2013-05-30 20:13:00,82.0,49.3,30.03,SW,225,0.9,2.0,32,0.00,,---,0.00,VWS V14.01,2013-05-31 00:13:00,
2013-05-30 20:14:00,82.2,49.5,30.03,SSW,202,0.0,2.0,32,0.00,,---,0.00,VWS V14.01,2013-05-31 00:14:00,
2013-05-30 20:15:00,82.2,49.5,30.03,ENE,68,0.9,2.7,32,0.00,,---,0.00,VWS V14.01,2013-05-31 00:15:00,
2013-05-30 20:16:00,82.0,49.3,30.03,SSW,202,1.1,2.0,32,0.00,,---,0.00,VWS V14.01,2013-05-31 00:16:00,
2013-05-30 20:17:00,82.0,49.3,30.03,SSW,202,2.5,3.6,32,0.00,,---,0.00,VWS V14.01,2013-05-31 00:17:00,
2013-05-30 20:18:00,81.9,50.0,30.03,WSW,248,1.1,2.7,33,0.00,,---,0.00,VWS V14.01,2013-05-31 00:18:00,
2013-05-30 20:19:00,82.0,50.1,30.03,North,0,2.2,2.9,33,0.00,,---,0.00,VWS V14.01,2013-05-31 00:19:00,
2013-05-30 20:20:00,81.9,50.0,30.03,ENE,68,2.2,2.2,33,0.00,,---,0.00,VWS V14.01,2013-05-31 00:20:00,
2013-05-30 20:21:00,81.9,50.0,30.03,East,90,6.0,7.8,33,0.00,,---,0.00,VWS V14.01,2013-05-31 00:21:00,
2013-05-30 20:22:00,81.9,50.0,30.03,East,90,0.0,6.0,33,0.00,,---,0.00,VWS V14.01,2013-05-31 00:22:00,
2013-05-30 20:23:00,81.7,50.6,30.03,SSW,202,2.0,3.4,34,0.00,,---,0.00,VWS V14.01,2013-05-31 00:23:00,
2013-05-30 20:24:00,81.9,50.0,30.03,SW,225,5.4,5.4,33,0.00,,---,0.00,VWS V14.01,2013-05-31 00:24:00,
2013-05-30 20:25:00,81.9,50.0,30.03,SSE,158,3.4,5.4,33,0.00,,---,0.00,VWS V14.01,2013-05-31 00:25:00,
2013-05-30 20:26:00,81.7,50.6,30.03,WNW,292,1.1,3.4,34,0.00,,---,0.00,VWS V14.01,2013-05-31 00:26:00,
2013-05-30 20:27:00,81.7,49.8,30.03,SSW,202,2.5,3.4,33,0.00,,---,0.00,VWS V14.01,2013-05-31 00:27:00,
2013-05-30 20:28:00,81.7,50.6,30.03,South,180,3.4,3.4,34,0.00,,---,0.00,VWS V14.01,2013-05-31 00:28:00,
2013-05-30 20:29:00,81.7,50.6,30.03,ESE,112,2.7,2.7,34,0.00,,---,0.00,VWS V14.01,2013-05-31 00:29:00,
2013-05-30 20:30:00,81.7,50.6,30.03,SE,135,2.5,6.0,34,0.00,,---,0.00,VWS V14.01,2013-05-31 00:30:00,
2013-05-30 20:31:00,81.7,50.6,30.03,WNW,292,2.5,3.4,34,0.00,,---,0.00,VWS V14.01,2013-05-31 00:31:00,
2013-05-30 20:32:00,81.7,50.6,30.03,SSW,202,2.0,2.7,34,0.00,,---,0.00,VWS V14.01,2013-05-31 00:32:00,
2013-05-30 20:33:00,81.5,50.5,30.03,SE,135,4.7,4.7,34,0.00,,---,0.00,VWS V14.01,2013-05-31 00:33:00,
2013-05-30 20:34:00,81.7,49.8,30.03,NNE,22,2.7,2.7,33,0.00,,---,0.00,VWS V14.01,2013-05-31 00:34:00,
2013-05-30 20:35:00,81.5,50.5,30.03,NNE,22,3.8,6.0,34,0.00,,---,0.00,VWS V14.01,2013-05-31 00:35:00,
2013-05-30 20:36:00,81.5,50.5,30.03,SE,135,4.7,4.7,34,0.00,,---,0.00,VWS V14.01,2013-05-31 00:36:00,
2013-05-30 20:37:00,81.5,49.7,30.03,SE,135,1.6,4.7,33,0.00,,---,0.00,VWS V14.01,2013-05-31 00:37:00,
2013-05-30 20:38:00,81.5,49.7,30.03,NNW,338,0.0,1.3,33,0.00,,---,0.00,VWS V14.01,2013-05-31 00:38:00,
2013-05-30 20:39:00,81.5,49.7,30.03,SE,135,3.6,3.6,33,0.00,,---,0.00,VWS V14.01,2013-05-31 00:39:00,
2013-05-30 20:40:00,81.5,49.7,30.03,SSW,202,0.9,6.3,33,0.00,,---,0.00,VWS V14.01,2013-05-31 00:40:00,
2013-05-30 20:41:00,81.5,49.7,30.03,NE,45,2.7,2.7,33,0.00,,---,0.00,VWS V14.01,2013-05-31 00:41:00,
2013-05-30 20:42:00,81.5,49.7,30.03,SSW,202,0.0,2.7,33,0.00,,---,0.00,VWS V14.01,2013-05-31 00:42:00,
2013-05-30 20:43:00,81.3,50.3,30.03,SSW,202,1.3,1.3,34,0.00,,---,0.00,VWS V14.01,2013-05-31 00:43:00,
2013-05-30 20:44:00,81.3,49.5,30.03,SE,135,1.6,3.8,33,0.00,,---,0.00,VWS V14.01,2013-05-31 00:44:00,
2013-05-30 20:45:00,81.3,49.5,30.03,SE,135,0.9,1.6,33,0.00,,---,0.00,VWS V14.01,2013-05-31 00:45:00,
2013-05-30 20:46:00,81.1,49.3,30.03,SSW,202,2.0,2.0,33,0.00,,---,0.00,VWS V14.01,2013-05-31 00:46:00,
2013-05-30 20:47:00,81.1,50.1,30.03,SSE,158,5.8,5.8,34,0.00,,---,0.00,VWS V14.01,2013-05-31 00:47:00,
2013-05-30 20:48:00,81.0,50.0,30.03,SSW,202,0.0,1.6,34,0.00,,---,0.00,VWS V14.01,2013-05-31 00:48:00,
2013-05-30 20:49:00,81.1,50.1,30.03,SW,225,2.2,2.2,34,0.00,,---,0.00,VWS V14.01,2013-05-31 00:49:00,
2013-05-30 20:50:00,81.1,50.1,30.03,SSE,158,1.6,2.2,34,0.00,,---,0.00,VWS V14.01,2013-05-31 00:50:00,
2013-05-30 20:51:00,81.0,50.0,30.03,WNW,292,0.9,1.6,34,0.00,,---,0.00,VWS V14.01,2013-05-31 00:51:00,
2013-05-30 20:52:00,81.0,50.0,30.03,SSE,158,5.8,5.8,34,0.00,,---,0.00,VWS V14.01,2013-05-31 00:52:00,
2013-05-30 20:53:00,80.8,49.8,30.03,WSW,248,1.6,2.5,34,0.00,,---,0.00,VWS V14.01,2013-05-31 00:53:00,
2013-05-30 20:54:00,80.8,49.8,30.03,SSW,202,2.2,3.1,34,0.00,,---,0.00,VWS V14.01,2013-05-31 00:54:00,
2013-05-30 20:55:00,80.8,49.8,30.03,East,90,1.3,2.2,34,0.00,,---,0.00,VWS V14.01,2013-05-31 00:55:00,
2013-05-30 20:56:00,80.8,49.8,30.03,WSW,248,1.6,2.5,34,0.00,,---,0.00,VWS V14.01,2013-05-31 00:56:00,
2013-05-30 20:57:00,80.8,49.8,30.03,West,270,1.1,1.6,34,0.00,,---,0.00,VWS V14.01,2013-05-31 00:57:00,
2013-05-30 20:58:00,80.6,49.7,30.03,NNE,22,2.2,2.7,34,0.00,,---,0.00,VWS V14.01,2013-05-31 00:58:00,
2013-05-30 20:59:00,80.8,49.8,30.03,East,90,3.4,3.4,34,0.00,,---,0.00,VWS V14.01,2013-05-31 00:59:00,
2013-05-30 21:00:00,80.6,49.7,30.03,West,270,2.0,3.8,34,0.00,,---,0.00,VWS V14.01,2013-05-31 01:00:00,
2013-05-30 21:01:00,80.6,49.7,30.03,SSW,202,2.5,2.7,34,0.00,,---,0.00,VWS V14.01,2013-05-31 01:01:00,
2013-05-30 21:02:00,80.6,49.7,30.03,WNW,292,0.0,2.5,34,0.00,,---,0.00,VWS V14.01,2013-05-31 01:02:00,
2013-05-30 21:03:00,80.4,50.3,30.03,SSE,158,0.9,2.7,35,0.00,,---,0.00,VWS V14.01,2013-05-31 01:03:00,
2013-05-30 21:04:00,80.6,49.7,30.03,WSW,248,1.3,1.3,34,0.00,,---,0.00,VWS V14.01,2013-05-31 01:04:00,
2013-05-30 21:05:00,80.4,50.3,30.03,SE,135,2.7,2.9,35,0.00,,---,0.00,VWS V14.01,2013-05-31 01:05:00,
2013-05-30 21:06:00,80.4,50.3,30.03,SSE,158,0.9,2.7,35,0.00,,---,0.00,VWS V14.01,2013-05-31 01:06:00,
2013-05-30 21:07:00,80.4,50.3,30.03,SSW,202,0.0,1.1,35,0.00,,---,0.00,VWS V14.01,2013-05-31 01:07:00,
2013-05-30 21:08:00,80.4,50.3,30.03,NW,315,0.0,1.3,35,0.00,,---,0.00,VWS V14.01,2013-05-31 01:08:00,
2013-05-30 21:09:00,80.4,50.3,30.03,SSW,202,2.9,2.9,35,0.00,,---,0.00,VWS V14.01,2013-05-31 01:09:00,
2013-05-30 21:10:00,80.4,50.3,30.03,NE,45,0.0,2.9,35,0.00,,---,0.00,VWS V14.01,2013-05-31 01:10:00,
2013-05-30 21:11:00,80.4,51.0,30.03,South,180,0.0,1.3,36,0.00,,---,0.00,VWS V14.01,2013-05-31 01:11:00,
2013-05-30 21:12:00,80.4,51.0,30.03,SSW,202,1.6,4.9,36,0.00,,---,0.00,VWS V14.01,2013-05-31 01:12:00,
2013-05-30 21:13:00,80.4,51.0,30.03,WNW,292,2.5,2.5,36,0.00,,---,0.00,VWS V14.01,2013-05-31 01:13:00,
2013-05-30 21:14:00,80.4,51.0,30.03,SSW,202,1.6,4.0,36,0.00,,---,0.00,VWS V14.01,2013-05-31 01:14:00,
2013-05-30 21:15:00,80.4,51.0,30.03,WNW,292,2.5,4.0,36,0.00,,---,0.00,VWS V14.01,2013-05-31 01:15:00,
2013-05-30 21:16:00,80.4,51.0,30.03,SW,225,2.9,2.9,36,0.00,,---,0.00,VWS V14.01,2013-05-31 01:16:00,
2013-05-30 21:17:00,80.4,51.0,30.03,NW,315,1.3,2.9,36,0.00,,---,0.00,VWS V14.01,2013-05-31 01:17:00,
2013-05-30 21:18:00,80.4,51.8,30.03,ESE,112,1.6,6.5,37,0.00,,---,0.00,VWS V14.01,2013-05-31 01:18:00,
2013-05-30 21:19:00,80.4,51.0,30.03,ENE,68,0.9,4.3,36,0.00,,---,0.00,VWS V14.01,2013-05-31 01:19:00,
2013-05-30 21:20:00,80.4,51.0,30.03,SE,135,6.5,6.5,36,0.00,,---,0.00,VWS V14.01,2013-05-31 01:20:00,
2013-05-30 21:21:00,80.4,51.8,30.03,ESE,112,1.6,6.5,37,0.00,,---,0.00,VWS V14.01,2013-05-31 01:21:00,
2013-05-30 21:22:00,80.4,51.8,30.03,ESE,112,1.6,3.8,37,0.00,,---,0.00,VWS V14.01,2013-05-31 01:22:00,
2013-05-30 21:23:00,80.2,51.6,30.03,NNW,338,0.0,1.1,37,0.00,,---,0.00,VWS V14.01,2013-05-31 01:23:00,
2013-05-30 21:24:00,80.2,51.6,30.03,ESE,112,2.0,2.0,37,0.00,,---,0.00,VWS V14.01,2013-05-31 01:24:00,
2013-05-30 21:25:00,80.2,51.6,30.03,SSW,202,1.1,2.0,37,0.00,,---,0.00,VWS V14.01,2013-05-31 01:25:00,
2013-05-30 21:26:00,80.2,51.6,30.03,SSE,158,2.2,2.2,37,0.00,,---,0.00,VWS V14.01,2013-05-31 01:26:00,
2013-05-30 21:27:00,80.2,51.6,30.03,ESE,112,2.0,4.9,37,0.00,,---,0.00,VWS V14.01,2013-05-31 01:27:00,
2013-05-30 21:28:00,80.1,51.5,30.03,WSW,248,0.0,2.2,37,0.00,,---,0.00,VWS V14.01,2013-05-31 01:28:00,
2013-05-30 21:29:00,80.1,51.5,30.03,SW,225,1.1,2.2,37,0.00,,---,0.00,VWS V14.01,2013-05-31 01:29:00,
2013-05-30 21:30:00,80.1,51.5,30.03,South,180,2.2,2.2,37,0.00,,---,0.00,VWS V14.01,2013-05-31 01:30:00,
2013-05-30 21:31:00,80.1,51.5,30.03,North,0,2.2,2.2,37,0.00,,---,0.00,VWS V14.01,2013-05-31 01:31:00,
2013-05-30 21:32:00,79.9,52.0,30.06,WSW,248,4.0,4.0,38,0.00,,---,0.00,VWS V14.01,2013-05-31 01:32:00,
2013-05-30 21:33:00,79.9,52.0,30.06,East,90,2.0,2.5,38,0.00,,---,0.00,VWS V14.01,2013-05-31 01:33:00,
2013-05-30 21:34:00,79.9,52.0,30.06,West,270,3.1,3.4,38,0.00,,---,0.00,VWS V14.01,2013-05-31 01:34:00,
2013-05-30 21:35:00,79.9,52.0,30.06,WSW,248,1.6,3.1,38,0.00,,---,0.00,VWS V14.01,2013-05-31 01:35:00,
2013-05-30 21:36:00,79.9,52.0,30.06,SSW,202,2.0,4.7,38,0.00,,---,0.00,VWS V14.01,2013-05-31 01:36:00,
2013-05-30 21:37:00,79.7,51.9,30.06,SE,135,1.3,2.0,38,0.00,,---,0.00,VWS V14.01,2013-05-31 01:37:00,
2013-05-30 21:38:00,79.7,51.9,30.06,SSW,202,1.3,4.9,38,0.00,,---,0.00,VWS V14.01,2013-05-31 01:38:00,
2013-05-30 21:39:00,79.7,51.9,30.06,NNW,338,1.6,2.2,38,0.00,,---,0.00,VWS V14.01,2013-05-31 01:39:00,
2013-05-30 21:40:00,79.7,52.6,30.06,SSE,158,4.9,4.9,39,0.00,,---,0.00,VWS V14.01,2013-05-31 01:40:00,
2013-05-30 21:41:00,79.7,51.9,30.06,SSW,202,1.3,4.9,38,0.00,,---,0.00,VWS V14.01,2013-05-31 01:41:00,
2013-05-30 21:42:00,79.5,51.7,30.06,SSE,158,1.6,2.9,38,0.00,,---,0.00,VWS V14.01,2013-05-31 01:42:00,
2013-05-30 21:43:00,79.5,51.7,30.06,NNW,338,0.9,0.9,38,0.00,,---,0.00,VWS V14.01,2013-05-31 01:43:00,
2013-05-30 21:44:00,79.5,52.4,30.06,North,0,1.6,3.1,39,0.00,,---,0.00,VWS V14.01,2013-05-31 01:44:00,
2013-05-30 21:45:00,79.5,52.4,30.06,ENE,68,0.0,2.9,39,0.00,,---,0.00,VWS V14.01,2013-05-31 01:45:00,
2013-05-30 21:46:00,79.5,51.7,30.06,NNW,338,0.9,0.9,38,0.00,,---,0.00,VWS V14.01,2013-05-31 01:46:00,
2013-05-30 21:47:00,79.5,52.4,30.06,ENE,68,2.0,2.0,39,0.00,,---,0.00,VWS V14.01,2013-05-31 01:47:00,
2013-05-30 21:48:00,79.3,51.5,30.06,WSW,248,1.6,3.1,38,0.00,,---,0.00,VWS V14.01,2013-05-31 01:48:00,
2013-05-30 21:49:00,79.3,51.5,30.06,NNE,22,2.0,3.6,38,0.00,,---,0.00,VWS V14.01,2013-05-31 01:49:00,
2013-05-30 21:50:00,79.3,51.5,30.06,ENE,68,3.1,3.1,38,0.00,,---,0.00,VWS V14.01,2013-05-31 01:50:00,
2013-05-30 21:51:00,79.3,51.5,30.06,WSW,248,1.6,3.1,38,0.00,,---,0.00,VWS V14.01,2013-05-31 01:51:00,
2013-05-30 21:52:00,79.3,51.5,30.06,South,180,1.1,1.6,38,0.00,,---,0.00,VWS V14.01,2013-05-31 01:52:00,
2013-05-30 21:53:00,79.3,51.5,30.06,NNW,338,2.2,3.8,38,0.00,,---,0.00,VWS V14.01,2013-05-31 01:53:00,
2013-05-30 21:54:00,79.3,51.5,30.06,North,0,1.6,5.8,38,0.00,,---,0.00,VWS V14.01,2013-05-31 01:54:00,
2013-05-30 21:55:00,79.3,51.5,30.06,South,180,3.8,3.8,38,0.00,,---,0.00,VWS V14.01,2013-05-31 01:55:00,
2013-05-30 21:56:00,79.3,51.5,30.06,NNW,338,2.2,3.8,38,0.00,,---,0.00,VWS V14.01,2013-05-31 01:56:00,
2013-05-30 21:57:00,79.2,51.4,30.06,WNW,292,1.1,2.2,38,0.00,,---,0.00,VWS V14.01,2013-05-31 01:57:00,
2013-05-30 21:58:00,79.0,51.2,30.06,ESE,112,1.6,1.6,38,0.00,,---,0.00,VWS V14.01,2013-05-31 01:58:00,
2013-05-30 21:59:00,79.2,51.4,30.06,ESE,112,0.0,1.6,38,0.00,,---,0.00,VWS V14.01,2013-05-31 01:59:00,
2013-05-30 22:00:00,79.2,51.4,30.06,SSW,202,1.3,2.2,38,0.00,,---,0.00,VWS V14.01,2013-05-31 02:00:00,
2013-05-30 22:01:00,79.0,51.2,30.06,WNW,292,1.3,1.6,38,0.00,,---,0.00,VWS V14.01,2013-05-31 02:01:00,
2013-05-30 22:02:00,79.0,51.2,30.06,SW,225,0.0,2.0,38,0.00,,---,0.00,VWS V14.01,2013-05-31 02:02:00,
2013-05-30 22:03:00,78.8,51.1,30.06,SE,135,2.0,2.0,38,0.00,,---,0.00,VWS V14.01,2013-05-31 02:03:00,
2013-05-30 22:04:00,79.0,51.2,30.06,SSW,202,1.1,2.2,38,0.00,,---,0.00,VWS V14.01,2013-05-31 02:04:00,
2013-05-30 22:05:00,79.0,51.2,30.06,ESE,112,1.6,1.6,38,0.00,,---,0.00,VWS V14.01,2013-05-31 02:05:00,
2013-05-30 22:06:00,78.8,51.1,30.06,SE,135,2.0,2.0,38,0.00,,---,0.00,VWS V14.01,2013-05-31 02:06:00,
2013-05-30 22:07:00,78.8,51.8,30.06,ENE,68,1.3,3.4,39,0.00,,---,0.00,VWS V14.01,2013-05-31 02:07:00,
2013-05-30 22:08:00,78.8,51.1,30.06,SSE,158,3.6,3.6,38,0.00,,---,0.00,VWS V14.01,2013-05-31 02:08:00,
2013-05-30 22:09:00,78.8,51.1,30.06,South,180,2.2,4.7,38,0.00,,---,0.00,VWS V14.01,2013-05-31 02:09:00,
2013-05-30 22:10:00,78.8,51.1,30.06,NNW,338,0.0,2.2,38,0.00,,---,0.00,VWS V14.01,2013-05-31 02:10:00,
2013-05-30 22:11:00,78.8,51.1,30.06,SW,225,2.2,3.6,38,0.00,,---,0.00,VWS V14.01,2013-05-31 02:11:00,
2013-05-30 22:12:00,78.8,51.1,30.06,SSE,158,0.0,2.2,38,0.00,,---,0.00,VWS V14.01,2013-05-31 02:12:00,
2013-05-30 22:13:00,78.6,51.6,30.06,SSW,202,3.1,3.1,39,0.00,,---,0.00,VWS V14.01,2013-05-31 02:13:00,
2013-05-30 22:14:00,78.8,51.1,30.06,SSW,202,3.4,3.4,38,0.00,,---,0.00,VWS V14.01,2013-05-31 02:14:00,
2013-05-30 22:15:00,78.8,51.1,30.06,NNW,338,2.0,3.4,38,0.00,,---,0.00,VWS V14.01,2013-05-31 02:15:00,
2013-05-30 22:16:00,78.6,51.6,30.06,SSW,202,3.1,3.1,39,0.00,,---,0.00,VWS V14.01,2013-05-31 02:16:00,
2013-05-30 22:17:00,78.6,50.9,30.06,WNW,292,1.3,3.1,38,0.00,,---,0.00,VWS V14.01,2013-05-31 02:17:00,
2013-05-30 22:18:00,78.6,51.6,30.06,SSE,158,2.2,4.3,39,0.00,,---,0.00,VWS V14.01,2013-05-31 02:18:00,
2013-05-30 22:19:00,78.6,50.9,30.06,SSE,158,0.0,1.6,38,0.00,,---,0.00,VWS V14.01,2013-05-31 02:19:00,
2013-05-30 22:20:00,78.6,50.9,30.06,NE,45,0.9,1.3,38,0.00,,---,0.00,VWS V14.01,2013-05-31 02:20:00,
2013-05-30 22:21:00,78.6,51.6,30.06,SSE,158,2.2,4.3,39,0.00,,---,0.00,VWS V14.01,2013-05-31 02:21:00,
2013-05-30 22:22:00,78.6,51.6,30.06,ENE,68,0.0,3.4,39,0.00,,---,0.00,VWS V14.01,2013-05-31 02:22:00,
2013-05-30 22:23:00,78.4,50.8,30.06,SSE,158,0.0,0.0,38,0.00,,---,0.00,VWS V14.01,2013-05-31 02:23:00,
2013-05-30 22:24:00,78.4,50.8,30.06,NNW,338,0.0,2.2,38,0.00,,---,0.00,VWS V14.01,2013-05-31 02:24:00,
2013-05-30 22:25:00,78.4,50.8,30.06,ENE,68,0.0,1.1,38,0.00,,---,0.00,VWS V14.01,2013-05-31 02:25:00,
2013-05-30 22:26:00,78.4,50.8,30.06,ESE,112,1.1,1.1,38,0.00,,---,0.00,VWS V14.01,2013-05-31 02:26:00,
2013-05-30 22:27:00,78.3,50.6,30.06,SSW,202,2.2,2.2,38,0.00,,---,0.00,VWS V14.01,2013-05-31 02:27:00,
2013-05-30 22:28:00,78.3,51.3,30.06,ENE,68,0.0,2.9,39,0.00,,---,0.00,VWS V14.01,2013-05-31 02:28:00,
2013-05-30 22:29:00,78.3,50.6,30.06,NW,315,1.1,2.2,38,0.00,,---,0.00,VWS V14.01,2013-05-31 02:29:00,
2013-05-30 22:30:00,78.3,51.3,30.06,WNW,292,2.9,2.9,39,0.00,,---,0.00,VWS V14.01,2013-05-31 02:30:00,
2013-05-30 22:31:00,78.3,51.3,30.06,ENE,68,0.0,2.9,39,0.00,,---,0.00,VWS V14.01,2013-05-31 02:31:00,
2013-05-30 22:32:00,78.3,51.3,30.06,South,180,1.6,1.6,39,0.00,,---,0.00,VWS V14.01,2013-05-31 02:32:00,
2013-05-30 22:33:00,78.3,51.3,30.06,SSW,202,1.6,2.9,39,0.00,,---,0.00,VWS V14.01,2013-05-31 02:33:00,
2013-05-30 22:34:00,78.3,51.3,30.06,South,180,0.0,2.0,39,0.00,,---,0.00,VWS V14.01,2013-05-31 02:34:00,
2013-05-30 22:35:00,78.3,51.3,30.06,SSW,202,1.6,1.6,39,0.00,,---,0.00,VWS V14.01,2013-05-31 02:35:00,
2013-05-30 22:36:00,78.3,51.3,30.06,NNW,338,1.1,2.9,39,0.00,,---,0.00,VWS V14.01,2013-05-31 02:36:00,
2013-05-30 22:37:00,78.1,51.1,30.06,SE,135,2.5,2.5,39,0.00,,---,0.00,VWS V14.01,2013-05-31 02:37:00,
2013-05-30 22:38:00,78.1,51.8,30.06,East,90,3.6,3.6,40,0.00,,---,0.00,VWS V14.01,2013-05-31 02:38:00,
2013-05-30 22:39:00,78.1,51.1,30.06,NE,45,3.6,3.6,39,0.00,,---,0.00,VWS V14.01,2013-05-31 02:39:00,
2013-05-30 22:40:00,78.1,51.8,30.06,West,270,0.0,3.6,40,0.00,,---,0.00,VWS V14.01,2013-05-31 02:40:00,
2013-05-30 22:41:00,78.1,51.8,30.06,SSE,158,1.6,3.6,40,0.00,,---,0.00,VWS V14.01,2013-05-31 02:41:00,
2013-05-30 22:42:00,78.1,51.8,30.06,NW,315,1.3,2.0,40,0.00,,---,0.00,VWS V14.01,2013-05-31 02:42:00,
2013-05-30 22:43:00,78.1,51.8,30.06,SW,225,0.0,0.0,40,0.00,,---,0.00,VWS V14.01,2013-05-31 02:43:00,
2013-05-30 22:44:00,78.1,51.8,30.06,SW,225,0.0,0.0,40,0.00,,---,0.00,VWS V14.01,2013-05-31 02:44:00,
2013-05-30 22:45:00,78.1,51.8,30.06,East,90,0.0,0.0,40,0.00,,---,0.00,VWS V14.01,2013-05-31 02:45:00,
2013-05-30 22:46:00,78.1,51.8,30.06,South,180,0.9,0.9,40,0.00,,---,0.00,VWS V14.01,2013-05-31 02:46:00,
2013-05-30 22:47:00,77.9,51.7,30.06,SSW,202,2.2,4.3,40,0.00,,---,0.00,VWS V14.01,2013-05-31 02:47:00,
2013-05-30 22:48:00,77.9,51.7,30.06,South,180,0.0,0.9,40,0.00,,---,0.00,VWS V14.01,2013-05-31 02:48:00,
2013-05-30 22:49:00,77.9,51.7,30.06,SW,225,0.0,0.9,40,0.00,,---,0.00,VWS V14.01,2013-05-31 02:49:00,
2013-05-30 22:50:00,77.9,51.7,30.06,SSE,158,0.0,2.5,40,0.00,,---,0.00,VWS V14.01,2013-05-31 02:50:00,
2013-05-30 22:51:00,77.9,51.7,30.06,NNW,338,0.0,0.9,40,0.00,,---,0.00,VWS V14.01,2013-05-31 02:51:00,
2013-05-30 22:52:00,77.9,51.7,30.06,WNW,292,0.0,0.0,40,0.00,,---,0.00,VWS V14.01,2013-05-31 02:52:00,
2013-05-30 22:53:00,77.9,51.7,30.06,NNW,338,1.6,1.6,40,0.00,,---,0.00,VWS V14.01,2013-05-31 02:53:00,
2013-05-30 22:54:00,77.9,51.7,30.06,WNW,292,1.3,1.3,40,0.00,,---,0.00,VWS V14.01,2013-05-31 02:54:00,
2013-05-30 22:55:00,77.9,51.7,30.06,SSW,202,1.1,1.3,40,0.00,,---,0.00,VWS V14.01,2013-05-31 02:55:00,
2013-05-30 22:56:00,77.9,51.7,30.06,NNW,338,0.0,1.6,40,0.00,,---,0.00,VWS V14.01,2013-05-31 02:56:00,
2013-05-30 22:57:00,77.9,51.7,30.06,ENE,68,0.0,0.0,40,0.00,,---,0.00,VWS V14.01,2013-05-31 02:57:00,
2013-05-30 22:58:00,77.7,51.5,30.06,NW,315,3.8,3.8,40,0.00,,---,0.00,VWS V14.01,2013-05-31 02:58:00,
2013-05-30 22:59:00,77.7,51.5,30.06,North,0,1.6,1.6,40,0.00,,---,0.00,VWS V14.01,2013-05-31 02:59:00,
2013-05-30 23:00:00,77.7,51.5,30.06,WNW,292,0.0,1.6,40,0.00,,---,0.00,VWS V14.01,2013-05-31 03:00:00,
2013-05-30 23:01:00,77.7,51.5,30.06,SE,135,2.2,3.8,40,0.00,,---,0.00,VWS V14.01,2013-05-31 03:01:00,
2013-05-30 23:02:00,77.7,52.2,30.09,SSW,202,1.1,2.7,41,0.00,,---,0.00,VWS V14.01,2013-05-31 03:02:00,
2013-05-30 23:03:00,77.7,51.5,30.09,SE,135,0.0,0.0,40,0.00,,---,0.00,VWS V14.01,2013-05-31 03:03:00,
2013-05-30 23:04:00,77.7,51.5,30.09,South,180,0.0,3.4,40,0.00,,---,0.00,VWS V14.01,2013-05-31 03:04:00,
2013-05-30 23:05:00,77.7,51.5,30.09,SSW,202,0.0,0.0,40,0.00,,---,0.00,VWS V14.01,2013-05-31 03:05:00,
2013-05-30 23:06:00,77.7,51.5,30.09,SE,135,0.0,0.0,40,0.00,,---,0.00,VWS V14.01,2013-05-31 03:06:00,
2013-05-30 23:07:00,77.5,51.3,30.09,SSW,202,0.0,0.0,40,0.00,,---,0.00,VWS V14.01,2013-05-31 03:07:00,
2013-05-30 23:08:00,77.5,52.0,30.09,SW,225,0.0,1.1,41,0.00,,---,0.00,VWS V14.01,2013-05-31 03:08:00,
2013-05-30 23:09:00,77.5,51.3,30.09,SSW,202,0.0,2.0,40,0.00,,---,0.00,VWS V14.01,2013-05-31 03:09:00,
2013-05-30 23:10:00,77.5,52.0,30.09,SSW,202,0.0,1.3,41,0.00,,---,0.00,VWS V14.01,2013-05-31 03:10:00,
2013-05-30 23:11:00,77.5,52.0,30.09,ENE,68,0.0,1.1,41,0.00,,---,0.00,VWS V14.01,2013-05-31 03:11:00,
2013-05-30 23:12:00,77.5,52.0,30.09,SE,135,3.1,3.1,41,0.00,,---,0.00,VWS V14.01,2013-05-31 03:12:00,
2013-05-30 23:13:00,77.4,51.8,30.09,ESE,112,4.0,4.0,41,0.00,,---,0.00,VWS V14.01,2013-05-31 03:13:00,
2013-05-30 23:14:00,77.5,52.0,30.09,ENE,68,1.3,2.5,41,0.00,,---,0.00,VWS V14.01,2013-05-31 03:14:00,
2013-05-30 23:15:00,77.4,51.8,30.09,ESE,112,0.0,2.9,41,0.00,,---,0.00,VWS V14.01,2013-05-31 03:15:00,
2013-05-30 23:16:00,77.4,51.8,30.09,SSE,158,4.0,4.0,41,0.00,,---,0.00,VWS V14.01,2013-05-31 03:16:00,
2013-05-30 23:17:00,77.4,51.8,30.09,NNW,338,0.0,4.0,41,0.00,,---,0.00,VWS V14.01,2013-05-31 03:17:00,
2013-05-30 23:18:00,77.4,51.8,30.09,SSE,158,2.2,2.5,41,0.00,,---,0.00,VWS V14.01,2013-05-31 03:18:00,
2013-05-30 23:19:00,77.4,51.8,30.09,SSE,158,0.0,2.2,41,0.00,,---,0.00,VWS V14.01,2013-05-31 03:19:00,
2013-05-30 23:20:00,77.4,51.8,30.09,SSE,158,0.9,2.7,41,0.00,,---,0.00,VWS V14.01,2013-05-31 03:20:00,
2013-05-30 23:21:00,77.4,51.8,30.09,South,180,0.9,2.5,41,0.00,,---,0.00,VWS V14.01,2013-05-31 03:21:00,
2013-05-30 23:22:00,77.4,51.8,30.09,SSW,202,1.1,3.4,41,0.00,,---,0.00,VWS V14.01,2013-05-31 03:22:00,
2013-05-30 23:23:00,77.4,51.8,30.09,WNW,292,2.0,3.1,41,0.00,,---,0.00,VWS V14.01,2013-05-31 03:23:00,
2013-05-30 23:24:00,77.4,52.5,30.09,SSE,158,2.7,9.4,42,0.00,,---,0.00,VWS V14.01,2013-05-31 03:24:00,
2013-05-30 23:25:00,77.4,51.8,30.09,SSE,158,2.0,2.7,41,0.00,,---,0.00,VWS V14.01,2013-05-31 03:25:00,
2013-05-30 23:26:00,77.4,52.5,30.09,WSW,248,2.0,3.1,42,0.00,,---,0.00,VWS V14.01,2013-05-31 03:26:00,
2013-05-30 23:27:00,77.4,52.5,30.09,ESE,112,1.3,2.5,42,0.00,,---,0.00,VWS V14.01,2013-05-31 03:27:00,
2013-05-30 23:28:00,77.4,52.5,30.09,South,180,2.2,4.3,42,0.00,,---,0.00,VWS V14.01,2013-05-31 03:28:00,
2013-05-30 23:29:00,77.4,51.8,30.09,South,180,2.2,2.5,41,0.00,,---,0.00,VWS V14.01,2013-05-31 03:29:00,
2013-05-30 23:30:00,77.4,51.8,30.09,ESE,112,4.3,4.3,41,0.00,,---,0.00,VWS V14.01,2013-05-31 03:30:00,
2013-05-30 23:31:00,77.4,52.5,30.09,SSW,202,2.0,4.3,42,0.00,,---,0.00,VWS V14.01,2013-05-31 03:31:00,
2013-05-30 23:32:00,77.4,52.5,30.09,SSW,202,1.1,3.1,42,0.00,,---,0.00,VWS V14.01,2013-05-31 03:32:00,
2013-05-30 23:33:00,77.2,52.3,30.09,ESE,112,3.1,3.1,42,0.00,,---,0.00,VWS V14.01,2013-05-31 03:33:00,
2013-05-30 23:34:00,77.2,52.3,30.09,ESE,112,0.0,0.0,42,0.00,,---,0.00,VWS V14.01,2013-05-31 03:34:00,
2013-05-30 23:35:00,77.2,52.3,30.09,SSE,158,1.6,2.5,42,0.00,,---,0.00,VWS V14.01,2013-05-31 03:35:00,
2013-05-30 23:36:00,77.2,52.3,30.09,SW,225,1.3,3.1,42,0.00,,---,0.00,VWS V14.01,2013-05-31 03:36:00,
2013-05-30 23:37:00,77.2,52.3,30.09,SSW,202,2.7,2.7,42,0.00,,---,0.00,VWS V14.01,2013-05-31 03:37:00,
2013-05-30 23:38:00,77.2,52.3,30.09,NNE,22,2.5,2.9,42,0.00,,---,0.00,VWS V14.01,2013-05-31 03:38:00,
2013-05-30 23:39:00,77.2,52.3,30.09,WSW,248,2.0,2.2,42,0.00,,---,0.00,VWS V14.01,2013-05-31 03:39:00,
2013-05-30 23:40:00,77.2,52.3,30.09,SSE,158,2.9,2.9,42,0.00,,---,0.00,VWS V14.01,2013-05-31 03:40:00,
2013-05-30 23:41:00,77.2,52.3,30.09,SSW,202,4.3,4.9,42,0.00,,---,0.00,VWS V14.01,2013-05-31 03:41:00,
2013-05-30 23:42:00,77.2,52.3,30.09,NW,315,2.2,4.7,42,0.00,,---,0.00,VWS V14.01,2013-05-31 03:42:00,
2013-05-30 23:43:00,77.2,52.3,30.09,East,90,2.0,2.0,42,0.00,,---,0.00,VWS V14.01,2013-05-31 03:43:00,
2013-05-30 23:44:00,77.2,53.0,30.09,SSE,158,0.0,3.8,43,0.00,,---,0.00,VWS V14.01,2013-05-31 03:44:00,
2013-05-30 23:45:00,77.2,52.3,30.09,SW,225,1.3,1.3,42,0.00,,---,0.00,VWS V14.01,2013-05-31 03:45:00,
2013-05-30 23:46:00,77.2,52.3,30.09,East,90,3.6,3.6,42,0.00,,---,0.00,VWS V14.01,2013-05-31 03:46:00,
2013-05-30 23:47:00,77.2,53.0,30.09,ENE,68,2.5,5.4,43,0.00,,---,0.00,VWS V14.01,2013-05-31 03:47:00,
2013-05-30 23:48:00,77.2,53.0,30.09,SSE,158,2.5,2.5,43,0.00,,---,0.00,VWS V14.01,2013-05-31 03:48:00,
2013-05-30 23:49:00,77.2,53.0,30.09,NNW,338,2.5,4.3,43,0.00,,---,0.00,VWS V14.01,2013-05-31 03:49:00,
2013-05-30 23:50:00,77.2,53.0,30.09,SSE,158,2.5,2.5,43,0.00,,---,0.00,VWS V14.01,2013-05-31 03:50:00,
2013-05-30 23:51:00,77.2,53.0,30.09,SSW,202,1.6,2.5,43,0.00,,---,0.00,VWS V14.01,2013-05-31 03:51:00,
2013-05-30 23:52:00,77.0,52.8,30.09,NNE,22,0.0,1.6,43,0.00,,---,0.00,VWS V14.01,2013-05-31 03:52:00,
2013-05-30 23:53:00,77.0,52.8,30.09,SE,135,0.0,1.1,43,0.00,,---,0.00,VWS V14.01,2013-05-31 03:53:00,
2013-05-30 23:54:00,77.0,52.8,30.09,SE,135,1.3,2.9,43,0.00,,---,0.00,VWS V14.01,2013-05-31 03:54:00,
2013-05-30 23:55:00,77.0,52.8,30.09,SSE,158,1.1,2.7,43,0.00,,---,0.00,VWS V14.01,2013-05-31 03:55:00,
2013-05-30 23:56:00,77.0,52.8,30.09,SSW,202,0.0,1.1,43,0.00,,---,0.00,VWS V14.01,2013-05-31 03:56:00,
2013-05-30 23:57:00,76.8,52.7,30.09,WSW,248,0.0,1.6,43,0.00,,---,0.00,VWS V14.01,2013-05-31 03:57:00,
2013-05-30 23:58:00,76.8,53.3,30.09,ENE,68,1.6,1.6,44,0.00,,---,0.00,VWS V14.01,2013-05-31 03:58:00,
2013-05-30 23:59:00,76.8,53.3,30.09,SSW,202,0.0,0.9,44,0.00,,---,0.00,VWS V14.01,2013-05-31 03:59:00,